[[{"header":{"parameterUnit":"m.s-1","parameterCategory":1,"la1":30.6,"la2":29.2853,"lo1":-89.7004,"lo2":-87.6739,"dy":0.0162,"dx":0.0183,"nx":112,"ny":82,"refTime":"2024-05-31T06:00:00:Z","depth":0,"parameterNumber":2,"parameterNumberName":"U-component_of_WINDS"},"data":[0.0,0.0,0.0,0.0,0.0,0.0,0.0,0.0,0.0,0.0,0.0,0.0,0.0,0.0,0.0,0.0,0.0,0.0,0.0,0.0,0.0,0.0,0.0,0.0,0.0,0.0,0.0,0.0,0.0,0.0,0.0,0.0,0.0,0.0,0.0,0.0,0.0,0.0,0.0,0.0,0.0,0.0,0.0,0.0,0.0,0.0,0.0,0.0,0.0,0.0,0.0,0.0,0.0,0.0,0.0,0.0,0.0,0.0,0.0,0.0,0.0,0.0,0.0,0.0,0.0,0.0,0.0,0.0,0.0,0.0,0.0,0.0,0.0,0.0,0.0,0.0,0.0,0.0,0.0,0.0,0.0,0.0,0.0,0.0,0.0,0.0,0.0,0.0,0.0,0.0,0.0,-2.6001,-2.806,-2.9357,-2.9492,-2.9146,-2.7588,-2.4471,0.0,0.0,0.0,0.0,0.0,0.0,0.0,0.0,0.0,0.0,0.0,0.0,0.0,0.0,0.0,0.0,0.0,0.0,0.0,0.0,0.0,0.0,0.0,0.0,0.0,0.0,0.0,0.0,0.0,0.0,0.0,0.0,0.0,0.0,0.0,0.0,0.0,0.0,0.0,0.0,0.0,0.0,0.0,0.0,0.0,0.0,0.0,0.0,0.0,0.0,0.0,0.0,0.0,0.0,0.0,0.0,0.0,0.0,0.0,0.0,0.0,0.0,0.0,0.0,0.0,0.0,0.0,0.0,0.0,0.0,0.0,0.0,0.0,0.0,0.0,0.0,0.0,0.0,0.0,0.0,0.0,0.0,0.0,0.0,0.0,0.0,0.0,0.0,0.0,0.0,0.0,0.0,0.0,0.0,0.0,0.0,0.0,0.0,0.0,0.0,0.0,0.0,0.0,0.0,-2.3955,-2.9088,-2.9979,-3.05,-3.1237,-2.9313,-2.7236,-2.5231,0.0,0.0,0.0,0.0,0.0,0.0,0.0,0.0,0.0,0.0,0.0,0.0,0.0,0.0,0.0,0.0,0.0,0.0,0.0,0.0,0.0,0.0,0.0,0.0,0.0,0.0,0.0,0.0,0.0,0.0,0.0,0.0,0.0,0.0,0.0,0.0,0.0,0.0,0.0,0.0,0.0,0.0,0.0,0.0,0.0,0.0,0.0,0.0,0.0,0.0,0.0,0.0,0.0,0.0,0.0,0.0,0.0,0.0,0.0,0.0,0.0,0.0,0.0,0.0,0.0,0.0,0.0,0.0,0.0,0.0,0.0,0.0,0.0,0.0,0.0,0.0,0.0,0.0,0.0,0.0,0.0,0.0,0.0,0.0,0.0,0.0,0.0,0.0,0.0,0.0,0.0,0.0,0.0,0.0,0.0,0.0,0.0,0.0,0.0,0.0,0.0,0.0,0.0,-2.3647,-2.5931,-3.002,-3.0447,-3.0604,-3.0953,-2.9091,-2.716,-2.5404,-2.2058,0.0,0.0,0.0,0.0,0.0,0.0,0.0,0.0,0.0,0.0,0.0,0.0,0.0,0.0,0.0,0.0,0.0,0.0,0.0,0.0,0.0,0.0,0.0,0.0,0.0,0.0,0.0,0.0,0.0,0.0,0.0,0.0,0.0,0.0,0.0,0.0,0.0,0.0,0.0,0.0,0.0,0.0,0.0,0.0,0.0,0.0,0.0,0.0,0.0,0.0,0.0,0.0,0.0,0.0,0.0,0.0,0.0,0.0,0.0,0.0,0.0,0.0,0.0,0.0,0.0,0.0,0.0,0.0,0.0,0.0,0.0,0.0,0.0,0.0,0.0,0.0,0.0,0.0,0.0,0.0,0.0,0.0,0.0,0.0,0.0,0.0,0.0,0.0,0.0,0.0,0.0,0.0,0.0,0.0,0.0,0.0,0.0,0.0,0.0,0.0,0.0,0.0,-2.6635,-2.7904,-3.0239,-3.0504,-3.0474,-3.0428,-2.8674,-2.693,-2.5423,-2.1158,0.0,0.0,0.0,0.0,0.0,0.0,0.0,0.0,0.0,0.0,0.0,0.0,0.0,0.0,0.0,0.0,0.0,0.0,0.0,0.0,0.0,0.0,0.0,0.0,0.0,0.0,0.0,0.0,0.0,0.0,0.0,0.0,0.0,0.0,0.0,0.0,0.0,0.0,0.0,0.0,0.0,0.0,0.0,0.0,0.0,0.0,0.0,0.0,0.0,0.0,0.0,0.0,0.0,0.0,0.0,0.0,0.0,0.0,0.0,0.0,0.0,0.0,0.0,0.0,0.0,0.0,0.0,0.0,0.0,0.0,0.0,0.0,0.0,0.0,0.0,0.0,0.0,0.0,0.0,0.0,0.0,0.0,0.0,0.0,0.0,0.0,0.0,0.0,0.0,0.0,0.0,0.0,0.0,0.0,0.0,0.0,0.0,0.0,0.0,0.0,0.0,0.0,-2.6434,-2.8565,-3.0317,-3.0495,-3.0504,-3.0479,-2.8164,-2.6309,-2.544,-2.0612,0.0,0.0,0.0,0.0,0.0,0.0,0.0,0.0,0.0,0.0,0.0,0.0,0.0,0.0,0.0,0.0,0.0,0.0,0.0,0.0,0.0,0.0,0.0,0.0,0.0,0.0,0.0,0.0,0.0,0.0,0.0,0.0,0.0,0.0,0.0,0.0,0.0,0.0,0.0,0.0,0.0,0.0,0.0,0.0,0.0,0.0,0.0,0.0,0.0,0.0,0.0,0.0,0.0,0.0,0.0,0.0,0.0,0.0,0.0,0.0,0.0,0.0,0.0,0.0,0.0,0.0,0.0,0.0,0.0,0.0,0.0,0.0,0.0,0.0,0.0,0.0,0.0,0.0,0.0,0.0,0.0,0.0,0.0,0.0,0.0,0.0,0.0,0.0,0.0,0.0,0.0,0.0,0.0,0.0,0.0,0.0,0.0,0.0,0.0,0.0,0.0,0.0,-2.6292,-2.8066,0.0,-3.0554,-3.0545,-3.0505,-2.8642,-2.665,-2.4716,0.0,0.0,0.0,0.0,0.0,0.0,0.0,0.0,0.0,0.0,0.0,0.0,0.0,0.0,0.0,0.0,0.0,0.0,0.0,0.0,0.0,0.0,0.0,0.0,0.0,0.0,0.0,0.0,0.0,0.0,0.0,0.0,0.0,0.0,0.0,0.0,0.0,0.0,0.0,0.0,0.0,0.0,0.0,0.0,0.0,0.0,0.0,0.0,0.0,0.0,0.0,0.0,0.0,0.0,0.0,0.0,0.0,0.0,0.0,0.0,0.0,0.0,0.0,0.0,0.0,0.0,0.0,0.0,0.0,0.0,0.0,0.0,0.0,0.0,0.0,0.0,0.0,0.0,0.0,0.0,0.0,0.0,0.0,0.0,0.0,0.0,0.0,0.0,0.0,0.0,0.0,0.0,0.0,0.0,0.0,0.0,0.0,0.0,0.0,0.0,0.0,0.0,-2.4946,-2.6435,-2.8006,0.0,-3.0598,-3.0472,-3.0144,-2.8555,-2.6483,-2.3887,0.0,0.0,0.0,0.0,0.0,0.0,0.0,0.0,0.0,0.0,0.0,0.0,0.0,0.0,0.0,0.0,0.0,0.0,0.0,0.0,0.0,0.0,0.0,0.0,0.0,0.0,0.0,0.0,0.0,0.0,0.0,0.0,0.0,0.0,0.0,0.0,0.0,0.0,0.0,0.0,0.0,0.0,0.0,0.0,0.0,0.0,0.0,0.0,0.0,0.0,0.0,0.0,0.0,0.0,0.0,0.0,0.0,0.0,0.0,0.0,0.0,0.0,0.0,0.0,0.0,0.0,0.0,0.0,0.0,0.0,0.0,0.0,0.0,0.0,0.0,0.0,0.0,0.0,0.0,0.0,0.0,0.0,0.0,0.0,0.0,0.0,0.0,0.0,0.0,0.0,0.0,0.0,0.0,0.0,0.0,0.0,0.0,0.0,0.0,0.0,0.0,0.0,-2.4946,-2.6962,-2.8668,-3.0404,-3.0598,-3.025,-2.9364,-2.7703,-2.5615,0.0,0.0,0.0,0.0,0.0,0.0,0.0,0.0,0.0,0.0,0.0,0.0,0.0,0.0,0.0,0.0,0.0,0.0,0.0,0.0,0.0,0.0,0.0,0.0,0.0,0.0,0.0,0.0,0.0,0.0,0.0,0.0,0.0,0.0,0.0,0.0,0.0,0.0,0.0,0.0,0.0,0.0,0.0,0.0,0.0,0.0,0.0,0.0,0.0,0.0,0.0,0.0,0.0,0.0,0.0,0.0,0.0,0.0,0.0,0.0,0.0,0.0,0.0,0.0,0.0,0.0,0.0,0.0,0.0,0.0,0.0,0.0,0.0,0.0,0.0,0.0,0.0,0.0,0.0,0.0,0.0,0.0,0.0,0.0,0.0,0.0,0.0,0.0,0.0,0.0,0.0,0.0,0.0,0.0,0.0,0.0,0.0,0.0,0.0,0.0,0.0,0.0,0.0,-2.4946,-2.6962,-2.8668,-3.0404,-3.0598,-3.025,-2.9364,-2.8277,-2.6033,-2.2288,0.0,0.0,0.0,0.0,0.0,0.0,0.0,0.0,0.0,0.0,0.0,0.0,0.0,0.0,0.0,0.0,0.0,0.0,0.0,0.0,0.0,0.0,0.0,0.0,0.0,0.0,0.0,0.0,0.0,0.0,0.0,0.0,0.0,0.0,0.0,0.0,0.0,0.0,0.0,0.0,0.0,0.0,0.0,0.0,0.0,0.0,0.0,0.0,0.0,0.0,0.0,0.0,0.0,0.0,0.0,0.0,0.0,0.0,0.0,0.0,0.0,0.0,0.0,0.0,0.0,0.0,0.0,0.0,0.0,0.0,0.0,0.0,0.0,0.0,0.0,0.0,0.0,0.0,0.0,0.0,0.0,0.0,0.0,0.0,0.0,0.0,0.0,0.0,0.0,0.0,0.0,0.0,0.0,0.0,0.0,0.0,0.0,0.0,0.0,0.0,0.0,0.0,-2.4946,-2.6962,-2.8668,-3.0404,-3.0598,-3.025,-2.9364,-2.8494,-2.6327,-2.242,0.0,0.0,0.0,0.0,0.0,0.0,0.0,0.0,0.0,0.0,0.0,0.0,0.0,0.0,0.0,0.0,0.0,0.0,0.0,0.0,0.0,0.0,0.0,0.0,0.0,0.0,0.0,0.0,0.0,0.0,0.0,0.0,0.0,0.0,0.0,0.0,0.0,0.0,0.0,0.0,0.0,0.0,0.0,0.0,0.0,0.0,0.0,0.0,0.0,0.0,0.0,0.0,0.0,0.0,0.0,0.0,0.0,0.0,0.0,0.0,0.0,0.0,0.0,0.0,0.0,0.0,0.0,0.0,0.0,0.0,0.0,0.0,0.0,0.0,0.0,0.0,0.0,0.0,0.0,0.0,0.0,0.0,0.0,0.0,0.0,0.0,0.0,0.0,0.0,0.0,0.0,0.0,0.0,0.0,0.0,0.0,0.0,0.0,0.0,0.0,0.0,0.0,-2.4946,-2.6962,-2.8668,-3.0404,-3.0598,-3.025,-2.9364,-2.8494,-2.6579,-2.3232,0.0,0.0,0.0,0.0,0.0,0.0,0.0,0.0,0.0,0.0,0.0,0.0,0.0,0.0,0.0,0.0,0.0,0.0,0.0,0.0,0.0,0.0,0.0,0.0,0.0,0.0,0.0,0.0,0.0,0.0,0.0,0.0,0.0,0.0,0.0,0.0,0.0,0.0,0.0,0.0,0.0,0.0,0.0,0.0,0.0,0.0,0.0,0.0,0.0,0.0,0.0,0.0,0.0,0.0,0.0,0.0,0.0,0.0,0.0,0.0,-2.075,0.0,0.0,0.0,0.0,0.0,0.0,0.0,0.0,0.0,0.0,0.0,0.0,0.0,0.0,0.0,0.0,0.0,0.0,0.0,0.0,0.0,0.0,0.0,0.0,0.0,0.0,0.0,0.0,0.0,0.0,0.0,0.0,0.0,0.0,0.0,0.0,0.0,0.0,0.0,0.0,0.0,-2.4946,-2.6962,-2.8668,-3.0404,-3.0598,-3.025,-2.9364,-2.8494,-2.683,-2.4099,-2.1523,0.0,0.0,0.0,0.0,0.0,0.0,0.0,0.0,0.0,0.0,0.0,0.0,0.0,0.0,0.0,0.0,0.0,0.0,0.0,0.0,0.0,0.0,0.0,0.0,0.0,0.0,0.0,0.0,0.0,0.0,0.0,0.0,0.0,0.0,0.0,0.0,0.0,0.0,0.0,0.0,0.0,0.0,0.0,0.0,0.0,0.0,0.0,0.0,0.0,0.0,0.0,0.0,0.0,0.0,0.0,0.0,0.0,0.0,0.0,0.0,-2.2684,0.0,0.0,0.0,0.0,0.0,0.0,0.0,0.0,0.0,0.0,0.0,0.0,0.0,0.0,0.0,0.0,0.0,0.0,0.0,0.0,0.0,0.0,0.0,0.0,0.0,0.0,0.0,0.0,0.0,0.0,0.0,0.0,0.0,0.0,0.0,0.0,0.0,0.0,0.0,0.0,-2.5623,-2.7561,-2.9132,-3.0462,-3.0598,-3.0424,-2.9959,-2.8745,-2.7256,-2.5507,-2.3012,0.0,0.0,0.0,0.0,0.0,0.0,0.0,0.0,0.0,0.0,0.0,0.0,0.0,0.0,0.0,0.0,0.0,0.0,0.0,0.0,0.0,0.0,0.0,0.0,0.0,0.0,0.0,0.0,0.0,0.0,0.0,0.0,0.0,0.0,0.0,0.0,0.0,0.0,0.0,0.0,0.0,0.0,0.0,0.0,0.0,0.0,0.0,0.0,0.0,0.0,0.0,0.0,0.0,-3.1062,-3.1835,-3.2507,-3.3223,-3.3552,-3.3281,-2.8335,-2.6729,-2.7383,-2.4834,0.0,0.0,0.0,0.0,0.0,0.0,0.0,0.0,0.0,0.0,0.0,0.0,0.0,0.0,0.0,0.0,0.0,0.0,0.0,0.0,0.0,0.0,0.0,0.0,-2.9205,-2.8586,-2.4374,0.0,0.0,0.0,0.0,0.0,0.0,0.0,0.0,0.0,0.0,0.0,-2.6397,-2.8219,-2.9631,-3.0501,-3.0598,-3.0598,-3.0598,-2.8997,-2.7701,-2.6977,-2.4544,-2.2107,0.0,0.0,0.0,0.0,0.0,0.0,0.0,0.0,0.0,0.0,0.0,0.0,0.0,0.0,0.0,0.0,0.0,0.0,0.0,0.0,0.0,0.0,0.0,0.0,0.0,0.0,0.0,0.0,0.0,0.0,0.0,0.0,-1.6508,-1.9116,0.0,0.0,0.0,0.0,0.0,0.0,0.0,0.0,0.0,0.0,0.0,0.0,0.0,-3.0144,-3.096,-3.257,-3.3504,-3.3736,-3.4607,-3.5085,-3.5182,-3.5298,-3.5356,-3.5317,-3.4524,0.0,-3.0922,-2.8373,0.0,0.0,0.0,0.0,0.0,0.0,0.0,0.0,0.0,0.0,0.0,0.0,0.0,0.0,0.0,0.0,0.0,0.0,0.0,0.0,0.0,0.0,-3.1966,-3.1424,-3.1386,-3.1289,0.0,-2.7598,-2.4481,-2.2736,-2.1833,0.0,0.0,0.0,0.0,0.0,0.0,0.0,-2.6474,-2.8219,-2.9631,-3.0501,-3.0598,-3.0598,-3.0598,-2.8997,-2.7952,-2.7836,-2.5434,-2.3538,-2.2439,-2.0153,0.0,0.0,0.0,0.0,0.0,0.0,0.0,0.0,0.0,0.0,0.0,0.0,0.0,0.0,0.0,0.0,0.0,0.0,0.0,0.0,0.0,0.0,0.0,0.0,0.0,0.0,0.0,0.0,0.0,-1.7037,-1.9609,-2.0746,-2.0946,-2.0839,0.0,0.0,0.0,0.0,0.0,0.0,0.0,0.0,0.0,-3.1512,-3.2343,-3.3596,-3.5369,-3.6149,-3.7019,-3.8011,-3.8837,-3.9243,-3.9262,-3.9746,-3.9978,-3.9939,-3.9456,-3.8334,-3.6574,-3.3059,-3.1081,-3.0187,0.0,0.0,0.0,0.0,-2.8083,-2.8601,-2.9471,-2.9761,-2.9684,-2.9201,0.0,0.0,0.0,0.0,0.0,0.0,0.0,0.0,0.0,0.0,-3.3126,-3.3247,-3.3634,-3.3866,-3.3363,-3.1816,-2.9565,0.0,-2.5879,-2.5073,-2.2284,0.0,0.0,0.0,0.0,-2.6787,-2.8006,-2.9263,-3.0172,-3.0559,-3.0598,-3.0598,-3.0598,-2.8997,-2.7991,-2.7991,-2.6072,-2.4544,-2.3674,-2.2088,-2.0211,0.0,0.0,0.0,0.0,0.0,0.0,0.0,0.0,0.0,0.0,0.0,0.0,0.0,0.0,0.0,0.0,0.0,0.0,0.0,0.0,0.0,0.0,0.0,0.0,0.0,0.0,0.0,0.0,-2.0182,-2.2473,-2.2468,-2.3596,-2.3965,0.0,0.0,0.0,0.0,0.0,0.0,-3.0506,-3.1623,-3.317,-3.5317,-3.5999,-3.7251,-3.914,-3.9392,-4.0152,-4.1448,-4.2048,-4.2338,-4.2357,-4.2995,-4.3305,-4.3266,-4.2609,-4.199,-4.1119,-3.7038,-3.4737,-3.3687,-3.2822,-3.1971,-3.1275,-3.1487,-3.1952,-3.259,-3.3455,-3.3764,-3.3687,-3.3242,-3.257,-3.1661,-3.037,0.0,0.0,0.0,0.0,-3.1275,-3.2725,-3.3745,-3.4577,-3.522,-3.5878,-3.6168,-3.551,-3.5206,-3.3833,0.0,-2.9495,-2.8857,-2.5453,0.0,0.0,0.0,0.0,-2.89,-2.9553,-3.0385,-3.083,-3.0617,-3.0598,-3.0598,-3.0598,-2.8997,-2.7991,-2.7991,-2.642,-2.5221,-2.4563,-2.3693,-2.2242,-2.0115,0.0,0.0,0.0,0.0,0.0,0.0,0.0,0.0,0.0,0.0,0.0,0.0,0.0,0.0,0.0,0.0,0.0,0.0,0.0,0.0,0.0,0.0,0.0,0.0,0.0,0.0,0.0,0.0,0.0,-2.5115,-2.734,0.0,0.0,0.0,0.0,-3.0153,-3.1038,-3.23,-3.4046,-3.5684,-3.7019,-3.798,-4.0365,-4.168,-4.1816,-4.2628,-4.3092,-4.3169,-4.3227,-4.3227,-4.3247,-4.3285,-4.3305,-4.3305,-4.3247,-4.3208,-4.2918,-3.943,-3.7058,-3.5472,-3.4607,-3.3731,-3.3068,-3.3905,-3.4239,-3.4394,-3.5259,-3.5568,-3.5684,-3.6419,-3.6091,-3.5433,-3.5336,-3.4156,0.0,0.0,-3.4742,-3.5568,-3.6419,-3.7284,-3.7941,-3.7999,-3.8038,-3.8057,-3.8019,-3.7367,-3.5742,0.0,-3.1637,-3.1366,-3.0385,0.0,-2.936,-3.0153,-3.0385,-3.0482,-3.052,-3.1236,-3.1444,-3.0675,-3.0598,-3.0598,-3.0598,-2.8997,-2.7991,-2.7991,-2.642,-2.5488,-2.543,-2.4602,-2.3693,-2.2729,-2.025,0.0,0.0,0.0,0.0,0.0,0.0,0.0,0.0,0.0,0.0,0.0,0.0,0.0,0.0,0.0,0.0,0.0,0.0,0.0,0.0,0.0,0.0,0.0,0.0,0.0,0.0,0.0,0.0,-2.8574,-3.0482,0.0,-3.0878,-3.1894,-3.2711,-3.302,-3.4833,-3.6439,-3.7624,-3.9262,-4.0578,-4.1448,-4.2357,-4.3111,-4.3672,-4.3982,-4.4407,-4.491,-4.491,-4.491,-4.491,-4.491,-4.491,-4.491,-4.491,-4.462,-4.4033,-4.2815,-4.1313,-3.9727,-3.9417,-3.8779,-3.8083,-3.8398,-3.8843,-3.9262,-3.9056,-3.8978,-3.8843,-3.8005,-3.7541,-3.7309,-3.7309,-3.6859,-3.6452,-3.6767,-3.7077,-3.7367,-3.7651,-3.7961,-3.8193,-3.8193,-3.8193,-3.8193,-3.8193,-3.7961,-3.7381,-3.6162,-3.4582,-3.3035,-3.1603,-3.1579,-3.1657,-3.1405,-3.185,-3.2217,-3.2217,-3.1966,-3.1695,-3.1405,-3.0907,-3.0598,-3.0598,-2.8997,-2.7991,-2.7991,-2.642,-2.5507,-2.5507,-2.5201,-2.4621,-2.3751,-2.2281,-2.0018,0.0,0.0,0.0,0.0,0.0,0.0,0.0,0.0,0.0,0.0,0.0,0.0,0.0,0.0,0.0,0.0,0.0,0.0,0.0,0.0,0.0,0.0,0.0,0.0,0.0,0.0,-3.0037,-3.0907,-3.3518,-3.5021,-3.4441,-3.5704,-3.6676,-3.6947,-3.8528,-3.9862,-4.0739,-4.2106,-4.315,-4.373,-4.4001,-4.4427,-4.5007,-4.5007,-4.5278,-4.5807,-4.5807,-4.5807,-4.5807,-4.5807,-4.5807,-4.5807,-4.5807,-4.549,-4.5007,-4.5007,-4.4311,-4.3227,-4.2667,-4.2106,-4.1641,-4.1641,-4.197,-4.2357,-4.1835,-4.1448,-4.1003,-3.9862,-3.9301,-3.9088,-3.9088,-3.9088,-3.9088,-3.9088,-3.9088,-3.9088,-3.9088,-3.9088,-3.9088,-3.9088,-3.9088,-3.9088,-3.9088,-3.8856,-3.8644,-3.8644,-3.6806,-3.4872,-3.3726,-3.3532,-3.3436,-3.317,-3.3363,-3.3532,-3.3532,-3.3035,-3.2454,-3.185,-3.1308,-3.0888,-3.0617,-2.8997,-2.7991,-2.7991,-2.642,-2.5507,-2.5507,-2.5507,-2.524,-2.466,-2.3232,-2.124,-1.8664,0.0,0.0,0.0,0.0,0.0,0.0,0.0,0.0,0.0,0.0,0.0,0.0,0.0,0.0,0.0,0.0,0.0,0.0,0.0,0.0,0.0,0.0,0.0,-2.5739,-3.0013,-3.2875,-3.2121,-3.6477,-3.8901,-3.727,-3.9379,-4.1203,-4.197,-4.2067,-4.2454,-4.3305,-4.4175,-4.4632,-4.4632,-4.5394,-4.5807,-4.5807,-4.5807,-4.5807,-4.5807,-4.5807,-4.5807,-4.5807,-4.5807,-4.5807,-4.5807,-4.5807,-4.5807,-4.5807,-4.5807,-4.5807,-4.5633,-4.4001,-4.3382,-4.3382,-4.3382,-4.3363,-4.3343,-4.3343,-4.2763,-4.2048,-4.2048,-4.1506,-4.0874,-4.0874,-4.0874,-4.0874,-4.0874,-4.0855,-4.0835,-4.0835,-4.0816,-4.0797,-4.0797,-4.0797,-4.0797,-4.0797,-4.0139,-3.9539,-3.9539,-3.8141,-3.6961,-3.6903,-3.5549,-3.4761,-3.5568,-3.4974,0.0,-3.4432,-3.4413,-3.375,-3.2063,-3.185,-3.1502,-3.0714,-2.9035,-2.803,-2.7991,-2.642,-2.5507,-2.5507,-2.5507,-2.5507,-2.5507,-2.3019,-2.1317,-2.044,0.0,0.0,0.0,0.0,0.0,0.0,0.0,0.0,0.0,0.0,0.0,0.0,0.0,0.0,0.0,0.0,0.0,0.0,0.0,0.0,0.0,0.0,-3.1018,-3.1018,-3.2764,-3.4872,-3.7121,-3.9191,-4.0739,-4.1467,-4.2183,-4.2705,-4.2937,-4.3537,-4.4001,-4.4226,-4.5026,-4.5471,-4.5471,-4.5691,-4.5807,-4.5807,-4.5807,-4.5807,-4.5807,-4.5807,-4.5807,-4.5807,-4.5807,-4.5807,-4.5807,-4.5807,-4.5807,-4.5807,-4.5807,-4.5807,-4.5749,-4.5284,-4.5104,-4.5104,-4.5104,-4.4736,-4.4246,-4.4246,-4.3672,-4.2937,-4.2937,-4.2783,-4.2609,-4.2609,-4.2609,-4.2609,-4.2609,-4.2164,-4.1661,-4.1661,-4.1235,-4.0797,-4.0797,-4.0797,-4.0797,-4.0797,-4.0603,-4.0448,-4.0448,-3.9559,-3.8379,-3.7116,-3.6516,-3.6091,-3.5742,-3.5496,0.0,-3.5342,-3.48,-3.422,-3.3736,-3.3126,-3.2391,-3.1541,-2.9921,-2.8668,-2.8049,-2.642,-2.5507,-2.5507,-2.5507,-2.5507,-2.5507,-2.3577,-2.2149,0.0,0.0,0.0,0.0,0.0,0.0,0.0,0.0,0.0,0.0,0.0,0.0,0.0,0.0,0.0,0.0,0.0,0.0,0.0,0.0,0.0,0.0,-3.1773,-3.4272,-3.6071,-3.6439,-3.7411,-3.9771,-4.1429,-4.2763,-4.375,-4.4156,-4.4349,-4.4349,-4.4813,-4.5104,-4.5104,-4.5548,-4.5807,-4.5807,-4.5807,-4.5807,-4.5807,-4.5807,-4.5807,-4.5807,-4.5807,-4.5807,-4.5807,-4.5807,-4.5807,-4.5807,-4.5807,-4.5807,-4.5807,-4.5807,-4.5807,0.0,0.0,0.0,0.0,0.0,-4.549,-4.5104,-4.5104,-4.4543,-4.3846,-4.3846,-4.3595,-4.3305,-4.3305,-4.3305,-4.3305,-4.3305,-4.2937,-4.2531,-4.2531,-4.1932,-4.1293,-4.1293,-4.1048,-4.0797,-4.0797,-4.0797,-4.0797,-4.0797,-4.039,0.0,-3.8218,-3.7696,-3.7154,-3.6323,-3.6207,-3.6071,-3.5742,-3.5264,-3.48,-3.4432,-3.3944,-3.3146,-3.1908,-3.0598,0.0,0.0,0.0,-2.5855,-2.5507,-2.5507,0.0,0.0,0.0,0.0,0.0,0.0,0.0,0.0,-2.1469,-2.1159,0.0,0.0,0.0,0.0,0.0,0.0,0.0,0.0,0.0,0.0,0.0,0.0,0.0,0.0,0.0,0.0,-3.4427,-3.6483,-4.039,-4.0448,-4.0352,-4.1145,-4.3227,-4.4632,-4.4736,-4.5374,-4.5807,-4.5807,-4.5807,-4.5807,-4.5807,0.0,0.0,0.0,0.0,-4.5807,-4.5807,-4.5807,-4.5807,-4.5807,-4.5807,-4.5807,-4.5807,-4.5807,-4.5807,-4.5807,-4.5807,-4.5807,-4.5807,-4.5807,-4.5807,-4.5807,-4.5807,-4.5807,-4.5807,-4.5807,-4.5807,-4.5807,-4.5807,0.0,0.0,-4.4736,-4.4214,-4.3576,-4.3576,-4.3576,-4.3576,-4.3576,-4.3518,-4.346,-4.346,-4.2802,-4.2125,-4.2028,-4.1448,-4.0913,-4.0816,-4.0797,-4.0797,-4.0797,-4.0797,-4.0545,-3.9771,-3.8914,-3.8025,-3.7058,-3.6903,-3.6613,-3.58,-3.5704,-3.54,-3.4626,0.0,0.0,-3.2237,-3.1255,-3.0037,-2.8397,-2.7387,-2.6532,-2.582,-2.5782,-2.5782,-2.5782,-2.5782,-2.5782,-2.5782,-2.5782,-2.6145,-2.6745,-2.2896,-2.2374,0.0,0.0,0.0,0.0,0.0,0.0,0.0,0.0,0.0,0.0,0.0,0.0,0.0,0.0,0.0,-3.58,-3.8083,-4.0081,-4.1564,-4.2821,-4.3692,-4.3846,-4.4304,-4.4852,-4.549,-4.571,-4.5807,-4.5807,-4.5807,-4.5807,-4.5807,-4.5807,-4.5807,-4.5807,-4.5807,-4.5807,-4.5807,-4.5807,-4.5807,-4.5807,0.0,0.0,-4.5807,-4.5807,-4.5807,-4.5807,-4.5807,-4.5807,-4.5807,-4.5807,-4.5807,-4.5807,-4.5807,-4.5807,-4.5807,-4.5807,-4.5807,-4.5807,-4.5807,-4.571,-4.5568,-4.5568,-4.5452,-4.5323,-4.5323,-4.5323,0.0,-4.5323,-4.4852,-4.4342,-4.4342,-4.3711,-4.2879,-4.2164,-4.1874,-4.1583,-4.0951,-4.0797,-4.0797,-4.0797,-4.0797,-4.0758,-4.0584,-3.9829,-3.8708,-3.7135,-3.6903,-3.6613,-3.58,-3.5704,-3.5646,-3.5477,-3.5458,-3.5032,-3.3988,-3.2474,-3.1159,-3.0153,-2.8625,-2.7681,-2.7527,-2.7527,-2.7527,-2.7527,-2.7527,-2.7527,-2.7527,-2.7527,-2.7604,-2.772,-2.6184,-2.6126,0.0,0.0,0.0,0.0,0.0,0.0,0.0,0.0,0.0,0.0,0.0,-2.9916,0.0,0.0,-3.6342,-3.8508,-4.0288,-4.1854,-4.3131,-4.4052,-4.4594,-4.4594,-4.4968,-4.5355,-4.5768,-4.5807,-4.5807,-4.5807,-4.5807,-4.5807,-4.5807,-4.5807,-4.5807,-4.5807,-4.5807,-4.5807,-4.5807,-4.5807,-4.5807,-4.5807,-4.5807,-4.5807,-4.5807,-4.5807,-4.5807,-4.5807,-4.5807,-4.5807,-4.5807,-4.5807,-4.5807,-4.5807,-4.5807,-4.5807,-4.5807,-4.5807,-4.5807,-4.5807,-4.5807,-4.5807,-4.5807,-4.5807,-4.5807,-4.5807,-4.5807,-4.5807,-4.5807,-4.5807,-4.551,-4.52,-4.52,-4.4581,-4.3846,-4.3401,-4.2628,-4.1893,-4.1487,-4.1087,-4.0797,-4.0797,-4.0797,-4.0797,-4.0797,-4.0448,-3.9713,-3.8398,-3.7831,-3.7251,-3.6419,-3.5955,-3.5704,-3.5704,-3.5704,-3.5361,-3.4471,-3.2435,-3.0849,-2.9998,-2.8726,-2.7991,-2.7991,-2.7991,-2.7991,-2.7991,-2.7991,-2.7991,-2.7991,-2.7991,-2.8223,-2.8649,-2.8199,-2.8238,0.0,0.0,0.0,0.0,0.0,0.0,0.0,0.0,-2.864,-3.1081,-3.2222,-3.3494,-3.5762,-3.698,-3.8392,-4.0681,-4.1854,-4.2995,-4.44,-4.4736,-4.4833,-4.4833,-4.5413,-4.5807,-4.5807,-4.5807,-4.5807,-4.5807,-4.5807,-4.5807,-4.5807,-4.5807,-4.5807,-4.5807,-4.5807,-4.5807,-4.5807,-4.5807,-4.5807,-4.5807,-4.5807,-4.5807,-4.5807,-4.5807,-4.5807,-4.5807,-4.5807,-4.5807,-4.5807,-4.5807,-4.5807,-4.5807,-4.5807,-4.5807,-4.5807,-4.5807,-4.5807,-4.5807,-4.5807,-4.5807,-4.5807,-4.5807,-4.5807,-4.5807,-4.5807,-4.5807,-4.5807,-4.5807,-4.5807,-4.5807,-4.5807,-4.5316,-4.4794,-4.4632,-4.3537,-4.2415,-4.2067,-4.1487,-4.099,-4.0835,-4.0797,-4.0797,-4.0797,-4.0797,-4.0507,-3.9636,-3.8895,-3.8083,-3.7038,-3.6323,-3.5878,-3.5723,-3.5704,-3.5361,-3.4471,-3.2358,-3.0714,-2.9843,-2.8977,-2.8513,-2.8513,-2.8513,-2.8513,-2.8513,-2.8513,-2.8513,-2.8513,-2.8513,-2.8861,-2.9553,-2.9553,-2.9553,-2.3809,-2.435,-2.5298,-2.6772,-2.7294,-2.8455,0.0,0.0,-3.2914,-3.4756,-3.5762,-3.6671,-3.7709,-3.9262,-4.07,-4.1699,-4.3247,-4.4381,-4.4574,-4.522,-4.5671,-4.5671,-4.5749,-4.5807,-4.5807,-4.5807,-4.5807,-4.5807,-4.5807,-4.5807,-4.5807,-4.5807,-4.5807,-4.5807,-4.5807,-4.5807,-4.5807,-4.5807,-4.5807,-4.5807,-4.5807,-4.5807,-4.5807,-4.5807,-4.5807,-4.5807,-4.5807,-4.5807,-4.5807,-4.5807,-4.5807,-4.5807,-4.5807,-4.5807,-4.5807,-4.5807,-4.5807,-4.5807,-4.5807,-4.5807,-4.5807,-4.5807,-4.5807,-4.5807,-4.5807,-4.5807,-4.5807,-4.5807,-4.5807,-4.5807,-4.5807,-4.5729,-4.549,-4.4775,-4.4439,-4.3885,-4.2338,-4.1932,-4.1641,-4.0951,-4.0797,-4.0797,-4.0797,-4.0797,-4.0507,-3.9636,-3.9423,-3.8766,-3.7116,-3.6826,-3.6497,-3.5781,-3.5704,-3.5361,-3.4471,-3.3441,-3.2449,-3.1579,-3.0752,-3.0308,-3.0308,-3.0308,-3.0308,-3.0308,-3.0308,-3.0308,-3.0308,-3.0308,-3.0366,-3.0443,-3.0443,-3.0443,-2.6265,-2.7039,-2.8006,0.0,-3.0622,-3.2324,-3.4626,-3.524,-3.582,-3.7547,-3.8185,-3.8682,-3.9553,-4.11,-4.2376,0.0,-4.4194,-4.5297,-4.5297,-4.5587,-4.5807,-4.5807,-4.5807,-4.5807,-4.5807,-4.5807,-4.5807,-4.5807,-4.5807,-4.5807,-4.5807,-4.5807,-4.5807,-4.5807,-4.5807,-4.5807,-4.5807,-4.5807,-4.5807,-4.5807,-4.5807,-4.5807,-4.5807,-4.5807,-4.5807,-4.5807,-4.5807,-4.5807,-4.5807,-4.5807,-4.5807,-4.5807,-4.5807,-4.5807,-4.5807,-4.5807,-4.5807,-4.5807,-4.5807,-4.5807,-4.5807,-4.5807,-4.5807,-4.5807,-4.5807,-4.5807,-4.5807,-4.5807,-4.5807,-4.5807,-4.5807,-4.5807,-4.5729,-4.5374,-4.4949,-4.44,-4.3672,-4.3111,-4.2512,-4.1661,-4.1506,-4.1351,-4.0874,-4.0797,-4.0681,-4.0313,-3.981,-3.9056,-3.7831,-3.7212,-3.6593,-3.5781,-3.5704,-3.5361,-3.4471,-3.406,-3.3267,-3.1889,-3.1483,-3.1101,-3.0617,-3.0598,-3.0598,-3.0598,-3.0598,-3.0598,-3.0598,-3.0598,-3.0849,-3.1294,-3.1294,-3.156,-2.7836,-2.8977,0.0,-3.1371,-3.3383,-3.538,-3.6483,-3.7193,-3.8044,-3.9559,-3.9868,-4.0042,-4.0681,-4.197,-4.3015,-4.3266,-4.4523,-4.5548,-4.5768,-4.5807,-4.5807,-4.5807,-4.5807,-4.5807,-4.5807,-4.5807,-4.5807,-4.5807,-4.5807,-4.5807,-4.5807,-4.5807,-4.5904,-4.6155,-4.6155,-4.6271,-4.6523,-4.6523,-4.6523,-4.6523,-4.6523,-4.6387,-4.6155,-4.5904,-4.5807,-4.5807,-4.5807,-4.5807,-4.5807,-4.5807,-4.5807,-4.5807,-4.5807,-4.5807,-4.5807,-4.5807,-4.5807,-4.5807,-4.5807,-4.5807,-4.5807,-4.5807,-4.5807,-4.5807,-4.5807,-4.5807,-4.5807,-4.5807,-4.5807,-4.5807,-4.5807,-4.5807,-4.5807,-4.5807,-4.5355,-4.4871,-4.4652,-4.4091,-4.3401,-4.2531,-4.2164,-4.1816,-4.1235,-4.0951,-4.0797,-4.0797,-4.0255,-3.9539,-3.8663,-3.7599,-3.6593,-3.5781,-3.5704,-3.5438,-3.4819,-3.4549,-3.3871,-3.2609,-3.2295,-3.1792,-3.0965,-3.0926,-3.0926,-3.0926,-3.0926,-3.1043,-3.1294,-3.1294,-3.1579,-3.2159,-3.2159,-3.2623,-2.7991,0.0,-3.214,-3.3871,-3.5549,-3.727,-3.8998,-3.9404,-3.9675,-4.0584,-4.0758,-4.0777,-4.0797,-4.1487,-4.2318,-4.3169,-4.4059,-4.491,-4.5691,-4.5807,-4.5807,-4.5807,-4.5807,-4.5807,0.0,-4.5807,-4.5807,-4.5807,-4.5807,-4.5807,-4.5807,-4.5807,-4.6194,-4.7018,-4.7057,-4.7463,-4.8314,-4.8314,-4.8314,-4.8314,-4.8314,-4.7869,-4.7018,-4.6194,-4.5807,-4.5807,-4.5807,-4.5807,-4.5807,-4.5807,-4.5807,-4.5807,-4.5807,-4.5807,-4.5807,-4.5807,-4.5807,-4.5807,-4.5807,-4.5807,-4.5807,-4.5807,-4.5807,-4.5807,-4.5807,-4.5807,-4.5807,-4.5807,-4.5807,-4.5807,-4.5807,-4.5807,-4.5807,-4.5807,-4.5787,-4.5548,-4.4775,-4.4574,-4.4304,-4.344,-4.2589,-4.199,-4.197,-4.1313,-4.0797,-4.0797,-4.0777,-4.0448,-3.9578,-3.7967,-3.6593,-3.5781,-3.5704,-3.5684,-3.5665,-3.4897,-3.4374,-3.4316,-3.3538,-3.2662,-3.1792,-3.1753,-3.1753,-3.1753,-3.1753,-3.2179,-3.303,-3.303,-3.3049,-3.3068,-3.3068,-3.3532,-3.0772,0.0,-3.406,-3.6342,-3.7773,-3.894,-4.01,-4.0352,-4.0274,-4.0004,-3.9946,-3.9752,-3.9185,-4.023,-4.1467,-4.2299,-4.3653,-4.4891,-4.5691,-4.5807,-4.5807,-4.5807,-4.5807,0.0,0.0,0.0,0.0,-4.5807,-4.5807,-4.5807,-4.5807,-4.6348,-4.6806,-4.7096,-4.7657,-4.8101,-4.8392,-4.8392,-4.8392,-4.8392,-4.8392,-4.8256,-4.7947,-4.7657,-4.7521,-4.7482,-4.6902,-4.6651,-4.6619,-4.6039,-4.5807,-4.5807,-4.5807,-4.5807,-4.5807,-4.5807,-4.5807,-4.5807,-4.5807,-4.5807,-4.5807,-4.5807,-4.5807,-4.5807,-4.5807,-4.5807,-4.5807,-4.5807,-4.5807,-4.5807,-4.5807,-4.5807,-4.5807,-4.5807,-4.5807,-4.5729,-4.5452,-4.5394,-4.5142,-4.433,-4.3924,-4.3363,-4.2202,-4.1777,-4.1409,-4.0874,-4.0313,-3.9829,-3.9539,-3.7986,-3.6806,-3.6535,-3.6013,-3.5704,-3.5704,-3.5438,-3.5013,-3.4432,-3.4118,-3.3576,-3.2701,-3.2662,-3.2662,-3.2662,-3.2662,-3.2817,-3.3107,-3.3107,-3.3397,-3.3963,-3.3963,-3.4427,-3.2803,-3.4408,-3.5839,-3.8102,-3.9327,-4.012,-4.0681,-4.0565,-4.01,-3.923,-3.8785,-3.8315,-3.7464,-3.8218,-3.9559,-4.1293,-4.2512,-4.3846,-4.5555,-4.5807,-4.5807,-4.5807,-4.5807,-4.5807,0.0,0.0,0.0,-4.5807,-4.5807,-4.5942,-4.6252,-4.6806,-4.7386,-4.8005,-4.8566,-4.901,-4.9301,-4.9301,-4.9301,-4.9301,-4.901,-4.8856,-4.8856,-4.8546,-4.8392,-4.8353,-4.7482,-4.7096,-4.7018,-4.6155,-4.5807,-4.5807,-4.5807,-4.5807,-4.5807,-4.5807,-4.5807,-4.5807,-4.5807,-4.5807,-4.5807,-4.5807,-4.5807,-4.5807,-4.5807,-4.5807,-4.5807,-4.5807,-4.5807,-4.5807,-4.5807,-4.5807,-4.5807,-4.5807,-4.5807,-4.5807,-4.5807,-4.5807,-4.5652,-4.5123,-4.4794,-4.4149,-4.2705,-4.197,-4.139,-4.0874,-4.0313,-3.9849,-3.9539,-3.8514,-3.7599,-3.698,-3.6439,-3.6013,-3.5723,-3.5704,-3.5458,-3.4897,-3.4858,-3.4466,-3.3596,-3.3552,-3.3552,-3.3552,-3.3552,-3.3726,-3.4035,-3.4035,-3.4311,-3.4858,-3.4858,-3.5168,-3.4104,-3.5781,-3.7444,-3.9133,-4.0197,-4.0797,-4.0739,-4.0062,-3.9152,-3.8199,-3.7303,-3.6458,0.0,0.0,-3.6792,-4.0139,-4.0816,-4.2073,-4.5343,-4.5807,-4.5807,0.0,0.0,0.0,0.0,0.0,0.0,-4.5865,0.0,-4.6232,-4.7057,-4.7173,-4.7985,-4.9649,-4.9745,-5.0132,-5.0898,-5.0898,-5.0898,-5.0898,-5.0132,-4.9765,-4.9726,-4.8914,-4.8527,-4.8488,-4.7618,-4.7231,-4.7154,-4.6252,-4.5865,-4.5865,-4.5826,-4.5807,-4.5807,-4.5807,-4.5807,-4.5807,-4.5807,-4.5807,-4.5807,-4.5807,-4.5807,-4.5807,-4.5807,-4.5807,-4.5807,-4.5807,-4.5807,-4.5807,-4.5807,-4.5807,-4.5807,-4.5807,-4.5807,-4.5807,-4.5807,-4.5807,-4.5807,-4.5807,-4.5142,-4.4323,-4.346,-4.1932,-4.0855,-4.0816,-4.0797,-4.0507,-3.9675,-3.952,-3.8862,-3.7212,-3.6961,-3.6593,-3.582,-3.5723,-3.5704,-3.5704,-3.5704,-3.5342,-3.451,-3.4471,-3.4471,-3.4471,-3.4471,-3.4877,-3.5704,-3.5704,-3.5704,-3.5704,-3.5704,-3.5704,-3.6593,-3.8025,-3.9094,-4.0197,-4.0642,-4.0623,-3.9984,-3.9166,-3.7928,-3.58,-3.4679,-3.361,0.0,0.0,0.0,-3.8528,-4.1003,0.0,-4.5497,-4.5807,0.0,-4.5807,0.0,-4.5807,-4.5807,-4.5807,0.0,0.0,-4.6767,-4.6864,-4.7096,-4.8333,-4.9243,-4.9687,-5.0279,-5.0685,-5.0898,-5.0898,-5.0898,-5.0898,-5.0685,-5.0589,-5.0589,-5.0357,-5.026,-5.0221,-4.9397,-4.9049,-4.8914,-4.7405,-4.6767,-4.6689,-4.6058,-4.5807,-4.5807,-4.5807,-4.5807,-4.5807,-4.5807,-4.5807,-4.5807,-4.5807,-4.5807,-4.5807,-4.5807,-4.5807,-4.5807,-4.5807,-4.5807,-4.5807,-4.5807,-4.5807,-4.5807,-4.5807,-4.5807,-4.5807,-4.5807,-4.5807,-4.5807,-4.5807,-4.5142,-4.4323,-4.346,-4.2415,-4.1487,-4.0893,-4.0797,-4.0719,-4.0507,-3.9907,-3.9327,-3.8882,-3.7677,-3.6826,-3.6613,-3.6033,-3.5704,-3.5704,-3.5704,-3.5607,-3.538,-3.538,-3.538,-3.538,-3.538,-3.5477,-3.5704,-3.5704,-3.5704,-3.5704,-3.5704,-3.5704,-3.8276,-3.9404,-4.0197,-4.0681,-4.0507,-3.9907,-3.8649,-3.7406,-3.58,-3.3267,-3.2048,0.0,-2.9708,0.0,0.0,0.0,0.0,0.0,-4.4929,-4.5568,-4.5807,0.0,-4.5807,0.0,-4.6329,-4.6368,-4.6728,0.0,-4.7308,-4.7424,-4.8198,-4.9165,-4.9861,-5.0221,-5.0666,-5.0898,-5.0898,-5.0898,-5.0898,-5.0898,-5.0898,-5.0898,-5.0898,-5.0898,-5.0898,-5.0859,0.0,-4.9707,-4.9571,-4.7811,-4.7096,-4.6999,-4.6136,-4.5807,-4.5807,-4.5807,-4.5807,-4.5807,-4.5807,-4.5807,-4.5807,-4.5807,-4.5807,-4.5807,-4.5807,-4.5807,-4.5807,-4.5807,-4.5807,-4.5807,-4.5807,-4.5807,-4.5807,-4.5807,-4.5807,-4.5807,-4.5807,-4.5807,-4.5807,-4.5807,-4.5142,-4.4439,-4.3962,-4.2841,-4.1854,-4.139,-4.1029,-4.0797,-4.0797,-4.0371,-3.9926,-3.9539,-3.863,-3.7735,-3.698,-3.6497,-3.6071,-3.5723,-3.5704,-3.5704,-3.5704,-3.5704,-3.5704,-3.5704,-3.5704,-3.5704,-3.5704,-3.5704,-3.5704,-3.5704,-3.5704,-3.5704,-3.9443,-4.0216,-4.0797,-4.0797,-4.0139,-3.9017,-3.7154,-3.5433,-3.3465,-3.0791,0.0,-2.8683,-2.7836,-2.9263,-3.1681,-3.4988,0.0,-4.07,-4.4117,-4.52,-4.5691,-4.5787,-4.5807,-4.6136,-4.7018,-4.7096,-4.7502,-4.8508,-4.7869,-4.8101,-4.9629,-4.9803,-5.019,-5.0879,-5.0898,-5.0898,-5.0898,-5.0898,-5.0898,-5.0898,-5.0898,-5.0898,-5.0898,-5.0898,-5.0898,-5.0859,-5.0171,-4.9861,-4.9726,-4.8101,-4.7386,-4.7192,-4.631,-4.5904,-4.5807,-4.5807,-4.5807,-4.5807,-4.5807,-4.5807,-4.5807,-4.5807,-4.5807,-4.5807,-4.5807,-4.5807,-4.5807,-4.5807,-4.5807,-4.5807,-4.5807,-4.5807,-4.5807,-4.5807,-4.5807,-4.5807,-4.5807,-4.5807,-4.5807,-4.5807,-4.5239,-4.4736,-4.4613,-4.3247,-4.2125,-4.2028,-4.1313,-4.0797,-4.0797,-4.0797,-4.0507,-3.9752,-3.9578,-3.8882,-3.7367,-3.7135,-3.6729,-3.5916,-3.5858,-3.58,-3.5704,-3.5704,-3.5704,-3.5704,-3.5704,-3.5704,-3.5704,-3.5704,-3.5704,-3.5704,-3.5704,-3.5704,-4.0332,-4.0681,-4.0797,-4.0797,-4.0139,-3.8862,-3.6458,-3.4563,0.0,0.0,-2.7755,-2.6899,-2.6091,-2.8489,-3.1487,-3.42,0.0,0.0,0.0,0.0,-4.5045,0.0,0.0,0.0,0.0,0.0,0.0,0.0,0.0,-4.9378,-4.9687,-5.0318,-5.0763,-5.0898,-5.0898,-5.0898,-5.0898,-5.0898,-5.0898,-5.0898,-5.0898,-5.0898,-5.0898,-5.0898,-5.0898,-5.0898,-5.0743,0.0,-5.0608,-4.9649,-4.8817,-4.8082,-4.7212,-4.6426,-4.5807,-4.5807,-4.5807,-4.5807,-4.5807,-4.5807,-4.5807,-4.5807,-4.5807,-4.5807,-4.5807,-4.5807,-4.5807,-4.5807,-4.5807,-4.5807,-4.5807,-4.5807,-4.5807,-4.5807,-4.5807,-4.5807,-4.5807,-4.5807,-4.5807,-4.5807,-4.5691,-4.5374,-4.471,-4.375,-4.2841,-4.2106,-4.1313,-4.0797,-4.0797,-4.0797,-4.0739,-4.0584,-3.9926,-3.9385,-3.9075,-3.8392,-3.7613,-3.6748,-3.669,-3.6381,-3.5723,-3.5704,-3.5704,-3.5704,-3.5704,-3.5704,-3.5704,-3.5704,-3.5704,-3.5704,-3.5704,-3.5704,-4.0565,-4.0797,-4.0797,-4.0797,-3.9462,-3.7483,-3.493,0.0,0.0,0.0,-2.6362,-2.5952,-2.5565,0.0,0.0,0.0,0.0,0.0,0.0,0.0,0.0,0.0,0.0,0.0,0.0,0.0,0.0,0.0,0.0,-5.0318,-5.0318,-5.0685,-5.0898,-5.0898,-5.0898,-5.0898,-5.0898,-5.0898,-5.0898,-5.0898,-5.0898,-5.0898,-5.0898,-5.0898,-5.0898,-5.0898,-5.0898,-5.0898,-5.084,-5.0035,-4.9184,-4.8314,-4.7444,-4.6581,-4.5807,-4.5807,-4.5807,-4.5807,-4.5807,-4.5807,-4.5807,-4.5807,-4.5807,-4.5807,-4.5807,-4.5807,-4.5807,-4.5807,-4.5807,-4.5807,-4.5807,-4.5807,-4.5807,-4.5807,-4.5807,-4.5807,-4.5807,-4.5807,-4.5807,-4.5807,-4.5807,-4.5691,-4.5297,-4.4523,-4.3827,-4.3421,-4.2241,-4.1409,-4.1409,-4.1067,-4.0797,-4.0797,-4.0429,-3.9984,-3.9539,-3.9114,-3.8508,-3.7632,-3.7154,-3.6729,-3.6342,-3.5916,-3.5704,-3.5704,-3.5704,-3.5704,-3.5704,-3.5704,-3.5704,-3.5704,-3.5704,-3.5916,-4.0332,-4.0661,-4.0797,-4.0797,-3.8837,-3.622,-3.3687,-3.1139,0.0,0.0,-2.5507,-2.5507,-2.5507,0.0,0.0,0.0,0.0,0.0,0.0,0.0,0.0,0.0,0.0,0.0,0.0,0.0,0.0,0.0,0.0,-5.0898,-5.0898,-5.0898,-5.0898,-5.0898,-5.0898,-5.0898,-5.0898,-5.0898,-5.0898,-5.0898,-5.0898,-5.0898,-5.0898,-5.0898,-5.0898,-5.0898,-5.0898,-5.0898,-5.084,-5.0221,-4.9339,-4.8333,-4.7657,-4.6728,-4.5807,-4.5807,-4.5807,-4.5807,-4.5807,-4.5807,-4.5807,-4.5807,-4.5807,-4.5807,-4.5807,-4.5807,-4.5807,-4.5807,-4.5807,-4.5807,-4.5807,-4.5807,-4.5807,-4.5807,-4.5807,-4.5807,-4.5807,-4.5807,-4.5807,-4.5807,-4.5807,-4.5807,-4.5807,-4.5123,-4.4594,-4.4594,-4.3285,-4.2202,-4.2028,-4.1448,-4.099,-4.0816,-4.0797,-4.0526,-3.9849,-3.9771,-3.9404,-3.8528,-3.7831,-3.7367,-3.7193,-3.6574,-3.6245,-3.6245,-3.6245,-3.6245,-3.6245,-3.6245,-3.6245,-3.6245,-3.6245,-3.6574,-3.9597,-4.0197,-4.0797,-4.0797,-3.8837,-3.622,-3.3687,0.0,0.0,-2.6033,-2.5507,-2.5507,-2.5507,-2.6223,0.0,0.0,0.0,-3.4983,0.0,0.0,0.0,0.0,0.0,0.0,0.0,0.0,0.0,0.0,0.0,-5.0898,-5.0898,-5.0898,-5.0898,-5.0898,-5.0898,-5.0898,-5.0898,-5.0898,-5.0898,-5.0898,-5.0898,-5.0898,-5.0898,-5.0898,-5.0898,-5.0898,-5.0898,-5.0898,0.0,-5.0821,-4.9861,-4.8392,-4.8314,-4.725,-4.5807,-4.5807,-4.5807,-4.5807,-4.5807,-4.5807,-4.5807,-4.5807,-4.5807,-4.5807,-4.5807,-4.5807,-4.5807,-4.5807,-4.5807,-4.5807,-4.5807,-4.5807,-4.5807,-4.5807,-4.5807,-4.5807,-4.5807,-4.5807,-4.5807,-4.5807,-4.5807,-4.5807,-4.5807,-4.5123,-4.4594,-4.4594,-4.3788,-4.2899,-4.2106,-4.1932,-4.1603,-4.0874,-4.0797,-4.0777,-4.07,-4.0681,-4.0313,-3.9443,-3.9307,-3.892,-3.8115,-3.7999,-3.7961,-3.7961,-3.7961,-3.7961,-3.7961,-3.7961,-3.7961,-3.7961,-3.7961,-3.7999,-3.9075,-4.0139,-4.0797,-4.0797,-3.847,-3.5646,-3.3571,0.0,-2.7933,-2.5917,-2.5507,-2.5507,-2.5507,-2.5758,-2.6648,-2.8702,-2.9592,-3.1642,-3.6309,0.0,0.0,0.0,0.0,0.0,0.0,0.0,0.0,0.0,0.0,-5.0898,-5.0898,-5.0898,-5.0898,-5.0898,-5.0898,-5.0898,-5.0898,-5.0898,-5.0898,-5.0898,-5.0898,-5.0898,-5.0898,-5.0898,-5.0898,-5.0898,-5.0898,-5.0898,0.0,-5.0898,-4.9919,-4.8392,-4.8392,-4.7328,-4.5807,-4.5807,-4.5807,-4.5807,-4.5807,-4.5807,-4.5807,-4.5807,-4.5807,-4.5807,-4.5807,-4.5807,-4.5807,-4.5807,-4.5807,-4.5807,-4.5807,-4.5807,-4.5807,-4.5807,-4.5807,-4.5807,-4.5807,-4.5807,-4.5807,-4.5807,-4.5807,-4.5807,-4.5807,-4.5529,-4.5316,-4.5316,-4.462,-4.3769,-4.2899,-4.2318,-4.168,-4.0893,-4.0797,-4.0797,-4.0797,-4.0797,-4.0642,-4.0294,-3.9791,-3.9346,-3.8992,-3.8489,-3.8193,-3.8193,-3.8193,-3.8193,-3.8193,-3.8193,-3.8193,-3.8193,-3.8193,-3.8489,-3.7818,-3.9191,-4.0036,-4.0036,-3.7638,-3.4853,0.0,-3.0269,-2.7527,-2.5859,-2.5507,-2.5507,-2.5507,-2.5507,-2.5956,-2.7387,-2.8049,-2.9887,-3.4181,0.0,0.0,0.0,0.0,0.0,0.0,0.0,0.0,0.0,0.0,0.0,-5.0898,-5.0898,-5.0898,-5.0898,-5.0898,-5.0898,-5.0898,-5.0898,-5.0898,-5.0898,-5.0898,-5.0898,-5.0898,-5.0898,-5.0898,-5.0898,-5.0898,-5.0763,0.0,-5.055,-4.9552,-4.8024,-4.8024,-4.7115,-4.5807,-4.5807,-4.5807,-4.5807,-4.5807,-4.5807,-4.5807,-4.5807,-4.5807,-4.5807,-4.5807,-4.5807,-4.5807,-4.5807,-4.5807,-4.5807,-4.5807,-4.5807,-4.5807,-4.5807,-4.5807,-4.5807,-4.5807,-4.5807,-4.5807,-4.5807,-4.5807,-4.5807,-4.5807,-4.5807,-4.5807,-4.5807,-4.5316,-4.4543,-4.344,-4.2763,-4.197,-4.0913,-4.0797,-4.0797,-4.0797,-4.0797,-4.0797,-4.0797,-4.0216,-3.9887,-3.9887,-3.9301,-3.8972,-3.8972,-3.8972,-3.8972,-3.8972,-3.8972,-3.8972,-3.8972,-3.8972,-3.9301,-3.5505,-3.6961,-3.8232,-3.8232,-3.6303,-3.3968,0.0,-2.9843,-2.7527,-2.5859,-2.5507,-2.5507,-2.5507,-2.5507,-2.5778,-2.659,-2.8161,-3.0772,-3.5085,0.0,0.0,0.0,0.0,0.0,0.0,0.0,0.0,0.0,0.0,0.0,-5.0898,-5.0898,-5.0898,-5.0898,-5.0898,-5.0898,-5.0898,-5.0898,-5.0898,-5.0898,-5.0898,-5.0898,-5.0898,-5.0898,-5.0898,-5.0898,-5.0898,-5.0453,0.0,-4.9707,-4.8682,-4.7115,-4.7115,-4.6581,-4.5807,-4.5807,-4.5807,-4.5807,-4.5807,-4.5807,-4.5807,-4.5807,-4.5807,-4.5807,-4.5807,-4.5807,-4.5807,-4.5807,-4.5807,-4.5807,-4.5807,-4.5807,-4.5807,-4.5807,-4.5807,-4.5807,-4.5807,-4.5807,-4.5807,-4.5807,-4.5807,-4.5807,-4.5807,-4.5807,-4.5807,-4.5807,-4.5787,-4.5181,-4.3518,-4.3285,-4.2647,-4.099,-4.0797,-4.0797,-4.0797,-4.0797,-4.0797,-4.0797,-4.0797,-4.0797,-4.0797,-4.0777,-4.0777,-4.0777,-4.0777,-4.0777,-4.0777,-4.0777,-4.0777,-4.0777,-4.0777,-4.0777,-3.2794,-3.426,-3.5405,-3.4845,-3.3256,-3.1507,-3.0346,-2.8548,-2.6803,-2.572,-2.5507,-2.5507,-2.5507,-2.5507,-2.6339,-2.8934,-2.9824,0.0,0.0,0.0,0.0,0.0,0.0,0.0,0.0,0.0,0.0,0.0,0.0,-5.0898,-5.0898,-5.0898,-5.0898,-5.0898,-5.0898,-5.0898,-5.0898,-5.0898,-5.0898,-5.0898,-5.0898,-5.0898,-5.0898,-5.0898,-5.0898,-5.0859,-5.0318,-4.9939,-4.9649,-4.9068,-4.8145,-4.7097,-4.7097,-4.6541,-4.5727,-4.5727,-4.5727,-4.5727,-4.5727,-4.5727,-4.5746,-4.5795,-4.5803,-4.5791,-4.58,-4.5807,-4.5807,-4.5807,-4.5807,-4.5807,-4.5807,-4.5807,-4.5807,-4.5807,-4.5807,-4.5807,-4.5807,-4.5807,-4.5807,-4.5807,-4.5807,-4.5807,-4.5807,-4.5807,-4.5807,-4.5807,-4.5807,-4.5413,-4.433,-4.3672,-4.2879,-4.1738,-4.1126,-4.0797,-4.0797,-4.0797,-4.0797,-4.0797,-4.0797,-4.0797,-4.0797,-4.0797,-4.0797,-4.0797,-4.0797,-4.0797,-4.0797,-4.0752,-4.0707,-4.0668,-4.0668,-4.0668,0.0,-3.1818,-3.2756,-3.2245,-3.112,-2.9873,-2.9012,-2.7716,-2.6474,-2.5662,-2.5507,-2.5507,-2.5507,-2.5507,-2.6207,-2.8335,-2.9476,0.0,0.0,0.0,0.0,0.0,0.0,0.0,0.0,0.0,0.0,0.0,-5.0144,-4.9958,-4.9958,-4.9958,-4.9958,-4.9958,-5.0569,-5.0898,-5.0898,-5.0898,-5.0898,-5.0898,-5.0898,-5.0898,-5.0898,-5.0589,-5.0453,-5.0395,-4.9571,-4.903,0.0,-4.8125,-4.7395,-4.6619,-4.6584,-4.6214,-4.5708,-4.5708,-4.5708,-4.5708,-4.5708,-4.5708,-4.5708,-4.5758,-4.5765,-4.5765,-4.5757,-4.5786,-4.5807,-4.5807,-4.5807,-4.5807,-4.5807,-4.5807,-4.5807,-4.5807,-4.5807,-4.5807,-4.5807,-4.5807,-4.5807,-4.5807,-4.5807,-4.5807,-4.5807,-4.5807,-4.5807,-4.5807,-4.5807,-4.551,-4.469,-4.413,-4.3324,-4.2125,-4.1545,-4.1119,-4.0791,-4.0784,-4.0797,-4.0797,-4.0797,-4.0797,-4.0797,-4.0797,-4.079,-4.0752,-4.0752,-4.0746,-4.072,-4.0674,-4.0628,-4.0595,-4.0595,-4.0595,0.0,-2.9559,0.0,-3.0153,-2.9579,-2.8815,-2.8002,-2.7189,0.0,-2.5642,-2.5488,-2.5526,-2.5642,-2.5623,-2.5681,-2.599,0.0,0.0,0.0,0.0,0.0,0.0,0.0,0.0,0.0,0.0,0.0,0.0,-4.8856,-4.8384,-4.8384,-4.8384,-4.8384,-4.8384,-4.9904,-5.0724,-5.0724,-5.084,-5.0859,-5.0821,-5.0859,-5.0859,-5.0782,-5.0035,-4.9668,0.0,-4.8682,-4.785,-4.7088,-4.704,-4.6534,-4.5792,-4.5715,-4.57,-4.57,-4.57,-4.57,-4.57,-4.57,-4.57,-4.57,-4.57,-4.57,-4.5708,-4.5708,-4.5742,-4.58,-4.58,-4.58,-4.58,-4.58,-4.58,-4.58,-4.58,-4.58,-4.58,-4.58,-4.58,-4.58,-4.58,-4.58,-4.58,-4.58,-4.58,-4.58,-4.58,-4.58,-4.5529,-4.4775,-4.4632,-4.3982,-4.2357,-4.2125,-4.1764,-4.0951,-4.0829,-4.0797,-4.079,-4.0797,-4.0797,-4.0797,-4.079,-4.0752,-4.07,-4.0694,-4.0661,-4.0607,-4.0607,-4.0607,-4.0588,-4.0588,-4.0588,-2.6116,0.0,-2.7369,-2.6742,-2.6452,-2.6253,0.0,-2.5852,-2.564,-2.5464,0.0,-2.5839,-2.7174,-2.6865,-2.7499,0.0,0.0,0.0,0.0,0.0,0.0,0.0,0.0,0.0,0.0,0.0,0.0,-4.8682,-4.8458,-4.8327,-4.8327,-4.8322,-4.8318,-4.8318,-4.8704,-4.8948,-4.8991,-5.026,-5.0589,-4.9997,-5.0608,-5.0569,-4.9977,-4.9784,-4.9339,-4.8662,-4.7773,-4.7294,-4.7051,-4.6387,-4.5943,-4.5714,-4.5698,-4.5673,-4.5629,-4.5629,-4.5629,-4.5629,-4.5629,-4.5629,-4.5629,-4.5682,-4.5695,-4.5708,-4.5708,-4.5723,-4.5712,-4.5712,-4.5712,-4.5712,-4.5712,-4.5712,-4.5712,-4.5712,-4.5712,-4.5712,-4.5712,-4.5712,-4.5746,-4.5795,-4.5754,-4.5746,-4.5795,-4.5803,-4.5803,-4.5803,-4.5805,-4.5729,-4.5529,-4.4987,-4.4439,-4.4033,-4.3401,-4.2879,-4.2632,-4.1506,-4.0784,-4.0733,-4.0778,-4.0797,-4.0797,-4.0746,-4.0726,-4.07,-4.0654,-4.0626,-4.0603,-4.0603,-4.0569,-4.0527,-4.0527,-4.0527,-2.5308,-2.5933,-2.6506,-2.6059,-2.5957,-2.5952,-2.5985,-2.57,-2.5395,0.0,0.0,0.0,0.0,0.0,0.0,0.0,0.0,0.0,0.0,0.0,0.0,0.0,0.0,0.0,0.0,0.0,-4.7334,-4.772,-4.7357,-4.7109,-4.7109,-4.7105,-4.7116,-4.7116,-4.7483,-4.792,-4.8342,-4.9254,-4.9486,-4.9057,-4.9505,-4.9478,-4.9034,-4.8647,-4.8203,-4.7701,-4.6831,-4.6457,-4.6414,-4.5955,-4.5722,-4.5701,-4.5676,-4.5631,-4.5594,-4.5594,-4.5594,-4.5594,-4.5594,-4.5594,-4.5614,-4.564,-4.5646,-4.5643,-4.5643,-4.5643,-4.5651,-4.5692,-4.5708,-4.5708,-4.5708,-4.5708,-4.5708,-4.5708,-4.5708,-4.5708,-4.5708,-4.5708,-4.5673,-4.5596,-4.5543,-4.549,-4.5399,-4.5389,-4.5389,-4.5389,-4.5398,-4.5387,-4.5387,-4.5003,-4.4591,-4.4226,-4.3765,-4.3297,-4.2821,-4.2012,-4.145,-4.1258,-4.1285,-4.1132,-4.0726,-4.0668,-4.0647,-4.0646,-4.0598,-4.0549,-4.0546,-4.0468,-4.04,-4.0356,-4.0356,-4.0356,-2.5462,-2.6212,-2.6895,-2.6506,-2.6492,-2.6579,-2.6492,0.0,0.0,0.0,0.0,0.0,0.0,-2.7947,0.0,0.0,0.0,0.0,0.0,0.0,0.0,0.0,0.0,0.0,0.0,-4.6167,-4.6016,-4.675,-4.6124,-4.57,-4.57,-4.5692,-4.5684,-4.5684,-4.6397,-4.7155,-4.7909,-4.8174,-4.8232,-4.8091,-4.8232,-4.8235,-4.8081,-4.7348,-4.6923,-4.6769,0.0,0.0,-4.5692,-4.5698,-4.5693,-4.5684,-4.5631,-4.5594,-4.5594,-4.5594,-4.5594,-4.5594,-4.5594,-4.5594,-4.5594,-4.5594,-4.5594,-4.5594,-4.5594,-4.5594,-4.5612,-4.5668,-4.5684,-4.5684,-4.5684,-4.5684,-4.5684,-4.5684,-4.5684,-4.5684,-4.5684,-4.5648,-4.5563,-4.5343,-4.5265,-4.5156,-4.4943,-4.489,-4.489,-4.489,-4.4901,-4.4901,-4.4901,-4.4901,-4.4635,-4.3958,-4.3881,-4.3563,-4.2762,-4.275,-4.26,-4.2181,-4.2032,-4.1578,-4.0719,-4.0681,-4.06,-4.0484,-4.0457,-4.0422,-4.0397,-4.025,-4.0186,-4.0139,-4.0139,-4.0139,-2.6192,-2.7525,-2.8203,-2.6043,-2.6043,-2.6414,-2.5683,-2.5414,0.0,0.0,0.0,0.0,0.0,-3.0571,0.0,0.0,0.0,0.0,0.0,0.0,0.0,0.0,0.0,0.0,0.0,-4.5785,-4.5766,-4.5901,-4.5792,-4.569,-4.569,-4.5657,-4.5612,-4.5612,-4.5747,-4.5907,-4.6103,-4.7563,-4.7926,-4.7201,-4.7946,-4.7907,-4.7193,-4.7058,-4.6595,-4.5901,0.0,-4.5703,-4.569,-4.5701,-4.5676,-4.5603,-4.5594,-4.5594,-4.5594,-4.5594,-4.5594,-4.5594,-4.5594,-4.5594,-4.5594,-4.5594,-4.5594,-4.5594,-4.5594,-4.5594,-4.5594,-4.5612,-4.5612,-4.5612,-4.5612,-4.5612,-4.5612,-4.5612,-4.5612,-4.5612,-4.5612,-4.5448,-4.5283,-4.5293,-4.5066,-4.4884,-4.4908,-4.4908,-4.4908,-4.4908,-4.4886,-4.4901,-4.4901,-4.4901,-4.4844,-4.473,-4.4711,-4.4669,-4.4505,-4.4516,-4.4167,-4.3316,-4.2669,-4.1928,-4.1059,-4.1011,-4.0677,-3.9943,-4.0148,-4.0129,-3.9903,-4.0101,-4.0081,-3.9851,-3.9851,-3.9851,-2.5773,-2.6794,-2.7582,-2.689,-2.8044,-2.914,-2.825,-2.8058,0.0,0.0,0.0,0.0,0.0,0.0,0.0,0.0,0.0,0.0,0.0,0.0,0.0,0.0,0.0,-4.5665,-4.5706,-4.5671,-4.5654,-4.5654,-4.5657,-4.5648,-4.5648,-4.5622,-4.5594,-4.5594,-4.5594,-4.5603,-4.5648,-4.6435,-4.6653,-4.6312,-4.6673,-4.6617,-4.6232,-4.6232,-4.602,-4.5654,0.0,-4.5646,-4.5648,-4.5648,-4.5631,-4.5594,-4.5594,-4.5594,-4.5594,-4.5594,-4.5594,-4.5594,-4.5594,-4.5594,-4.5594,-4.5594,-4.5594,-4.5577,-4.5429,-4.5371,-4.5352,-4.5211,-4.539,-4.5594,-4.5594,-4.5594,-4.5594,-4.5594,-4.5594,-4.5594,-4.5594,-4.54,-4.5169,-4.5052,-4.4788,-4.4546,-4.443,-4.4416,-4.4416,-4.4416,-4.4406,-4.4401,-4.4401,-4.4401,-4.4401,-4.4401,-4.4401,-4.4406,-4.4416,-4.4416,-4.4148,-4.3552,-4.2765,-4.2181,-4.176,-4.176,-4.1351,-4.0517,-4.0615,-4.0397,-3.9808,-3.9805,-3.9758,-3.9644,-3.9644,-3.9644,-2.5456,-2.6096,-2.6813,-2.7678,-2.9217,-3.0544,-3.0673,-3.0385,-3.025,0.0,0.0,0.0,0.0,0.0,0.0,0.0,0.0,0.0,0.0,-4.519,-4.5622,-4.5665,-4.5631,-4.5622,-4.5665,-4.5631,-4.5594,-4.5594,-4.5594,-4.5594,-4.5594,-4.5594,-4.5594,-4.5594,-4.5594,-4.5594,-4.5594,-4.5594,-4.5631,-4.5684,-4.5631,-4.5594,-4.5594,-4.5594,-4.5594,-4.5594,-4.5594,-4.5594,-4.5594,-4.5594,-4.5594,-4.5594,-4.5594,-4.5568,-4.5504,-4.5429,-4.5419,-4.5419,-4.5419,-4.5419,-4.5419,-4.5419,-4.5419,-4.5362,-4.518,-4.5096,-4.5063,-4.4868,-4.5096,-4.5419,-4.5419,-4.5419,-4.5419,-4.5419,-4.5419,-4.5419,-4.5419,-4.5211,-4.4943,-4.4751,-4.4479,-4.425,-4.4051,-4.4005,-4.4005,-4.4005,-4.4005,-4.4005,-4.4005,-4.4005,-4.4005,-4.4005,-4.4005,-4.4005,-4.4005,-4.4005,-4.3886,-4.3623,-4.3045,-4.2611,-4.2423,-4.2423,-4.2039,-4.1222,-4.1262,-4.0941,-4.0215,-4.0121,-4.0027,-3.9995,-3.9995,-3.9995,-2.6032,-2.6544,-2.6813,-2.7678,-2.7428,-2.7775,-3.091,-3.0352,0.0,-3.2237,0.0,0.0,0.0,0.0,0.0,0.0,0.0,0.0,0.0,0.0,-4.5594,-4.5614,-4.5594,-4.5594,-4.5614,-4.5594,-4.5594,-4.5594,-4.5594,-4.5594,-4.5594,-4.5594,-4.5594,-4.5594,-4.5594,-4.5594,-4.5594,-4.5594,-4.5594,-4.5614,-4.5594,-4.5594,-4.5594,-4.5594,-4.5594,-4.5594,-4.5594,-4.5594,-4.5594,-4.5594,-4.5594,-4.5594,-4.5594,-4.5438,-4.5201,-4.4962,-4.4868,-4.4868,-4.4868,-4.4868,-4.4868,-4.4868,-4.4868,-4.4849,-4.4825,-4.4825,-4.4812,-4.4819,-4.4825,-4.4868,-4.4868,-4.4868,-4.4868,-4.4868,-4.4868,-4.4868,-4.4868,-4.465,-4.4452,-4.4425,-4.4206,-4.4017,-4.4005,-4.4005,-4.4005,-4.4005,-4.4005,-4.4005,-4.4005,-4.4005,-4.4005,-4.4005,-4.4005,-4.4005,-4.4005,-4.4005,-4.3983,-4.3974,-4.3899,-4.3546,-4.2783,-4.2746,-4.2389,-4.1589,-4.1747,-4.171,-4.1477,-4.164,-4.1627,-4.1448,-4.1448,-4.1448,-2.5196,-2.5993,-2.6803,-2.8177,-2.8743,0.0,0.0,-3.316,-3.441,-3.6449,-3.7534,0.0,0.0,0.0,0.0,0.0,0.0,0.0,0.0,-4.5594,-4.5594,-4.5594,-4.5594,-4.5594,-4.5594,-4.5594,-4.5594,-4.5594,-4.5594,-4.5594,-4.5594,-4.5594,-4.5594,-4.5594,-4.5594,-4.5594,-4.5594,-4.5594,-4.5594,-4.5594,-4.5594,-4.5594,-4.5594,-4.5594,-4.5594,-4.5594,-4.5594,-4.5594,-4.5594,-4.5594,-4.5594,-4.5577,-4.5419,-4.5191,-4.495,-4.4837,-4.4788,-4.4788,-4.4788,-4.4788,-4.4788,-4.4788,-4.4788,-4.4763,-4.4599,-4.4546,-4.4506,-4.4346,-4.4308,-4.4374,-4.4701,-4.4788,-4.4788,-4.4788,-4.4788,-4.4788,-4.4788,-4.4585,-4.4397,-4.4397,-4.4177,-4.4005,-4.4005,-4.4005,-4.4005,-4.4005,-4.4005,-4.4005,-4.4005,-4.4005,-4.4005,-4.4005,-4.4005,-4.4005,-4.4005,-4.4005,-4.4005,-4.4005,-4.4005,-4.3856,-4.3559,-4.3559,-4.3169,-4.2352,-4.2433,-4.2191,-4.159,-4.1688,-4.1669,-4.159,-4.159,-4.159,-2.4955,-2.5438,-2.6109,-2.8259,0.0,0.0,-3.3433,-3.5395,-3.7327,-3.9623,-4.0527,-4.0989,-4.1266,0.0,0.0,0.0,0.0,0.0,0.0,-4.5594,-4.5594,-4.5594,-4.5594,-4.5594,-4.5594,-4.5594,-4.5594,-4.5594,-4.5594,-4.5594,-4.5594,-4.5594,-4.5594,-4.5594,-4.5594,-4.5594,-4.5594,-4.5594,-4.5594,-4.5594,-4.5594,-4.5594,-4.5594,-4.5594,-4.5594,-4.5594,-4.5594,-4.5594,-4.5594,-4.5594,-4.5559,-4.5438,-4.5085,-4.4837,-4.4663,-4.4572,-4.4552,-4.4552,-4.4552,-4.4552,-4.4552,-4.4552,-4.4552,-4.4506,-4.4318,-4.426,-4.4236,-4.4048,-4.4005,-4.4094,-4.4457,-4.4552,-4.4552,-4.4552,-4.4552,-4.4552,-4.4552,-4.4402,-4.426,-4.426,-4.4121,-4.4005,-4.4005,-4.4005,-4.4005,-4.4005,-4.4005,-4.4005,-4.4005,-4.4005,-4.4005,-4.4005,-4.4005,-4.4005,-4.4005,-4.4005,-4.4005,-4.4005,-4.4005,-4.4005,-4.4005,-4.4005,-4.3745,-4.3188,-4.3188,-4.2909,-4.2352,-4.2352,-4.2352,-4.2352,-4.2352,-4.2352,-2.5588,-2.4981,-2.4611,0.0,0.0,0.0,-3.545,-3.6581,-3.7692,-4.1135,-4.1827,-4.2085,-4.2951,0.0,0.0,-4.4162,-4.5037,-4.5594,-4.5594,-4.5594,-4.5594,-4.5594,-4.5594,-4.5594,-4.5594,-4.5594,-4.5594,-4.5594,-4.5594,-4.5594,-4.5594,-4.5594,-4.5594,-4.5594,-4.5594,-4.5594,-4.5594,-4.5594,-4.5594,-4.5594,-4.5594,-4.5594,-4.5594,-4.5594,-4.5594,-4.5594,-4.5594,-4.5594,-4.5594,-4.5594,-4.5429,-4.5129,-4.4612,-4.4402,-4.4355,-4.4109,-4.4005,-4.4005,-4.4005,-4.4005,-4.4005,-4.4005,-4.4005,-4.4005,-4.4005,-4.4005,-4.4005,-4.4005,-4.4005,-4.4005,-4.4005,-4.4005,-4.4005,-4.4005,-4.4005,-4.4005,-4.4005,-4.4005,-4.4005,-4.4005,-4.4005,-4.4005,-4.4005,-4.4005,-4.4005,-4.4005,-4.4005,-4.4005,-4.4005,-4.4005,-4.4005,-4.4005,-4.4005,-4.4005,-4.4005,-4.4005,-4.4005,-4.4005,-4.4005,-4.4005,-4.4005,-4.4005,-4.4005,-4.4005,-4.4005,-4.4005,-4.4005,-4.4005,-4.4005,-4.4005,-4.4005,-4.4005,-2.4671,-2.5581,0.0,-2.8786,0.0,0.0,0.0,-3.8673,0.0,0.0,-4.3989,-4.3643,-4.3893,0.0,0.0,-4.4259,-4.5037,-4.5594,-4.5594,-4.5594,-4.5594,-4.5594,-4.5594,-4.5594,-4.5594,-4.5594,-4.5594,-4.5594,-4.5594,-4.5594,-4.5594,-4.5594,-4.5594,-4.5594,-4.5594,-4.5594,-4.5594,-4.5594,-4.5594,-4.5594,-4.5594,-4.5594,-4.5594,-4.5594,-4.5594,-4.5594,-4.5594,-4.5594,-4.5586,-4.54,-4.5052,-4.4624,-4.4465,-4.4275,-4.4106,-4.4017,-4.4005,-4.4005,-4.4005,-4.4005,-4.4005,-4.4005,-4.4005,-4.4005,-4.4005,-4.4005,-4.4005,-4.4005,-4.4005,-4.4005,-4.4005,-4.4005,-4.4005,-4.4005,-4.4005,-4.4005,-4.4005,-4.4005,-4.4005,-4.4005,-4.4005,-4.4005,-4.4005,-4.4005,-4.4005,-4.4005,-4.4005,-4.4005,-4.4005,-4.4005,-4.4005,-4.4005,-4.4005,-4.4005,-4.4005,-4.4005,-4.4005,-4.4005,-4.4005,-4.4005,-4.4005,-4.4005,-4.4005,-4.4005,-4.4005,-4.4005,-4.4005,-4.4005,-4.4005,-4.4005,-4.4005,-4.4005,-2.5439,-2.653,0.0,-3.072,-3.3091,-3.5698,-3.9317,0.0,0.0,0.0,0.0,-4.4412,-4.4739,-4.4528,0.0,-4.4759,-4.5267,-4.5568,-4.5467,-4.5522,0.0,-4.5448,-4.555,-4.5594,-4.5594,-4.5594,-4.5594,-4.5594,-4.5594,-4.5594,-4.5594,-4.5594,-4.5594,-4.5594,-4.5594,-4.5594,-4.5594,-4.5594,-4.5594,-4.5594,-4.5495,-4.5438,-4.5438,-4.5559,-4.5531,-4.5429,-4.5332,-4.5273,-4.5253,-4.4988,-4.4701,-4.4402,-4.4275,-4.4151,-4.4005,-4.4005,-4.4005,-4.4005,-4.4005,-4.4005,-4.4005,-4.4005,-4.4005,-4.4005,-4.4005,-4.4005,-4.4005,-4.4005,-4.4005,-4.4005,-4.4005,-4.4005,-4.4005,-4.4005,-4.4005,-4.4005,-4.4005,-4.4005,-4.4005,-4.4005,-4.4005,-4.4005,-4.4005,-4.4005,-4.4005,-4.4005,-4.4005,-4.4005,-4.4005,-4.4005,-4.4005,-4.4005,-4.4005,-4.4005,-4.4005,-4.4005,-4.4005,-4.4005,-4.4005,-4.4005,-4.4005,-4.4005,-4.4005,-4.4005,-4.4005,-4.4005,-4.4005,-4.4005,-4.4005,-4.4005,-4.4005,-4.4005,-2.712,0.0,0.0,0.0,0.0,0.0,0.0,0.0,-4.4484,-4.5349,0.0,-4.4617,-4.5387,-4.4897,-4.4636,-4.5407,-4.5522,-4.5438,-4.5201,-4.5362,-4.5429,-4.5201,-4.539,-4.555,-4.5568,-4.5531,-4.555,-4.5568,-4.5531,-4.5522,-4.5522,-4.5522,-4.5522,-4.5522,-4.5522,-4.5522,-4.5522,-4.5522,-4.5522,-4.5522,-4.5292,-4.515,-4.518,-4.5419,-4.5381,-4.5159,-4.4915,-4.4776,-4.4739,-4.4493,-4.4388,-4.4346,-4.4109,-4.4005,-4.4005,-4.4005,-4.4005,-4.4005,-4.4005,-4.4005,-4.4005,-4.4005,-4.4005,-4.4005,-4.4005,-4.4005,-4.4005,-4.4005,-4.4005,-4.4005,-4.4005,-4.4005,-4.4005,-4.4005,-4.4005,-4.4005,-4.4005,-4.4005,-4.4005,-4.4005,-4.4005,-4.4005,-4.4005,-4.4005,-4.4005,-4.4005,-4.4005,-4.4005,-4.4005,-4.4005,-4.4005,-4.4005,-4.4005,-4.4005,-4.4005,-4.4005,-4.4005,-4.4005,-4.4005,-4.4005,-4.4005,-4.4005,-4.4005,-4.4005,-4.4005,-4.4005,-4.4005,-4.4005,-4.4005,-4.4005,-4.4005,-4.4005,0.0,-2.8014,0.0,0.0,0.0,0.0,0.0,0.0,0.0,0.0,-4.4995,-4.5012,-4.4981,-4.4995,-4.5001,-4.4969,-4.4985,-4.4943,-4.4884,-4.4938,-4.4962,-4.4884,-4.495,-4.5052,-4.5282,-4.5096,-4.5063,-4.5263,-4.5085,-4.4985,-4.4985,-4.4985,-4.4985,-4.4985,-4.4985,-4.4985,-4.4985,-4.4985,-4.4985,-4.4985,-4.4908,-4.4891,-4.4903,-4.495,-4.495,-4.4872,-4.4831,-4.4676,-4.4479,-4.4411,-4.4279,-4.4079,-4.4017,-4.4005,-4.4005,-4.4005,-4.4005,-4.4005,-4.4005,-4.4005,-4.4005,-4.4005,-4.4005,-4.4005,-4.4005,-4.4005,-4.4005,-4.4005,-4.4005,-4.4005,-4.4005,-4.4005,-4.4005,-4.4005,-4.4005,-4.4005,-4.4005,-4.4005,-4.4005,-4.4005,-4.4005,-4.4005,-4.4005,-4.4005,-4.4005,-4.4005,-4.4005,-4.4005,-4.4005,-4.4005,-4.4005,-4.4005,-4.4005,-4.4005,-4.4005,-4.4005,-4.4005,-4.4005,-4.4005,-4.4005,-4.4005,-4.4005,-4.4005,-4.4005,-4.4005,-4.4005,-4.4005,-4.4005,-4.4005,-4.4005,-4.4005,-4.4005,0.0,0.0,0.0,0.0,0.0,0.0,0.0,0.0,0.0,0.0,0.0,0.0,0.0,-4.4908,-4.4954,-4.4812,-4.4788,-4.4751,-4.4624,-4.4714,-4.4751,-4.4624,-4.4714,-4.4849,-4.4977,-4.4872,-4.4868,-4.5007,-4.4872,-4.4788,-4.4788,-4.4788,-4.4788,-4.4788,-4.4788,-4.4788,-4.4788,-4.4788,-4.4788,-4.4788,-4.4663,-4.4533,-4.4416,-4.4546,-4.4612,-4.4599,-4.4484,-4.4332,-4.4206,-4.4206,-4.4121,-4.4005,-4.4005,-4.4005,-4.4005,-4.4005,-4.4005,-4.4005,-4.4005,-4.4005,-4.4005,-4.4005,-4.4005,-4.4005,-4.4005,-4.4005,-4.4005,-4.4005,-4.4005,-4.4005,-4.4005,-4.4005,-4.4005,-4.4005,-4.4005,-4.4005,-4.4005,-4.4005,-4.4005,-4.4005,-4.4005,-4.4005,-4.4005,-4.4005,-4.4005,-4.4005,-4.4005,-4.4005,-4.4005,-4.4005,-4.4005,-4.4005,-4.4005,-4.4005,-4.4005,-4.4005,-4.4005,-4.4005,-4.4005,-4.4005,-4.4005,-4.4005,-4.4005,-4.4005,-4.4005,-4.4005,-4.4005,-4.4005,-4.4005,-4.4005,-4.4005,-4.4005,0.0,0.0,0.0,0.0,0.0,0.0,0.0,0.0,0.0,0.0,0.0,0.0,0.0,0.0,0.0,-4.4663,-4.465,-4.4572,-4.436,-4.4519,-4.4572,-4.436,-4.4519,-4.4676,-4.4726,-4.4688,-4.4676,-4.4726,-4.4688,-4.465,-4.465,-4.465,-4.465,-4.465,-4.465,-4.465,-4.465,-4.465,-4.465,-4.465,-4.4443,-4.4206,-4.402,-4.4236,-4.4332,-4.4318,-4.4109,-4.4005,-4.4005,-4.4005,-4.4005,-4.4005,-4.4005,-4.4005,-4.4005,-4.4005,-4.4005,-4.4005,-4.4005,-4.4005,-4.4005,-4.4005,-4.4005,-4.4005,-4.4005,-4.4005,-4.4005,-4.4005,-4.4005,-4.4005,-4.4005,-4.4005,-4.4005,-4.4005,-4.4005,-4.4005,-4.4005,-4.4005,-4.4005,-4.4005,-4.4005,-4.4005,-4.4005,-4.4005,-4.4005,-4.4005,-4.4005,-4.4005,-4.4005,-4.4005,-4.4005,-4.4005,-4.4005,-4.4005,-4.4005,-4.4005,-4.4005,-4.4005,-4.4005,-4.4005,-4.4005,-4.4005,-4.4005,-4.4005,-4.4005,-4.4005,-4.4005,-4.4005,-4.4005,-4.4005,-4.4005,-4.4005,0.0,0.0,0.0,0.0,0.0,0.0,0.0,0.0,0.0,0.0,0.0,0.0,0.0,0.0,0.0,0.0,0.0,0.0,0.0,0.0,-4.4094,-4.4064,-4.4094,-4.421,-4.4425,-4.425,-4.4192,-4.4443,-4.4236,-4.4109,-4.4109,-4.4109,-4.4109,-4.4109,-4.4109,-4.4109,-4.4109,-4.4109,-4.4109,-4.4109,-4.4079,-4.4033,-4.4005,-4.4033,-4.4048,-4.4048,-4.402,-4.4005,-4.4005,-4.4005,-4.4005,-4.4005,-4.4005,-4.4005,-4.4005,-4.4005,-4.4005,-4.4005,-4.4005,-4.4005,-4.4005,-4.4005,-4.4005,-4.4005,-4.4005,-4.4005,-4.4005,-4.4005,-4.4005,-4.4005,-4.4005,-4.4005,-4.4005,-4.4005,-4.4005,-4.4005,-4.4005,-4.4005,-4.4005,-4.4005,-4.4005,-4.4005,-4.4005,-4.4005,-4.4005,-4.4005,-4.4005,-4.4005,-4.4005,-4.4005,-4.4005,-4.4005,-4.4005,-4.4005,-4.4005,-4.4005,-4.4005,-4.4005,-4.4005,-4.4005,-4.4005,-4.4005,-4.4005,-4.4005,-4.4005,-4.4005,-4.4005,-4.4005,-4.4005,-4.4005,-4.4005,-4.4005,0.0,0.0,0.0,0.0,0.0,0.0,0.0,0.0,0.0,0.0,0.0,0.0,0.0,0.0,0.0,0.0,0.0,0.0,0.0,0.0,0.0,0.0,-4.4005,-4.4048,-4.4147,-4.4079,-4.4048,-4.4181,-4.4064,-4.4005,-4.4005,-4.4005,-4.4005,-4.4005,-4.4005,-4.4005,-4.4005,-4.4005,-4.4005,-4.4005,-4.4005,-4.4005,-4.4005,-4.4005,-4.4005,-4.4005,-4.4005,-4.4005,-4.4005,-4.4005,-4.4005,-4.4005,-4.4005,-4.4005,-4.4005,-4.4005,-4.4005,-4.4005,-4.4005,-4.4005,-4.4005,-4.4005,-4.4005,-4.4005,-4.4005,-4.4005,-4.4005,-4.4005,-4.4005,-4.4005,-4.4005,-4.4005,-4.4005,-4.4005,-4.4005,-4.4005,-4.4005,-4.4005,-4.4005,-4.4005,-4.4005,-4.4005,-4.4005,-4.4005,-4.4005,-4.4005,-4.4005,-4.4005,-4.4005,-4.4005,-4.4005,-4.4005,-4.4005,-4.4005,-4.4005,-4.4005,-4.4005,-4.4005,-4.4005,-4.4005,-4.4005,-4.4005,-4.4005,-4.4005,-4.4005,-4.4005,-4.4005,-4.4005,-4.4005,-4.4005,-4.4005,-4.4005,0.0,0.0,0.0,0.0,0.0,0.0,0.0,0.0,0.0,0.0,0.0,0.0,0.0,0.0,0.0,0.0,0.0,0.0,0.0,0.0,0.0,0.0,0.0,-4.4005,-4.4005,-4.4005,-4.4005,-4.4005,-4.4005,-4.4005,-4.4005,-4.4005,-4.4005,-4.4005,-4.4005,-4.4005,-4.4005,-4.4005,-4.4005,-4.4005,-4.4005,-4.4005,-4.4005,-4.4005,-4.4005,-4.4005,-4.4005,-4.4005,-4.4005,-4.4005,-4.4005,-4.4005,-4.4005,-4.4005,-4.4005,-4.4005,-4.4005,-4.4005,-4.4005,-4.4005,-4.4005,-4.4005,-4.4005,-4.4005,-4.4005,-4.4005,-4.4005,-4.4005,-4.4005,-4.4005,-4.4005,-4.4005,-4.4005,-4.4005,-4.4005,-4.4005,-4.4005,-4.4005,-4.4005,-4.4005,-4.4005,-4.4005,-4.4005,-4.4005,-4.4005,-4.4005,-4.4005,-4.4005,-4.4005,-4.4005,-4.4005,-4.4005,-4.4005,-4.4005,-4.4005,-4.4005,-4.4005,-4.4005,-4.4005,-4.4005,-4.4005,-4.4005,-4.4005,-4.4005,-4.4005,-4.4005,-4.4005,-4.4005,-4.4005,-4.4005,-4.4005,-4.4005,0.0,0.0,0.0,0.0,0.0,0.0,0.0,0.0,0.0,0.0,0.0,0.0,0.0,0.0,0.0,0.0,0.0,0.0,0.0,0.0,0.0,0.0,0.0,0.0,-4.4005,-4.4005,-4.4005,-4.4005,-4.4005,-4.4005,-4.4005,-4.4005,-4.4005,-4.4005,-4.4005,-4.4005,-4.4005,-4.4005,-4.4005,-4.4005,-4.4005,-4.4005,-4.4005,-4.4005,-4.4005,-4.4005,-4.4005,-4.4005,-4.4005,-4.4005,-4.4005,-4.4005,-4.4005,-4.4005,-4.4005,-4.4005,-4.4005,-4.4005,-4.4005,-4.4005,-4.4005,-4.4005,-4.4005,-4.4005,-4.4005,-4.4005,-4.4005,-4.4005,-4.4005,-4.4005,-4.4005,-4.4005,-4.4005,-4.4005,-4.4005,-4.4005,-4.4005,-4.4005,-4.4005,-4.4005,-4.4005,-4.4005,-4.4005,-4.4005,-4.4005,-4.4005,-4.4005,-4.4005,-4.4005,-4.4005,-4.4005,-4.4005,-4.4005,-4.4005,-4.4005,-4.4005,-4.4005,-4.4005,-4.4005,-4.4005,-4.4005,-4.4005,-4.4005,-4.4005,-4.4005,-4.4005,-4.4005,-4.4005,-4.4005,-4.4005,-4.4005,-4.4005,0.0,0.0,0.0,0.0,0.0,0.0,0.0,0.0,0.0,0.0,0.0,0.0,0.0,0.0,0.0,0.0,0.0,0.0,0.0,0.0,0.0,0.0,0.0,0.0,0.0,0.0,-4.4005,-4.4005,-4.4005,-4.4005,-4.4005,-4.4005,-4.4005,-4.4005,-4.4005,-4.4005,-4.4005,-4.4005,-4.4005,-4.4005,-4.4005,-4.4005,-4.4005,-4.4005,-4.4005,-4.4005,-4.4005,-4.4005,-4.4005,-4.4005,-4.4005,-4.4005,-4.4005,-4.4005,-4.4005,-4.4005,-4.4005,-4.4005,-4.4005,-4.4005,-4.4005,-4.4005,-4.4005,-4.4005,-4.4005,-4.4005,-4.4005,-4.4005,-4.4005,-4.4005,-4.4005,-4.4005,-4.4005,-4.4005,-4.4005,-4.4005,-4.4005,-4.4005,-4.4005,-4.4005,-4.4005,-4.4005,-4.4005,-4.4005,-4.4005,-4.4005,-4.4005,-4.4005,-4.4005,-4.4005,-4.4005,-4.4005,-4.4005,-4.4005,-4.4005,-4.4005,-4.4005,-4.4005,-4.4005,-4.4005,-4.4005,-4.4005,-4.4005,-4.4005,-4.4005,-4.4005,-4.4005,-4.4005,-4.4005,-4.4005,-4.4005,-4.4005,-2.1124,0.0,0.0,0.0,0.0,0.0,0.0,0.0,0.0,0.0,0.0,0.0,0.0,0.0,0.0,0.0,0.0,0.0,0.0,0.0,0.0,0.0,0.0,0.0,0.0,0.0,0.0,-4.3615,-4.3596,0.0,-4.3206,-4.3448,-4.3726,-4.3986,-4.4005,-4.4005,-4.4005,-4.4005,-4.4005,-4.4005,-4.4005,-4.4005,-4.4005,-4.4005,-4.4005,-4.4005,-4.4005,-4.4005,-4.4005,-4.4005,-4.4005,-4.4005,-4.4005,-4.4005,-4.4005,-4.4005,-4.4005,-4.4005,-4.4005,-4.4005,-4.4005,-4.4005,-4.4005,-4.4005,-4.4005,-4.4005,-4.4005,-4.4005,-4.4005,-4.4005,-4.4005,-4.4005,-4.4005,-4.4005,-4.4005,-4.4005,-4.4005,-4.4005,-4.4005,-4.4005,-4.4005,-4.4005,-4.4005,-4.4005,-4.4005,-4.4005,-4.4005,-4.4005,-4.4005,-4.4005,-4.4005,-4.4005,-4.4005,-4.4005,-4.4005,-4.4005,-4.4005,-4.4005,-4.4005,-4.4005,-4.4005,-4.4005,-4.4005,-4.4005,-4.4005,-4.4005,-4.4005,-4.4005,-4.4005,-4.4005,-4.4005,-4.4005,0.0,0.0,0.0,0.0,0.0,0.0,0.0,0.0,0.0,0.0,0.0,0.0,0.0,0.0,0.0,0.0,0.0,0.0,0.0,0.0,0.0,0.0,0.0,0.0,0.0,0.0,0.0,-4.2816,-4.276,-4.2407,-4.1627,-4.2333,-4.3113,-4.3893,-4.3931,-4.3949,-4.3968,-4.3968,-4.3986,-4.4005,-4.4005,-4.4005,-4.4005,-4.4005,-4.4005,-4.4005,-4.4005,-4.4005,-4.4005,-4.4005,-4.4005,-4.4005,-4.4005,-4.4005,-4.4005,-4.4005,-4.4005,-4.4005,-4.4005,-4.4005,-4.4005,-4.4005,-4.4005,-4.4005,-4.4005,-4.4005,-4.4005,-4.4005,-4.4005,-4.4005,-4.4005,-4.4005,-4.4005,-4.4005,-4.4005,-4.4005,-4.4005,-4.4005,-4.4005,-4.4005,-4.4005,-4.4005,-4.4005,-4.4005,-4.4005,-4.4005,-4.4005,-4.4005,-4.4005,-4.4005,-4.4005,-4.4005,-4.4005,-4.4005,-4.4005,-4.4005,-4.4005,-4.4005,-4.4005,-4.4005,-4.4005,-4.4005,-4.4005,-4.4005,-4.4005,-4.4005,-4.4005,-4.4005,-4.4005,-4.4005,-4.4005,-4.4005,-2.0845,0.0,0.0,0.0,0.0,0.0,0.0,0.0,0.0,0.0,0.0,0.0,0.0,0.0,0.0,0.0,0.0,0.0,0.0,0.0,0.0,0.0,0.0,0.0,0.0,0.0,0.0,0.0,-4.1924,-4.1832,-4.1609,-4.1813,-4.2017,-4.2259,-4.2259,-4.2537,-4.3132,-4.3132,-4.3429,-4.4005,-4.4005,-4.4005,-4.4005,-4.4005,-4.4005,-4.4005,-4.4005,-4.4005,-4.4005,-4.4005,-4.4005,-4.4005,-4.4005,-4.4005,-4.4005,-4.4005,-4.4005,-4.4005,-4.4005,-4.4005,-4.4005,-4.4005,-4.4005,-4.4005,-4.4005,-4.4005,-4.4005,-4.4005,-4.4005,-4.4005,-4.4005,-4.4005,-4.4005,-4.4005,-4.4005,-4.4005,-4.4005,-4.4005,-4.4005,-4.4005,-4.4005,-4.4005,-4.4005,-4.4005,-4.4005,-4.4005,-4.4005,-4.4005,-4.4005,-4.4005,-4.4005,-4.4005,-4.4005,-4.4005,-4.4005,-4.4005,-4.4005,-4.4005,-4.4005,-4.4005,-4.4005,-4.4005,-4.4005,-4.4005,-4.4005,-4.4005,-4.4005,-4.4005,-4.4005,-4.4005,-4.4005,-4.4005,0.0,0.0,0.0,0.0,0.0,0.0,0.0,-2.6219,0.0,0.0,0.0,0.0,0.0,0.0,0.0,0.0,0.0,0.0,0.0,0.0,0.0,0.0,0.0,0.0,0.0,-4.1386,-4.146,-4.1107,-4.1089,-4.1089,-4.1089,-4.1089,-4.1237,-4.159,-4.159,-4.1832,-4.2296,-4.2296,-4.2519,-4.3002,-4.3336,-4.3503,-4.3503,-4.3856,-4.4005,-4.4005,-4.4005,-4.4005,-4.4005,-4.4005,-4.4005,-4.4005,-4.4005,-4.4005,-4.4005,-4.4005,-4.4005,-4.4005,-4.4005,-4.4005,-4.4005,-4.4005,-4.4005,-4.4005,-4.4005,-4.4005,-4.4005,-4.4005,-4.4005,-4.4005,-4.4005,-4.4005,-4.4005,-4.4005,-4.4005,-4.4005,-4.4005,-4.4005,-4.4005,-4.4005,-4.4005,-4.4005,-4.4005,-4.4005,-4.4005,-4.4005,-4.4005,-4.4005,-4.4005,-4.4005,-4.4005,-4.4005,-4.4005,-4.4005,-4.4005,-4.4005,-4.4005,-4.4005,-4.4005,-4.4005,-4.4005,-4.4005,-4.4005,-4.4005,-4.4005,-4.4005,-4.4005,-4.4005,-4.4005,-4.4005,-4.4005,-4.4005,-2.2858,-2.2998,0.0,0.0,0.0,0.0,-2.6052,-2.6628,-2.6962,0.0,0.0,0.0,0.0,0.0,0.0,0.0,0.0,0.0,0.0,0.0,0.0,0.0,0.0,0.0,-4.0248,-4.0903,-4.1033,-4.0323,-4.0253,-4.0253,-4.0253,-4.0253,-4.0583,-4.1293,-4.1311,-4.1367,-4.146,-4.146,-4.1497,-4.1609,-4.2314,-4.2705,-4.2816,-4.354,-4.3912,-4.4005,-4.4005,-4.4005,-4.4005,-4.4005,-4.4005,-4.4005,-4.4005,-4.4005,-4.4005,-4.4005,-4.4005,-4.4005,-4.4005,-4.4005,-4.4005,-4.4005,-4.4005,-4.4005,-4.4005,-4.4005,-4.4005,-4.4005,-4.4005,-4.4005,-4.4005,-4.4005,-4.4005,-4.4005,-4.4005,-4.4005,-4.4005,-4.4005,-4.4005,-4.4005,-4.4005,-4.4005,-4.4005,-4.4005,-4.4005,-4.4005,-4.4005,-4.4005,-4.4005,-4.4005,-4.4005,-4.4005,-4.4005,-4.4005,-4.4005,-4.4005,-4.4005,-4.4005,-4.4005,-4.4005,-4.4005,-4.4005,-4.4005,-4.4005,-4.4005,-4.4005,-4.4005,-4.4005,-4.4005,-4.4005,-4.4005,-4.4005,-2.542,0.0,0.0,0.0,0.0,0.0,-2.4269,-2.4965,-2.5987,0.0,0.0,0.0,0.0,0.0,0.0,0.0,0.0,0.0,0.0,0.0,0.0,0.0,0.0,0.0,-3.9287,-3.9491,-3.951,-3.9361,-3.9342,-3.9342,-3.9342,-3.9342,-3.9435,-3.9584,-3.9584,-3.9918,-4.0624,-4.0624,-4.0958,-4.159,-4.1757,-4.2166,-4.2816,-4.2965,-4.3392,-4.4005,-4.4005,-4.4005,-4.4005,-4.4005,-4.4005,-4.4005,-4.4005,-4.4005,-4.4005,-4.4005,-4.4005,-4.4005,-4.4005,-4.4005,-4.4005,-4.4005,-4.4005,-4.4005,-4.4005,-4.4005,-4.4005,-4.4005,-4.4005,-4.4005,-4.4005,-4.4005,-4.4005,-4.4005,-4.4005,-4.4005,-4.4005,-4.4005,-4.4005,-4.4005,-4.4005,-4.4005,-4.4005,-4.4005,-4.4005,-4.4005,-4.4005,-4.4005,-4.4005,-4.4005,-4.4005,-4.4005,-4.4005,-4.4005,-4.4005,-4.4005,-4.4005,-4.4005,-4.4005,-4.4005,-4.4005,-4.4005,-4.4005,-4.4005,-4.4005,-4.4005,-4.4005,-4.4005,-4.4005,-4.4005,-4.4005,-4.4005,-2.6739,0.0,0.0,-2.6405,0.0,0.0,0.0,-2.5067,-2.5224,-2.5615,0.0,0.0,0.0,0.0,0.0,0.0,0.0,0.0,0.0,0.0,0.0,0.0,0.0,0.0,-3.7856,-3.7894,-3.8061,-3.8469,-3.8488,-3.8674,-3.9082,-3.9101,-3.9101,-3.9101,-3.9101,-3.9305,-3.9751,-3.9751,-3.9955,-4.0364,-4.0791,-4.12,-4.1609,-4.2017,-4.263,-4.3392,-4.3392,-4.3633,-4.4005,-4.4005,-4.4005,-4.4005,-4.4005,-4.4005,-4.4005,-4.4005,-4.4005,-4.4005,-4.4005,-4.4005,-4.4005,-4.4005,-4.4005,-4.4005,-4.4005,-4.4005,-4.4005,-4.4005,-4.4005,-4.4005,-4.4005,-4.4005,-4.4005,-4.4005,-4.4005,-4.4005,-4.4005,-4.4005,-4.4005,-4.4005,-4.4005,-4.4005,-4.4005,-4.4005,-4.4005,-4.4005,-4.4005,-4.4005,-4.4005,-4.4005,-4.4005,-4.4005,-4.4005,-4.4005,-4.4005,-4.4005,-4.4005,-4.4005,-4.4005,-4.4005,-4.4005,-4.4005,-4.4005,-4.4005,-4.4005,-4.4005,-4.4005,-4.4005,-4.4005,-4.4005,-4.4005,-4.4005,0.0,0.0,0.0,0.0,0.0,-2.6795,0.0,0.0,0.0,-2.541,0.0,0.0,0.0,0.0,0.0,0.0,0.0,0.0,0.0,0.0,0.0,0.0,0.0,0.0,-3.6197,-3.6222,-3.6612,-3.7596,-3.7373,-3.7671,-3.8804,-3.8859,-3.8934,-3.9101,-3.9101,-3.9101,-3.9101,-3.9101,-3.9101,-3.9101,-3.9807,-4.0248,-4.042,-4.107,-4.1813,-4.2575,-4.2723,-4.3169,-4.3782,-4.3949,-4.4005,-4.4005,-4.4005,-4.4005,-4.4005,-4.4005,-4.4005,-4.4005,-4.4005,-4.4005,-4.4005,-4.4005,-4.4005,-4.4005,-4.4005,-4.4005,-4.4005,-4.3989,-4.3989,-4.4005,-4.3989,-4.3989,-4.3989,-4.3942,-4.3908,-4.3908,-4.3862,-4.3862,-4.3862,-4.3862,-4.3862,-4.3894,-4.3989,-4.4005,-4.4005,-4.4005,-4.4005,-4.4005,-4.4005,-4.4005,-4.4005,-4.4005,-4.4005,-4.4005,-4.4005,-4.4005,-4.4005,-4.4005,-4.4005,-4.4005,-4.4005,-4.4005,-4.4005,-4.4005,-4.4005,-4.3989,-4.3974,-4.3974,-4.3989,-4.4005,-4.4005,-4.4005,0.0,0.0,0.0,0.0,-2.9619,0.0,0.0,0.0,-2.6238,-2.4908,0.0,0.0,0.0,0.0,0.0,0.0,0.0,0.0,0.0,0.0,0.0,0.0,0.0,0.0,0.0,-3.4476,-3.5126,-3.6705,-3.5473,-3.5609,-3.7912,-3.8042,-3.8358,-3.9082,-3.9101,-3.9101,-3.9101,-3.9101,-3.9101,-3.9101,-3.9194,-3.964,-4.0416,-4.049,-4.0992,-4.1776,-4.2482,-4.2853,-4.2983,-4.3708,-4.4005,-4.4005,-4.4005,-4.4005,-4.4005,-4.4005,-4.4005,-4.4005,-4.4005,-4.4005,-4.4005,-4.4005,-4.4005,-4.4005,-4.4005,-4.4005,-4.3989,-4.3929,-4.3942,-4.3989,-4.3929,-4.3961,-4.3939,-4.3714,-4.3647,-4.358,-4.3339,-4.3286,-4.3286,-4.3286,-4.3286,-4.3426,-4.3926,-4.4005,-4.4005,-4.4005,-4.4005,-4.4005,-4.4005,-4.4005,-4.4005,-4.4005,-4.4005,-4.4005,-4.4005,-4.4005,-4.4005,-4.4005,-4.4005,-4.4005,-4.4005,-4.4005,-4.4005,-4.4005,-4.4005,-4.3958,-4.3913,-4.3913,-4.3945,-4.4005,-4.4005,-4.4005,0.0,0.0,0.0,0.0,0.0,0.0,-2.6572,0.0,-2.5448,0.0,0.0,0.0,0.0,0.0,0.0,0.0,0.0,0.0,0.0,0.0,0.0,0.0,0.0,0.0,0.0,0.0,0.0,0.0,-3.39,-3.4395,-3.6402,-3.7392,-3.8042,-3.8395,-3.8859,-3.9101,-3.9101,-3.9101,-3.9101,-3.9101,-3.9101,-3.9287,-3.964,-3.964,-4.0104,-4.0954,-4.1739,-4.237,-4.2853,-4.367,-4.4005,-4.4005,-4.4005,-4.4005,-4.4005,-4.4005,-4.4005,-4.4005,-4.4005,-4.4005,-4.4005,-4.4005,-4.3974,-4.3945,-4.3945,-4.3913,-4.3883,-4.3851,-4.3867,-4.3883,-4.3851,-4.3867,-4.38,-4.3388,-4.3319,-4.3231,-4.2865,-4.279,-4.279,-4.279,-4.2902,-4.3051,-4.3248,-4.356,-4.3763,-4.3763,-4.3892,-4.4005,-4.4005,-4.4005,-4.4005,-4.4005,-4.4005,-4.3942,-4.3779,-4.3763,-4.3763,-4.3763,-4.3908,-4.4005,-4.4005,-4.4005,-4.4005,-4.4005,-4.4005,-4.3958,-4.3897,-4.3897,-4.3881,-4.3881,-4.3881,-4.3881,-3.2647,0.0,0.0,0.0,0.0,0.0,0.0,0.0,0.0,0.0,0.0,0.0,0.0,0.0,0.0,0.0,0.0,0.0,0.0,0.0,0.0,0.0,0.0,0.0,0.0,0.0,0.0,-3.2202,0.0,-3.2685,-3.5027,-3.624,-3.7188,-3.7875,-3.8469,-3.8878,-3.9101,-3.9101,-3.9101,-3.9101,-3.9101,-3.9101,-3.9101,-3.9101,-3.944,-4.0057,-4.0874,-4.169,-4.2507,-4.3274,-4.3769,-4.4005,-4.3974,-4.3989,-4.4005,-4.4005,-4.4005,-4.4005,-4.4005,-4.4005,-4.4005,-4.3974,-4.3945,-4.3865,-4.3732,-4.3649,-4.3582,-4.3426,-4.3409,-4.3444,-4.3391,-4.3409,-4.332,-4.2904,-4.2792,-4.2697,-4.2342,-4.2241,-4.2241,-4.2241,-4.2362,-4.2462,-4.2462,-4.2996,-4.3389,-4.3389,-4.351,-4.3644,-4.3758,-4.3758,-4.3809,-4.3958,-4.3844,-4.366,-4.3475,-4.3354,-4.3355,-4.3458,-4.3543,-4.3644,-4.3761,-4.3742,-4.3742,-4.3742,-4.3894,-4.3913,-4.3816,-4.3816,-4.3767,-4.3719,-4.3771,-4.3804,0.0,0.0,0.0,-3.0609,0.0,0.0,0.0,0.0,-2.7557,0.0,0.0,0.0,0.0,0.0,0.0,0.0,0.0,0.0,0.0,0.0,0.0,0.0,0.0,0.0,0.0,0.0,-2.804,0.0,-2.9174,-3.001,-3.403,-3.429,-3.5423,-3.7819,-3.7931,-3.8302,-3.9082,-3.9101,-3.9101,-3.9101,-3.9101,-3.9101,-3.9101,-3.9101,-3.9078,-3.9085,-3.99,-4.0748,-4.16,-4.2337,-4.3177,-4.3989,-4.3929,-4.3945,-4.4005,-4.4005,-4.4005,-4.4005,-4.4005,-4.4005,-4.3989,-4.3929,-4.3897,-4.3798,-4.3283,-4.3123,-4.2996,-4.2505,-4.2426,-4.2503,-4.2386,-4.2426,-4.2444,-4.2118,-4.2035,-4.1948,-4.1697,-4.1626,-4.1626,-4.1626,-4.1631,-4.1648,-4.1648,-4.23,-4.2829,-4.2829,-4.2658,-4.2698,-4.3158,-4.3176,-4.3336,-4.3849,-4.344,-4.3123,-4.3123,-4.2754,-4.2697,-4.3087,-4.2754,-4.2735,-4.3105,-4.3123,-4.3123,-4.3123,-4.3563,-4.3736,-4.3599,-4.3599,-4.3583,-4.3515,-4.3703,-4.3804,0.0,0.0,-3.6399,-3.2594,0.0,0.0,0.0,0.0,0.0,0.0,0.0,0.0,0.0,0.0,0.0,0.0,0.0,0.0,0.0,0.0,0.0,0.0,0.0,0.0,0.0,0.0,0.0,0.0,-2.8094,0.0,-3.0854,-3.3022,-3.4835,-3.6207,-3.7323,-3.8284,-3.9082,-3.9064,-3.9036,-3.9036,-3.8993,-3.8964,-3.8964,-3.8964,-3.895,-3.8976,-3.9771,-4.0303,-4.0692,-4.2044,-4.2781,-4.3124,-4.3631,-4.3666,-4.3457,-4.3795,-4.3945,-4.3878,-4.3525,-4.3404,-4.3353,-4.3069,-4.2904,-4.281,-4.264,-4.2542,-4.2462,-4.2282,-4.2262,-4.2282,-4.2241,-4.2262,-4.218,-4.1778,-4.167,-4.1578,-4.1203,-4.1129,-4.1129,-4.1129,-4.1249,-4.134,-4.134,-4.1556,-4.1867,-4.2221,-4.2404,-4.2562,-4.2735,-4.2735,-4.2773,-4.2959,-4.281,-4.262,-4.2384,-4.2262,-4.2241,-4.2364,-4.2444,-4.2562,-4.2697,-4.2716,-4.2716,-4.2716,-4.2866,-4.3014,-4.3195,-4.2885,-4.2996,-4.3497,-4.3304,-4.3339,-3.6106,-3.6683,0.0,-3.3752,-3.2601,0.0,-2.8293,0.0,0.0,0.0,0.0,0.0,0.0,0.0,0.0,0.0,0.0,0.0,0.0,0.0,0.0,0.0,0.0,0.0,0.0,0.0,-2.5181,-2.632,-2.6886,0.0,0.0,-3.1825,-3.3778,-3.4888,-3.6539,-3.7794,-3.8591,-3.883,-3.895,-3.895,-3.8925,-3.891,-3.891,-3.891,-3.8896,-3.8885,-3.9416,-3.9804,-4.0173,-4.1507,-4.2279,-4.2675,-4.3439,-4.346,-4.3141,-4.3493,-4.3528,-4.3355,-4.2996,-4.2904,-4.2848,-4.2542,-4.2366,-4.2266,-4.2062,-4.1994,-4.1927,-4.1774,-4.1731,-4.1731,-4.1731,-4.1731,-4.1666,-4.1373,-4.1283,-4.1232,-4.0965,-4.0912,-4.0912,-4.0912,-4.0995,-4.1071,-4.1071,-4.1071,-4.1214,-4.1648,-4.1825,-4.2015,-4.2183,-4.2162,-4.2223,-4.2424,-4.2264,-4.2015,-4.1644,-4.1622,-4.167,-4.1803,-4.1888,-4.1994,-4.2142,-4.2142,-4.2142,-4.2142,-4.2322,-4.2501,-4.2714,-4.2422,-4.2541,-4.3032,-4.2769,-4.2788]},{"header":{"parameterUnit":"m.s-1","parameterCategory":1,"la1":30.6,"la2":29.2853,"lo1":-89.7004,"lo2":-87.6739,"dy":0.0162,"dx":0.0183,"nx":112,"ny":82,"refTime":"2024-05-31T06:00:00:Z","depth":0,"parameterNumber":3,"parameterNumberName":"V-component_of_WINDS"},"data":[0.0,0.0,0.0,0.0,0.0,0.0,0.0,0.0,0.0,0.0,0.0,0.0,0.0,0.0,0.0,0.0,0.0,0.0,0.0,0.0,0.0,0.0,0.0,0.0,0.0,0.0,0.0,0.0,0.0,0.0,0.0,0.0,0.0,0.0,0.0,0.0,0.0,0.0,0.0,0.0,0.0,0.0,0.0,0.0,0.0,0.0,0.0,0.0,0.0,0.0,0.0,0.0,0.0,0.0,0.0,0.0,0.0,0.0,0.0,0.0,0.0,0.0,0.0,0.0,0.0,0.0,0.0,0.0,0.0,0.0,0.0,0.0,0.0,0.0,0.0,0.0,0.0,0.0,0.0,0.0,0.0,0.0,0.0,0.0,0.0,0.0,0.0,0.0,0.0,0.0,0.0,0.438,0.4853,0.5143,0.5167,0.5106,0.4833,0.4287,0.0,0.0,0.0,0.0,0.0,0.0,0.0,0.0,0.0,0.0,0.0,0.0,0.0,0.0,0.0,0.0,0.0,0.0,0.0,0.0,0.0,0.0,0.0,0.0,0.0,0.0,0.0,0.0,0.0,0.0,0.0,0.0,0.0,0.0,0.0,0.0,0.0,0.0,0.0,0.0,0.0,0.0,0.0,0.0,0.0,0.0,0.0,0.0,0.0,0.0,0.0,0.0,0.0,0.0,0.0,0.0,0.0,0.0,0.0,0.0,0.0,0.0,0.0,0.0,0.0,0.0,0.0,0.0,0.0,0.0,0.0,0.0,0.0,0.0,0.0,0.0,0.0,0.0,0.0,0.0,0.0,0.0,0.0,0.0,0.0,0.0,0.0,0.0,0.0,0.0,0.0,0.0,0.0,0.0,0.0,0.0,0.0,0.0,0.0,0.0,0.0,0.0,0.0,0.0,0.3821,0.4868,0.5219,0.5412,0.5508,0.5169,0.4802,0.4477,0.0,0.0,0.0,0.0,0.0,0.0,0.0,0.0,0.0,0.0,0.0,0.0,0.0,0.0,0.0,0.0,0.0,0.0,0.0,0.0,0.0,0.0,0.0,0.0,0.0,0.0,0.0,0.0,0.0,0.0,0.0,0.0,0.0,0.0,0.0,0.0,0.0,0.0,0.0,0.0,0.0,0.0,0.0,0.0,0.0,0.0,0.0,0.0,0.0,0.0,0.0,0.0,0.0,0.0,0.0,0.0,0.0,0.0,0.0,0.0,0.0,0.0,0.0,0.0,0.0,0.0,0.0,0.0,0.0,0.0,0.0,0.0,0.0,0.0,0.0,0.0,0.0,0.0,0.0,0.0,0.0,0.0,0.0,0.0,0.0,0.0,0.0,0.0,0.0,0.0,0.0,0.0,0.0,0.0,0.0,0.0,0.0,0.0,0.0,0.0,0.0,0.0,0.0,0.364,0.4078,0.4855,0.5027,0.5156,0.5319,0.4966,0.4667,0.4508,0.3914,0.0,0.0,0.0,0.0,0.0,0.0,0.0,0.0,0.0,0.0,0.0,0.0,0.0,0.0,0.0,0.0,0.0,0.0,0.0,0.0,0.0,0.0,0.0,0.0,0.0,0.0,0.0,0.0,0.0,0.0,0.0,0.0,0.0,0.0,0.0,0.0,0.0,0.0,0.0,0.0,0.0,0.0,0.0,0.0,0.0,0.0,0.0,0.0,0.0,0.0,0.0,0.0,0.0,0.0,0.0,0.0,0.0,0.0,0.0,0.0,0.0,0.0,0.0,0.0,0.0,0.0,0.0,0.0,0.0,0.0,0.0,0.0,0.0,0.0,0.0,0.0,0.0,0.0,0.0,0.0,0.0,0.0,0.0,0.0,0.0,0.0,0.0,0.0,0.0,0.0,0.0,0.0,0.0,0.0,0.0,0.0,0.0,0.0,0.0,0.0,0.0,0.0,0.4129,0.4357,0.4722,0.4797,0.4861,0.5024,0.4734,0.4507,0.4397,0.3731,0.0,0.0,0.0,0.0,0.0,0.0,0.0,0.0,0.0,0.0,0.0,0.0,0.0,0.0,0.0,0.0,0.0,0.0,0.0,0.0,0.0,0.0,0.0,0.0,0.0,0.0,0.0,0.0,0.0,0.0,0.0,0.0,0.0,0.0,0.0,0.0,0.0,0.0,0.0,0.0,0.0,0.0,0.0,0.0,0.0,0.0,0.0,0.0,0.0,0.0,0.0,0.0,0.0,0.0,0.0,0.0,0.0,0.0,0.0,0.0,0.0,0.0,0.0,0.0,0.0,0.0,0.0,0.0,0.0,0.0,0.0,0.0,0.0,0.0,0.0,0.0,0.0,0.0,0.0,0.0,0.0,0.0,0.0,0.0,0.0,0.0,0.0,0.0,0.0,0.0,0.0,0.0,0.0,0.0,0.0,0.0,0.0,0.0,0.0,0.0,0.0,0.0,0.3892,0.4301,0.4599,0.4728,0.4797,0.4827,0.4587,0.4314,0.4058,0.3449,0.0,0.0,0.0,0.0,0.0,0.0,0.0,0.0,0.0,0.0,0.0,0.0,0.0,0.0,0.0,0.0,0.0,0.0,0.0,0.0,0.0,0.0,0.0,0.0,0.0,0.0,0.0,0.0,0.0,0.0,0.0,0.0,0.0,0.0,0.0,0.0,0.0,0.0,0.0,0.0,0.0,0.0,0.0,0.0,0.0,0.0,0.0,0.0,0.0,0.0,0.0,0.0,0.0,0.0,0.0,0.0,0.0,0.0,0.0,0.0,0.0,0.0,0.0,0.0,0.0,0.0,0.0,0.0,0.0,0.0,0.0,0.0,0.0,0.0,0.0,0.0,0.0,0.0,0.0,0.0,0.0,0.0,0.0,0.0,0.0,0.0,0.0,0.0,0.0,0.0,0.0,0.0,0.0,0.0,0.0,0.0,0.0,0.0,0.0,0.0,0.0,0.0,0.3783,0.4069,0.0,0.4464,0.4531,0.4661,0.444,0.4161,0.3887,0.0,0.0,0.0,0.0,0.0,0.0,0.0,0.0,0.0,0.0,0.0,0.0,0.0,0.0,0.0,0.0,0.0,0.0,0.0,0.0,0.0,0.0,0.0,0.0,0.0,0.0,0.0,0.0,0.0,0.0,0.0,0.0,0.0,0.0,0.0,0.0,0.0,0.0,0.0,0.0,0.0,0.0,0.0,0.0,0.0,0.0,0.0,0.0,0.0,0.0,0.0,0.0,0.0,0.0,0.0,0.0,0.0,0.0,0.0,0.0,0.0,0.0,0.0,0.0,0.0,0.0,0.0,0.0,0.0,0.0,0.0,0.0,0.0,0.0,0.0,0.0,0.0,0.0,0.0,0.0,0.0,0.0,0.0,0.0,0.0,0.0,0.0,0.0,0.0,0.0,0.0,0.0,0.0,0.0,0.0,0.0,0.0,0.0,0.0,0.0,0.0,0.0,0.3534,0.3745,0.3936,0.0,0.43,0.435,0.4438,0.4236,0.3958,0.3623,0.0,0.0,0.0,0.0,0.0,0.0,0.0,0.0,0.0,0.0,0.0,0.0,0.0,0.0,0.0,0.0,0.0,0.0,0.0,0.0,0.0,0.0,0.0,0.0,0.0,0.0,0.0,0.0,0.0,0.0,0.0,0.0,0.0,0.0,0.0,0.0,0.0,0.0,0.0,0.0,0.0,0.0,0.0,0.0,0.0,0.0,0.0,0.0,0.0,0.0,0.0,0.0,0.0,0.0,0.0,0.0,0.0,0.0,0.0,0.0,0.0,0.0,0.0,0.0,0.0,0.0,0.0,0.0,0.0,0.0,0.0,0.0,0.0,0.0,0.0,0.0,0.0,0.0,0.0,0.0,0.0,0.0,0.0,0.0,0.0,0.0,0.0,0.0,0.0,0.0,0.0,0.0,0.0,0.0,0.0,0.0,0.0,0.0,0.0,0.0,0.0,0.0,0.3534,0.3789,0.3997,0.4273,0.43,0.4251,0.4094,0.3986,0.3685,0.0,0.0,0.0,0.0,0.0,0.0,0.0,0.0,0.0,0.0,0.0,0.0,0.0,0.0,0.0,0.0,0.0,0.0,0.0,0.0,0.0,0.0,0.0,0.0,0.0,0.0,0.0,0.0,0.0,0.0,0.0,0.0,0.0,0.0,0.0,0.0,0.0,0.0,0.0,0.0,0.0,0.0,0.0,0.0,0.0,0.0,0.0,0.0,0.0,0.0,0.0,0.0,0.0,0.0,0.0,0.0,0.0,0.0,0.0,0.0,0.0,0.0,0.0,0.0,0.0,0.0,0.0,0.0,0.0,0.0,0.0,0.0,0.0,0.0,0.0,0.0,0.0,0.0,0.0,0.0,0.0,0.0,0.0,0.0,0.0,0.0,0.0,0.0,0.0,0.0,0.0,0.0,0.0,0.0,0.0,0.0,0.0,0.0,0.0,0.0,0.0,0.0,0.0,0.3534,0.3789,0.3997,0.4273,0.43,0.4251,0.4094,0.3974,0.3659,0.3083,0.0,0.0,0.0,0.0,0.0,0.0,0.0,0.0,0.0,0.0,0.0,0.0,0.0,0.0,0.0,0.0,0.0,0.0,0.0,0.0,0.0,0.0,0.0,0.0,0.0,0.0,0.0,0.0,0.0,0.0,0.0,0.0,0.0,0.0,0.0,0.0,0.0,0.0,0.0,0.0,0.0,0.0,0.0,0.0,0.0,0.0,0.0,0.0,0.0,0.0,0.0,0.0,0.0,0.0,0.0,0.0,0.0,0.0,0.0,0.0,0.0,0.0,0.0,0.0,0.0,0.0,0.0,0.0,0.0,0.0,0.0,0.0,0.0,0.0,0.0,0.0,0.0,0.0,0.0,0.0,0.0,0.0,0.0,0.0,0.0,0.0,0.0,0.0,0.0,0.0,0.0,0.0,0.0,0.0,0.0,0.0,0.0,0.0,0.0,0.0,0.0,0.0,0.3534,0.3789,0.3997,0.4273,0.43,0.4251,0.4094,0.3973,0.3671,0.3126,0.0,0.0,0.0,0.0,0.0,0.0,0.0,0.0,0.0,0.0,0.0,0.0,0.0,0.0,0.0,0.0,0.0,0.0,0.0,0.0,0.0,0.0,0.0,0.0,0.0,0.0,0.0,0.0,0.0,0.0,0.0,0.0,0.0,0.0,0.0,0.0,0.0,0.0,0.0,0.0,0.0,0.0,0.0,0.0,0.0,0.0,0.0,0.0,0.0,0.0,0.0,0.0,0.0,0.0,0.0,0.0,0.0,0.0,0.0,0.0,0.0,0.0,0.0,0.0,0.0,0.0,0.0,0.0,0.0,0.0,0.0,0.0,0.0,0.0,0.0,0.0,0.0,0.0,0.0,0.0,0.0,0.0,0.0,0.0,0.0,0.0,0.0,0.0,0.0,0.0,0.0,0.0,0.0,0.0,0.0,0.0,0.0,0.0,0.0,0.0,0.0,0.0,0.3534,0.3789,0.3997,0.4273,0.43,0.4251,0.4094,0.3973,0.3706,0.3239,0.0,0.0,0.0,0.0,0.0,0.0,0.0,0.0,0.0,0.0,0.0,0.0,0.0,0.0,0.0,0.0,0.0,0.0,0.0,0.0,0.0,0.0,0.0,0.0,0.0,0.0,0.0,0.0,0.0,0.0,0.0,0.0,0.0,0.0,0.0,0.0,0.0,0.0,0.0,0.0,0.0,0.0,0.0,0.0,0.0,0.0,0.0,0.0,0.0,0.0,0.0,0.0,0.0,0.0,0.0,0.0,0.0,0.0,0.0,0.0,0.2939,0.0,0.0,0.0,0.0,0.0,0.0,0.0,0.0,0.0,0.0,0.0,0.0,0.0,0.0,0.0,0.0,0.0,0.0,0.0,0.0,0.0,0.0,0.0,0.0,0.0,0.0,0.0,0.0,0.0,0.0,0.0,0.0,0.0,0.0,0.0,0.0,0.0,0.0,0.0,0.0,0.0,0.3534,0.3789,0.3997,0.4273,0.43,0.4251,0.4094,0.3973,0.3741,0.3387,0.3049,0.0,0.0,0.0,0.0,0.0,0.0,0.0,0.0,0.0,0.0,0.0,0.0,0.0,0.0,0.0,0.0,0.0,0.0,0.0,0.0,0.0,0.0,0.0,0.0,0.0,0.0,0.0,0.0,0.0,0.0,0.0,0.0,0.0,0.0,0.0,0.0,0.0,0.0,0.0,0.0,0.0,0.0,0.0,0.0,0.0,0.0,0.0,0.0,0.0,0.0,0.0,0.0,0.0,0.0,0.0,0.0,0.0,0.0,0.0,0.0,0.3213,0.0,0.0,0.0,0.0,0.0,0.0,0.0,0.0,0.0,0.0,0.0,0.0,0.0,0.0,0.0,0.0,0.0,0.0,0.0,0.0,0.0,0.0,0.0,0.0,0.0,0.0,0.0,0.0,0.0,0.0,0.0,0.0,0.0,0.0,0.0,0.0,0.0,0.0,0.0,0.0,0.363,0.3873,0.4062,0.4281,0.43,0.4276,0.4211,0.4008,0.38,0.3613,0.326,0.0,0.0,0.0,0.0,0.0,0.0,0.0,0.0,0.0,0.0,0.0,0.0,0.0,0.0,0.0,0.0,0.0,0.0,0.0,0.0,0.0,0.0,0.0,0.0,0.0,0.0,0.0,0.0,0.0,0.0,0.0,0.0,0.0,0.0,0.0,0.0,0.0,0.0,0.0,0.0,0.0,0.0,0.0,0.0,0.0,0.0,0.0,0.0,0.0,0.0,0.0,0.0,0.0,0.4365,0.4474,0.4605,0.4706,0.4753,0.4714,0.3982,0.3757,0.3879,0.349,0.0,0.0,0.0,0.0,0.0,0.0,0.0,0.0,0.0,0.0,0.0,0.0,0.0,0.0,0.0,0.0,0.0,0.0,0.0,0.0,0.0,0.0,0.0,0.0,0.4105,0.4018,0.3398,0.0,0.0,0.0,0.0,0.0,0.0,0.0,0.0,0.0,0.0,0.0,0.3739,0.3966,0.4164,0.4287,0.43,0.43,0.43,0.4043,0.3862,0.3821,0.3449,0.3107,0.0,0.0,0.0,0.0,0.0,0.0,0.0,0.0,0.0,0.0,0.0,0.0,0.0,0.0,0.0,0.0,0.0,0.0,0.0,0.0,0.0,0.0,0.0,0.0,0.0,0.0,0.0,0.0,0.0,0.0,0.0,0.0,0.3944,0.4194,0.0,0.0,0.0,0.0,0.0,0.0,0.0,0.0,0.0,0.0,0.0,0.0,0.0,0.4303,0.4386,0.4577,0.4671,0.4704,0.4825,0.4931,0.4944,0.4961,0.4969,0.4963,0.4852,0.0,0.438,0.3988,0.0,0.0,0.0,0.0,0.0,0.0,0.0,0.0,0.0,0.0,0.0,0.0,0.0,0.0,0.0,0.0,0.0,0.0,0.0,0.0,0.0,0.0,0.4528,0.4451,0.4446,0.4432,0.0,0.3603,0.3033,0.312,0.2802,0.0,0.0,0.0,0.0,0.0,0.0,0.0,0.375,0.3966,0.4164,0.4287,0.43,0.43,0.43,0.4043,0.3897,0.3881,0.3574,0.3308,0.3129,0.2832,0.0,0.0,0.0,0.0,0.0,0.0,0.0,0.0,0.0,0.0,0.0,0.0,0.0,0.0,0.0,0.0,0.0,0.0,0.0,0.0,0.0,0.0,0.0,0.0,0.0,0.0,0.0,0.0,0.0,0.3641,0.4034,0.4127,0.4119,0.3956,0.0,0.0,0.0,0.0,0.0,0.0,0.0,0.0,0.0,0.4394,0.451,0.4722,0.501,0.508,0.5203,0.53,0.5458,0.5515,0.5518,0.5586,0.5619,0.5613,0.5545,0.5388,0.514,0.4609,0.4368,0.4276,0.0,0.0,0.0,0.0,0.3947,0.4051,0.4175,0.4216,0.4205,0.4136,0.0,0.0,0.0,0.0,0.0,0.0,0.0,0.0,0.0,0.0,0.4692,0.4673,0.4727,0.476,0.4689,0.433,0.3925,0.0,0.3493,0.3329,0.3107,0.0,0.0,0.0,0.0,0.3765,0.3936,0.4113,0.424,0.4295,0.43,0.43,0.43,0.4043,0.3903,0.3903,0.3664,0.3449,0.3327,0.3104,0.2841,0.0,0.0,0.0,0.0,0.0,0.0,0.0,0.0,0.0,0.0,0.0,0.0,0.0,0.0,0.0,0.0,0.0,0.0,0.0,0.0,0.0,0.0,0.0,0.0,0.0,0.0,0.0,0.0,0.3854,0.414,0.4063,0.4187,0.4118,0.0,0.0,0.0,0.0,0.0,0.0,0.4253,0.4444,0.4662,0.4963,0.5019,0.5235,0.5544,0.558,0.5643,0.5825,0.5909,0.595,0.5953,0.6043,0.6086,0.6081,0.5988,0.5901,0.5779,0.5205,0.4882,0.4772,0.4613,0.4493,0.4395,0.4425,0.449,0.458,0.4739,0.4783,0.4772,0.4709,0.4577,0.445,0.4234,0.0,0.0,0.0,0.0,0.4395,0.4599,0.478,0.4898,0.495,0.5042,0.5083,0.4991,0.4909,0.4717,0.0,0.4145,0.4056,0.3577,0.0,0.0,0.0,0.0,0.4029,0.4153,0.427,0.4333,0.4303,0.43,0.43,0.43,0.4043,0.3903,0.3903,0.3713,0.3545,0.3452,0.333,0.3126,0.2827,0.0,0.0,0.0,0.0,0.0,0.0,0.0,0.0,0.0,0.0,0.0,0.0,0.0,0.0,0.0,0.0,0.0,0.0,0.0,0.0,0.0,0.0,0.0,0.0,0.0,0.0,0.0,0.0,0.0,0.4231,0.4544,0.0,0.0,0.0,0.0,0.4238,0.4397,0.4539,0.4747,0.5015,0.5203,0.538,0.5673,0.5858,0.5877,0.5991,0.6056,0.6067,0.6075,0.6075,0.6078,0.6083,0.6086,0.6086,0.6078,0.6072,0.6032,0.5585,0.5208,0.4985,0.4825,0.4741,0.4684,0.4765,0.4774,0.4795,0.4955,0.4999,0.5015,0.5118,0.5072,0.498,0.4966,0.48,0.0,0.0,0.4844,0.4999,0.5118,0.5281,0.5375,0.5383,0.5388,0.5391,0.5385,0.5252,0.5023,0.0,0.4482,0.4443,0.427,0.0,0.4126,0.4238,0.427,0.4284,0.4289,0.439,0.4454,0.4311,0.43,0.43,0.43,0.4043,0.3903,0.3903,0.3713,0.361,0.3602,0.3458,0.333,0.3169,0.2846,0.0,0.0,0.0,0.0,0.0,0.0,0.0,0.0,0.0,0.0,0.0,0.0,0.0,0.0,0.0,0.0,0.0,0.0,0.0,0.0,0.0,0.0,0.0,0.0,0.0,0.0,0.0,0.0,0.4239,0.4556,0.0,0.4408,0.4482,0.4561,0.4604,0.4896,0.5121,0.5246,0.5518,0.5703,0.5825,0.5953,0.6059,0.6138,0.6181,0.6241,0.6312,0.6312,0.6312,0.6312,0.6312,0.6312,0.6312,0.6312,0.6271,0.6237,0.6065,0.5806,0.5583,0.554,0.545,0.5352,0.5354,0.5416,0.5518,0.5445,0.5435,0.5416,0.5341,0.5276,0.5243,0.5243,0.5221,0.5164,0.5167,0.5211,0.5252,0.5333,0.5377,0.541,0.541,0.541,0.541,0.541,0.5377,0.5295,0.5123,0.486,0.4643,0.4442,0.4473,0.4484,0.4449,0.4512,0.4564,0.4564,0.4528,0.449,0.4449,0.4344,0.43,0.43,0.4043,0.3903,0.3903,0.3713,0.3613,0.3613,0.3542,0.346,0.3338,0.3131,0.2813,0.0,0.0,0.0,0.0,0.0,0.0,0.0,0.0,0.0,0.0,0.0,0.0,0.0,0.0,0.0,0.0,0.0,0.0,0.0,0.0,0.0,0.0,0.0,0.0,0.0,0.0,0.4221,0.4344,0.4711,0.4961,0.4879,0.5018,0.5114,0.5151,0.5415,0.5602,0.568,0.5918,0.6064,0.6146,0.6184,0.6244,0.6325,0.6325,0.6363,0.6387,0.6387,0.6387,0.6387,0.6387,0.6387,0.6387,0.6387,0.6393,0.6325,0.6325,0.6227,0.6075,0.5996,0.5918,0.5852,0.5852,0.5899,0.5953,0.588,0.5825,0.5763,0.5602,0.5523,0.5494,0.5494,0.5494,0.5494,0.5494,0.5494,0.5494,0.5494,0.5494,0.5494,0.5494,0.5494,0.5494,0.5494,0.5461,0.5431,0.5431,0.5173,0.4901,0.4777,0.475,0.4736,0.4662,0.4689,0.475,0.475,0.4643,0.4561,0.4512,0.4435,0.4341,0.4303,0.4043,0.3903,0.3903,0.3713,0.3613,0.3613,0.3613,0.3547,0.3466,0.3239,0.2961,0.2623,0.0,0.0,0.0,0.0,0.0,0.0,0.0,0.0,0.0,0.0,0.0,0.0,0.0,0.0,0.0,0.0,0.0,0.0,0.0,0.0,0.0,0.0,0.0,0.3646,0.4251,0.4657,0.455,0.5127,0.5424,0.5238,0.5534,0.5745,0.5899,0.5912,0.5966,0.6086,0.6208,0.6322,0.6322,0.638,0.6387,0.6387,0.6387,0.6387,0.6387,0.6387,0.6387,0.6387,0.6387,0.6387,0.6387,0.6387,0.6387,0.6387,0.6387,0.6387,0.6363,0.6184,0.6097,0.6097,0.6097,0.6094,0.6092,0.6092,0.601,0.5909,0.5909,0.5833,0.5699,0.5699,0.5699,0.5699,0.5699,0.5696,0.5694,0.5694,0.5691,0.5688,0.5688,0.5688,0.5688,0.5688,0.5597,0.5513,0.5513,0.536,0.5195,0.5186,0.4996,0.4847,0.4999,0.4876,0.0,0.4801,0.4798,0.4743,0.4542,0.4512,0.4462,0.4317,0.4048,0.3908,0.3903,0.3713,0.3613,0.3613,0.3613,0.3613,0.3613,0.321,0.2972,0.2895,0.0,0.0,0.0,0.0,0.0,0.0,0.0,0.0,0.0,0.0,0.0,0.0,0.0,0.0,0.0,0.0,0.0,0.0,0.0,0.0,0.0,0.0,0.4394,0.4394,0.4605,0.4901,0.5176,0.5464,0.568,0.5828,0.5928,0.6002,0.6034,0.6119,0.6184,0.6265,0.6328,0.6391,0.6391,0.6371,0.6387,0.6387,0.6387,0.6387,0.6387,0.6387,0.6387,0.6387,0.6387,0.6387,0.6387,0.6387,0.6387,0.6387,0.6387,0.6387,0.6379,0.6314,0.6339,0.6339,0.6339,0.6287,0.6268,0.6268,0.6138,0.6034,0.6034,0.6013,0.5988,0.5988,0.5988,0.5988,0.5988,0.5926,0.5855,0.5855,0.5795,0.5688,0.5688,0.5688,0.5688,0.5688,0.5661,0.564,0.564,0.5516,0.5351,0.5216,0.5132,0.5072,0.5023,0.4949,0.0,0.4928,0.4852,0.4771,0.4704,0.4692,0.4588,0.4468,0.4205,0.3997,0.3911,0.3713,0.3613,0.3613,0.3613,0.3613,0.3613,0.3314,0.3088,0.0,0.0,0.0,0.0,0.0,0.0,0.0,0.0,0.0,0.0,0.0,0.0,0.0,0.0,0.0,0.0,0.0,0.0,0.0,0.0,0.0,0.0,0.4501,0.4817,0.5069,0.5121,0.5216,0.5545,0.5822,0.601,0.6149,0.6206,0.6233,0.6233,0.6298,0.6339,0.6339,0.6401,0.6387,0.6387,0.6387,0.6387,0.6387,0.6387,0.6387,0.6387,0.6387,0.6387,0.6387,0.6387,0.6387,0.6387,0.6387,0.6387,0.6387,0.6387,0.6387,0.0,0.0,0.0,0.0,0.0,0.6393,0.6339,0.6339,0.626,0.6162,0.6162,0.6127,0.6086,0.6086,0.6086,0.6086,0.6086,0.6034,0.5977,0.5977,0.5893,0.5803,0.5803,0.5723,0.5688,0.5688,0.5688,0.5688,0.5688,0.5632,0.0,0.5371,0.5298,0.5222,0.5105,0.5089,0.5069,0.5023,0.4917,0.4852,0.4801,0.477,0.4695,0.452,0.43,0.0,0.0,0.0,0.3662,0.3613,0.3613,0.0,0.0,0.0,0.0,0.0,0.0,0.0,0.0,0.3017,0.2974,0.0,0.0,0.0,0.0,0.0,0.0,0.0,0.0,0.0,0.0,0.0,0.0,0.0,0.0,0.0,0.0,0.4838,0.5087,0.5632,0.564,0.5626,0.5737,0.6075,0.6322,0.6287,0.6377,0.6387,0.6387,0.6387,0.6387,0.6387,0.0,0.0,0.0,0.0,0.6387,0.6387,0.6387,0.6387,0.6387,0.6387,0.6387,0.6387,0.6387,0.6387,0.6387,0.6387,0.6387,0.6387,0.6387,0.6387,0.6387,0.6387,0.6387,0.6387,0.6387,0.6387,0.6387,0.6387,0.0,0.0,0.6287,0.6214,0.6124,0.6124,0.6124,0.6124,0.6124,0.6116,0.6108,0.6108,0.6015,0.592,0.5907,0.5825,0.5704,0.5691,0.5688,0.5688,0.5688,0.5688,0.5653,0.5545,0.5469,0.5344,0.5208,0.5186,0.5146,0.5031,0.5018,0.4936,0.4828,0.0,0.0,0.4566,0.4393,0.4221,0.3959,0.3849,0.3758,0.3629,0.3623,0.3623,0.3623,0.3623,0.3623,0.3623,0.3623,0.3704,0.3788,0.3243,0.3169,0.0,0.0,0.0,0.0,0.0,0.0,0.0,0.0,0.0,0.0,0.0,0.0,0.0,0.0,0.0,0.5031,0.5352,0.5588,0.5841,0.6018,0.614,0.6162,0.6276,0.6304,0.6393,0.6373,0.6387,0.6387,0.6387,0.6387,0.6387,0.6387,0.6387,0.6387,0.6387,0.6387,0.6387,0.6387,0.6387,0.6387,0.0,0.0,0.6387,0.6387,0.6387,0.6387,0.6387,0.6387,0.6387,0.6387,0.6387,0.6387,0.6387,0.6387,0.6387,0.6387,0.6387,0.6387,0.6387,0.6373,0.6404,0.6404,0.6388,0.6319,0.6319,0.6319,0.0,0.6319,0.6304,0.6281,0.6281,0.6143,0.6026,0.5926,0.5885,0.5844,0.571,0.5688,0.5688,0.5688,0.5688,0.5683,0.5659,0.5553,0.5397,0.5219,0.5186,0.5146,0.5031,0.5018,0.501,0.4947,0.4944,0.4884,0.4739,0.4564,0.4379,0.4238,0.4023,0.386,0.3838,0.3838,0.3838,0.3838,0.3838,0.3838,0.3838,0.3838,0.3849,0.3865,0.3709,0.3701,0.0,0.0,0.0,0.0,0.0,0.0,0.0,0.0,0.0,0.0,0.0,0.4238,0.0,0.0,0.5108,0.5412,0.5662,0.5882,0.6062,0.624,0.6317,0.6317,0.632,0.6374,0.6381,0.6387,0.6387,0.6387,0.6387,0.6387,0.6387,0.6387,0.6387,0.6387,0.6387,0.6387,0.6387,0.6387,0.6387,0.6387,0.6387,0.6387,0.6387,0.6387,0.6387,0.6387,0.6387,0.6387,0.6387,0.6387,0.6387,0.6387,0.6387,0.6387,0.6387,0.6387,0.6387,0.6387,0.6387,0.6387,0.6387,0.6387,0.6387,0.6387,0.6387,0.6387,0.6387,0.6387,0.6396,0.6352,0.6352,0.6265,0.6162,0.61,0.5991,0.5888,0.5831,0.5729,0.5688,0.5688,0.5688,0.5688,0.5688,0.564,0.5537,0.5354,0.5317,0.5235,0.5118,0.5053,0.5018,0.5018,0.5018,0.493,0.4806,0.4558,0.4336,0.4216,0.4005,0.3903,0.3903,0.3903,0.3903,0.3903,0.3903,0.3903,0.3903,0.3903,0.3935,0.3994,0.3963,0.3969,0.0,0.0,0.0,0.0,0.0,0.0,0.0,0.0,0.4057,0.4368,0.4529,0.4744,0.5026,0.5197,0.5396,0.5672,0.5882,0.6043,0.6289,0.6287,0.6301,0.6301,0.6382,0.6387,0.6387,0.6387,0.6387,0.6387,0.6387,0.6387,0.6387,0.6387,0.6387,0.6387,0.6387,0.6387,0.6387,0.6387,0.6387,0.6387,0.6387,0.6387,0.6387,0.6387,0.6387,0.6387,0.6387,0.6387,0.6387,0.6387,0.6387,0.6387,0.6387,0.6387,0.6387,0.6387,0.6387,0.6387,0.6387,0.6387,0.6387,0.6387,0.6387,0.6387,0.6387,0.6387,0.6387,0.6387,0.6387,0.6387,0.6387,0.6369,0.6295,0.6322,0.6119,0.5961,0.5912,0.5831,0.5715,0.5694,0.5688,0.5688,0.5688,0.5688,0.5648,0.5526,0.5466,0.5352,0.5205,0.5105,0.5042,0.5021,0.5018,0.493,0.4806,0.4548,0.4317,0.4194,0.404,0.3976,0.3976,0.3976,0.3976,0.3976,0.3976,0.3976,0.3976,0.3976,0.4024,0.4153,0.4153,0.4153,0.3346,0.3422,0.3555,0.3733,0.3806,0.3967,0.0,0.0,0.4662,0.4885,0.5026,0.5154,0.5342,0.5518,0.5675,0.586,0.6078,0.6287,0.6314,0.6355,0.6368,0.6368,0.6379,0.6387,0.6387,0.6387,0.6387,0.6387,0.6387,0.6387,0.6387,0.6387,0.6387,0.6387,0.6387,0.6387,0.6387,0.6387,0.6387,0.6387,0.6387,0.6387,0.6387,0.6387,0.6387,0.6387,0.6387,0.6387,0.6387,0.6387,0.6387,0.6387,0.6387,0.6387,0.6387,0.6387,0.6387,0.6387,0.6387,0.6387,0.6387,0.6387,0.6387,0.6387,0.6387,0.6387,0.6387,0.6387,0.6387,0.6387,0.6387,0.6376,0.6393,0.6293,0.6295,0.6168,0.595,0.5893,0.5852,0.571,0.5688,0.5688,0.5688,0.5688,0.5648,0.5526,0.5497,0.5405,0.5216,0.5175,0.5129,0.5029,0.5018,0.493,0.4806,0.47,0.4597,0.4473,0.4322,0.4259,0.4259,0.4259,0.4259,0.4259,0.4259,0.4259,0.4259,0.4259,0.4268,0.4278,0.4278,0.4278,0.3691,0.38,0.3936,0.0,0.427,0.4507,0.4828,0.4953,0.5034,0.5235,0.5324,0.5436,0.5559,0.5776,0.5956,0.0,0.6211,0.6366,0.6366,0.6407,0.6387,0.6387,0.6387,0.6387,0.6387,0.6387,0.6387,0.6387,0.6387,0.6387,0.6387,0.6387,0.6387,0.6387,0.6387,0.6387,0.6387,0.6387,0.6387,0.6387,0.6387,0.6387,0.6387,0.6387,0.6387,0.6387,0.6387,0.6387,0.6387,0.6387,0.6387,0.6387,0.6387,0.6387,0.6387,0.6387,0.6387,0.6387,0.6387,0.6387,0.6387,0.6387,0.6387,0.6387,0.6387,0.6387,0.6387,0.6387,0.6387,0.6387,0.6387,0.6387,0.6376,0.6377,0.6317,0.6289,0.6138,0.6059,0.5975,0.5855,0.5833,0.5812,0.5699,0.5688,0.5672,0.5621,0.5551,0.5445,0.5317,0.523,0.5143,0.5029,0.5018,0.493,0.4806,0.4787,0.4675,0.4517,0.446,0.4371,0.4303,0.43,0.43,0.43,0.43,0.43,0.43,0.43,0.4336,0.4398,0.4398,0.4471,0.3881,0.404,0.0,0.4409,0.4692,0.4933,0.5087,0.5227,0.5347,0.5516,0.5559,0.5583,0.5672,0.5899,0.6045,0.6081,0.6257,0.6401,0.6381,0.6387,0.6387,0.6387,0.6387,0.6387,0.6387,0.6387,0.6387,0.6387,0.6387,0.6387,0.6387,0.6387,0.64,0.6435,0.6435,0.6452,0.6487,0.6487,0.6487,0.6487,0.6487,0.6468,0.6435,0.64,0.6387,0.6387,0.6387,0.6387,0.6387,0.6387,0.6387,0.6387,0.6387,0.6387,0.6387,0.6387,0.6387,0.6387,0.6387,0.6387,0.6387,0.6387,0.6387,0.6387,0.6387,0.6387,0.6387,0.6387,0.6387,0.6387,0.6387,0.6387,0.6387,0.6387,0.6374,0.6306,0.6325,0.6246,0.61,0.5977,0.5926,0.5877,0.5795,0.571,0.5688,0.5688,0.5613,0.5513,0.5434,0.5284,0.5143,0.5029,0.5018,0.4941,0.4855,0.4817,0.4723,0.4583,0.4575,0.4503,0.4352,0.4346,0.4346,0.4346,0.4346,0.4363,0.4398,0.4398,0.4473,0.4555,0.4555,0.4621,0.3903,0.0,0.4553,0.4723,0.4996,0.5238,0.5437,0.5494,0.5532,0.5659,0.5683,0.5686,0.5688,0.5831,0.5947,0.6067,0.6192,0.6312,0.6371,0.6387,0.6387,0.6387,0.6387,0.6387,0.0,0.6387,0.6387,0.6387,0.6387,0.6387,0.6387,0.6387,0.6441,0.6608,0.6613,0.6671,0.679,0.679,0.679,0.679,0.679,0.6728,0.6608,0.6441,0.6387,0.6387,0.6387,0.6387,0.6387,0.6387,0.6387,0.6387,0.6387,0.6387,0.6387,0.6387,0.6387,0.6387,0.6387,0.6387,0.6387,0.6387,0.6387,0.6387,0.6387,0.6387,0.6387,0.6387,0.6387,0.6387,0.6387,0.6387,0.6387,0.6387,0.6384,0.6401,0.6293,0.6314,0.6276,0.6105,0.5986,0.5901,0.5899,0.5806,0.5688,0.5688,0.5686,0.564,0.5518,0.5336,0.5143,0.5029,0.5018,0.5015,0.5012,0.4866,0.4793,0.4785,0.4713,0.4627,0.4503,0.4498,0.4498,0.4498,0.4498,0.4558,0.4679,0.4679,0.4681,0.4684,0.4684,0.475,0.4325,0.0,0.4787,0.5108,0.5309,0.5429,0.5591,0.5626,0.5615,0.5578,0.557,0.5543,0.5507,0.5654,0.5828,0.5945,0.6135,0.6309,0.6371,0.6387,0.6387,0.6387,0.6387,0.0,0.0,0.0,0.0,0.6387,0.6387,0.6387,0.6387,0.6462,0.6578,0.6619,0.6698,0.676,0.6801,0.6801,0.6801,0.6801,0.6801,0.6782,0.6738,0.6698,0.6679,0.6673,0.6592,0.6556,0.65,0.6419,0.6387,0.6387,0.6387,0.6387,0.6387,0.6387,0.6387,0.6387,0.6387,0.6387,0.6387,0.6387,0.6387,0.6387,0.6387,0.6387,0.6387,0.6387,0.6387,0.6387,0.6387,0.6387,0.6387,0.6387,0.6387,0.6376,0.6388,0.638,0.6344,0.623,0.6173,0.6094,0.5931,0.5871,0.582,0.5699,0.5621,0.5553,0.5513,0.5339,0.5173,0.5135,0.5061,0.5018,0.5018,0.4941,0.4882,0.4801,0.4795,0.4719,0.4632,0.4627,0.4627,0.4627,0.4627,0.4649,0.469,0.469,0.4731,0.4773,0.4773,0.4838,0.461,0.4836,0.5037,0.5355,0.5483,0.5594,0.5672,0.5656,0.5591,0.547,0.5408,0.5385,0.5265,0.5371,0.5516,0.5803,0.5975,0.6162,0.6352,0.6387,0.6387,0.6387,0.6387,0.6387,0.0,0.0,0.0,0.6387,0.6387,0.6406,0.6449,0.6578,0.666,0.6747,0.6825,0.6888,0.6929,0.6929,0.6929,0.6929,0.6888,0.6866,0.6866,0.6823,0.6801,0.6796,0.6673,0.6619,0.6608,0.6435,0.6387,0.6387,0.6387,0.6387,0.6387,0.6387,0.6387,0.6387,0.6387,0.6387,0.6387,0.6387,0.6387,0.6387,0.6387,0.6387,0.6387,0.6387,0.6387,0.6387,0.6387,0.6387,0.6387,0.6387,0.6387,0.6387,0.6387,0.6387,0.6365,0.6342,0.6295,0.6254,0.6002,0.5899,0.5817,0.5699,0.5621,0.5556,0.5513,0.537,0.5284,0.5197,0.5121,0.5061,0.5021,0.5018,0.4944,0.4866,0.486,0.4844,0.4722,0.4753,0.4753,0.4753,0.4753,0.4777,0.4821,0.4821,0.4822,0.486,0.486,0.4903,0.4755,0.5029,0.5262,0.5456,0.5605,0.5688,0.568,0.5586,0.5459,0.5368,0.5284,0.5124,0.0,0.0,0.513,0.5597,0.5691,0.5866,0.6322,0.6387,0.6387,0.0,0.0,0.0,0.0,0.0,0.0,0.6395,0.0,0.6446,0.6613,0.663,0.6744,0.6978,0.6991,0.7046,0.721,0.721,0.721,0.721,0.7046,0.6994,0.6989,0.6874,0.682,0.6815,0.6692,0.6638,0.6627,0.6449,0.6395,0.6395,0.6389,0.6387,0.6387,0.6387,0.6387,0.6387,0.6387,0.6387,0.6387,0.6387,0.6387,0.6387,0.6387,0.6387,0.6387,0.6387,0.6387,0.6387,0.6387,0.6387,0.6387,0.6387,0.6387,0.6387,0.6387,0.6387,0.6387,0.6387,0.6344,0.6279,0.6108,0.5893,0.5696,0.5691,0.5688,0.5648,0.5532,0.551,0.5419,0.523,0.5195,0.5143,0.5034,0.5021,0.5018,0.5018,0.5018,0.4928,0.4812,0.4806,0.4806,0.4806,0.4806,0.4863,0.5018,0.5018,0.5018,0.5018,0.5018,0.5018,0.5143,0.5344,0.5451,0.5605,0.5667,0.5664,0.5575,0.5504,0.533,0.5031,0.4874,0.4761,0.0,0.0,0.0,0.5415,0.5763,0.0,0.6344,0.6387,0.0,0.6387,0.0,0.6387,0.6387,0.6387,0.0,0.0,0.6573,0.6586,0.6619,0.6793,0.6921,0.6983,0.7122,0.718,0.721,0.721,0.721,0.721,0.718,0.7166,0.7166,0.7133,0.7119,0.7114,0.6942,0.6893,0.6874,0.6662,0.6573,0.6562,0.6422,0.6387,0.6387,0.6387,0.6387,0.6387,0.6387,0.6387,0.6387,0.6387,0.6387,0.6387,0.6387,0.6387,0.6387,0.6387,0.6387,0.6387,0.6387,0.6387,0.6387,0.6387,0.6387,0.6387,0.6387,0.6387,0.6387,0.6387,0.6344,0.6279,0.6108,0.5961,0.5831,0.5702,0.5688,0.5677,0.5648,0.5564,0.5483,0.5421,0.5295,0.5175,0.5146,0.5064,0.5018,0.5018,0.5018,0.5004,0.4933,0.4933,0.4933,0.4933,0.4933,0.4947,0.5018,0.5018,0.5018,0.5018,0.5018,0.5018,0.5379,0.5494,0.5605,0.5672,0.5648,0.5564,0.5389,0.5257,0.5031,0.4675,0.4504,0.0,0.4175,0.0,0.0,0.0,0.0,0.0,0.6314,0.6404,0.6387,0.0,0.6387,0.0,0.646,0.6465,0.6567,0.0,0.6649,0.6665,0.6774,0.691,0.7008,0.7114,0.7177,0.721,0.721,0.721,0.721,0.721,0.721,0.721,0.721,0.721,0.721,0.7204,0.0,0.6986,0.6967,0.6719,0.6619,0.6605,0.6433,0.6387,0.6387,0.6387,0.6387,0.6387,0.6387,0.6387,0.6387,0.6387,0.6387,0.6387,0.6387,0.6387,0.6387,0.6387,0.6387,0.6387,0.6387,0.6387,0.6387,0.6387,0.6387,0.6387,0.6387,0.6387,0.6387,0.6387,0.6344,0.6295,0.6179,0.6021,0.5882,0.5817,0.5721,0.5688,0.5688,0.5629,0.5567,0.5513,0.5386,0.5303,0.5197,0.5129,0.5069,0.5021,0.5018,0.5018,0.5018,0.5018,0.5018,0.5018,0.5018,0.5018,0.5018,0.5018,0.5018,0.5018,0.5018,0.5018,0.5499,0.5607,0.5688,0.5688,0.5597,0.544,0.5222,0.498,0.4666,0.4327,0.0,0.4031,0.3881,0.4113,0.4452,0.4917,0.0,0.5675,0.62,0.6352,0.6371,0.6384,0.6387,0.6433,0.6608,0.6619,0.6676,0.6817,0.6728,0.676,0.6975,0.6999,0.7054,0.7207,0.721,0.721,0.721,0.721,0.721,0.721,0.721,0.721,0.721,0.721,0.721,0.7204,0.7051,0.7008,0.6989,0.676,0.666,0.6632,0.6457,0.64,0.6387,0.6387,0.6387,0.6387,0.6387,0.6387,0.6387,0.6387,0.6387,0.6387,0.6387,0.6387,0.6387,0.6387,0.6387,0.6387,0.6387,0.6387,0.6387,0.6387,0.6387,0.6387,0.6387,0.6387,0.6387,0.6387,0.6358,0.6287,0.632,0.6078,0.592,0.5907,0.5806,0.5688,0.5688,0.5688,0.5648,0.5543,0.5518,0.5421,0.5252,0.5219,0.5162,0.5048,0.504,0.5031,0.5018,0.5018,0.5018,0.5018,0.5018,0.5018,0.5018,0.5018,0.5018,0.5018,0.5018,0.5018,0.5623,0.5672,0.5688,0.5688,0.5597,0.5419,0.5124,0.4857,0.0,0.0,0.3901,0.381,0.3667,0.4004,0.4425,0.4769,0.0,0.0,0.0,0.0,0.6331,0.0,0.0,0.0,0.0,0.0,0.0,0.0,0.0,0.694,0.6983,0.7128,0.7191,0.721,0.721,0.721,0.721,0.721,0.721,0.721,0.721,0.721,0.721,0.721,0.721,0.721,0.7188,0.0,0.7169,0.6978,0.6861,0.6757,0.6635,0.6473,0.6387,0.6387,0.6387,0.6387,0.6387,0.6387,0.6387,0.6387,0.6387,0.6387,0.6387,0.6387,0.6387,0.6387,0.6387,0.6387,0.6387,0.6387,0.6387,0.6387,0.6387,0.6387,0.6387,0.6387,0.6387,0.6387,0.6371,0.6377,0.6333,0.6149,0.6021,0.5918,0.5806,0.5688,0.5688,0.5688,0.568,0.5659,0.5567,0.5491,0.5448,0.5396,0.5328,0.5165,0.5156,0.5113,0.5021,0.5018,0.5018,0.5018,0.5018,0.5018,0.5018,0.5018,0.5018,0.5018,0.5018,0.5018,0.5656,0.5688,0.5688,0.5688,0.5502,0.5268,0.4909,0.0,0.0,0.0,0.3705,0.3676,0.3621,0.0,0.0,0.0,0.0,0.0,0.0,0.0,0.0,0.0,0.0,0.0,0.0,0.0,0.0,0.0,0.0,0.7128,0.7128,0.718,0.721,0.721,0.721,0.721,0.721,0.721,0.721,0.721,0.721,0.721,0.721,0.721,0.721,0.721,0.721,0.721,0.7202,0.7032,0.6912,0.679,0.6668,0.6495,0.6387,0.6387,0.6387,0.6387,0.6387,0.6387,0.6387,0.6387,0.6387,0.6387,0.6387,0.6387,0.6387,0.6387,0.6387,0.6387,0.6387,0.6387,0.6387,0.6387,0.6387,0.6387,0.6387,0.6387,0.6387,0.6387,0.6387,0.6371,0.6366,0.6257,0.6159,0.6102,0.5937,0.582,0.582,0.5726,0.5688,0.5688,0.5637,0.5575,0.5513,0.5454,0.5412,0.5331,0.5222,0.5162,0.5108,0.5048,0.5018,0.5018,0.5018,0.5018,0.5018,0.5018,0.5018,0.5018,0.5018,0.5048,0.5623,0.5669,0.5688,0.5688,0.5458,0.5131,0.4772,0.4376,0.0,0.0,0.3613,0.3613,0.3613,0.0,0.0,0.0,0.0,0.0,0.0,0.0,0.0,0.0,0.0,0.0,0.0,0.0,0.0,0.0,0.0,0.721,0.721,0.721,0.721,0.721,0.721,0.721,0.721,0.721,0.721,0.721,0.721,0.721,0.721,0.721,0.721,0.721,0.721,0.721,0.7202,0.7114,0.6934,0.6793,0.6698,0.6567,0.6387,0.6387,0.6387,0.6387,0.6387,0.6387,0.6387,0.6387,0.6387,0.6387,0.6387,0.6387,0.6387,0.6387,0.6387,0.6387,0.6387,0.6387,0.6387,0.6387,0.6387,0.6387,0.6387,0.6387,0.6387,0.6387,0.6387,0.6387,0.6387,0.6342,0.6317,0.6317,0.6083,0.5931,0.5907,0.5825,0.5715,0.5691,0.5688,0.565,0.5556,0.5545,0.5494,0.5415,0.5317,0.5252,0.5227,0.514,0.5094,0.5094,0.5094,0.5094,0.5094,0.5094,0.5094,0.5094,0.5094,0.514,0.5521,0.5605,0.5688,0.5688,0.5458,0.5131,0.4772,0.0,0.0,0.3659,0.3613,0.3613,0.3613,0.3715,0.0,0.0,0.0,0.4955,0.0,0.0,0.0,0.0,0.0,0.0,0.0,0.0,0.0,0.0,0.0,0.721,0.721,0.721,0.721,0.721,0.721,0.721,0.721,0.721,0.721,0.721,0.721,0.721,0.721,0.721,0.721,0.721,0.721,0.721,0.0,0.7199,0.7008,0.6801,0.679,0.6641,0.6387,0.6387,0.6387,0.6387,0.6387,0.6387,0.6387,0.6387,0.6387,0.6387,0.6387,0.6387,0.6387,0.6387,0.6387,0.6387,0.6387,0.6387,0.6387,0.6387,0.6387,0.6387,0.6387,0.6387,0.6387,0.6387,0.6387,0.6387,0.6387,0.6342,0.6317,0.6317,0.6154,0.6029,0.5918,0.5893,0.5847,0.5699,0.5688,0.5686,0.5675,0.5672,0.5621,0.5499,0.5481,0.5427,0.5399,0.5383,0.5377,0.5377,0.5377,0.5377,0.5377,0.5377,0.5377,0.5377,0.5377,0.5383,0.5448,0.5597,0.5688,0.5688,0.5407,0.501,0.4755,0.0,0.3895,0.3642,0.3613,0.3613,0.3613,0.3649,0.3775,0.4034,0.4159,0.4447,0.5062,0.0,0.0,0.0,0.0,0.0,0.0,0.0,0.0,0.0,0.0,0.721,0.721,0.721,0.721,0.721,0.721,0.721,0.721,0.721,0.721,0.721,0.721,0.721,0.721,0.721,0.721,0.721,0.721,0.721,0.0,0.721,0.7016,0.6801,0.6801,0.6651,0.6387,0.6387,0.6387,0.6387,0.6387,0.6387,0.6387,0.6387,0.6387,0.6387,0.6387,0.6387,0.6387,0.6387,0.6387,0.6387,0.6387,0.6387,0.6387,0.6387,0.6387,0.6387,0.6387,0.6387,0.6387,0.6387,0.6387,0.6387,0.6387,0.6399,0.6369,0.6369,0.6271,0.6151,0.6029,0.5947,0.5858,0.5702,0.5688,0.5688,0.5688,0.5688,0.5667,0.5618,0.5548,0.5486,0.548,0.5409,0.541,0.541,0.541,0.541,0.541,0.541,0.541,0.541,0.541,0.5409,0.5273,0.5464,0.5627,0.5627,0.529,0.4898,0.0,0.4254,0.3838,0.3634,0.3613,0.3613,0.3613,0.3613,0.3648,0.3849,0.3911,0.4167,0.4766,0.0,0.0,0.0,0.0,0.0,0.0,0.0,0.0,0.0,0.0,0.0,0.721,0.721,0.721,0.721,0.721,0.721,0.721,0.721,0.721,0.721,0.721,0.721,0.721,0.721,0.721,0.721,0.721,0.7191,0.0,0.7161,0.6964,0.6749,0.6749,0.6622,0.6387,0.6387,0.6387,0.6387,0.6387,0.6387,0.6387,0.6387,0.6387,0.6387,0.6387,0.6387,0.6387,0.6387,0.6387,0.6387,0.6387,0.6387,0.6387,0.6387,0.6387,0.6387,0.6387,0.6387,0.6387,0.6387,0.6387,0.6387,0.6387,0.6387,0.6387,0.6387,0.6369,0.626,0.6105,0.601,0.5899,0.5704,0.5688,0.5688,0.5688,0.5688,0.5688,0.5688,0.5607,0.5561,0.5561,0.5523,0.5477,0.5477,0.5477,0.5477,0.5477,0.5477,0.5477,0.5477,0.5477,0.5523,0.5029,0.5195,0.5416,0.5416,0.5102,0.4736,0.0,0.4194,0.3838,0.3634,0.3613,0.3613,0.3613,0.3613,0.3652,0.3767,0.3958,0.4325,0.4931,0.0,0.0,0.0,0.0,0.0,0.0,0.0,0.0,0.0,0.0,0.0,0.721,0.721,0.721,0.721,0.721,0.721,0.721,0.721,0.721,0.721,0.721,0.721,0.721,0.721,0.721,0.721,0.721,0.7147,0.0,0.6986,0.6842,0.6622,0.6622,0.6495,0.6387,0.6387,0.6387,0.6387,0.6387,0.6387,0.6387,0.6387,0.6387,0.6387,0.6387,0.6387,0.6387,0.6387,0.6387,0.6387,0.6387,0.6387,0.6387,0.6387,0.6387,0.6387,0.6387,0.6387,0.6387,0.6387,0.6387,0.6387,0.6387,0.6387,0.6387,0.6387,0.6384,0.635,0.6116,0.6083,0.5994,0.5715,0.5688,0.5688,0.5688,0.5688,0.5688,0.5688,0.5688,0.5688,0.5688,0.5686,0.5686,0.5686,0.5686,0.5686,0.5686,0.5686,0.5686,0.5686,0.5686,0.5686,0.4938,0.5044,0.5173,0.5091,0.4748,0.4428,0.4265,0.4012,0.3797,0.3643,0.3613,0.3613,0.3613,0.3613,0.3731,0.4066,0.4191,0.0,0.0,0.0,0.0,0.0,0.0,0.0,0.0,0.0,0.0,0.0,0.0,0.721,0.721,0.721,0.721,0.721,0.721,0.721,0.721,0.721,0.721,0.721,0.721,0.721,0.721,0.721,0.721,0.7204,0.7128,0.7018,0.6978,0.6896,0.6873,0.6881,0.6881,0.6904,0.6936,0.6936,0.6936,0.6936,0.6936,0.6936,0.6939,0.6742,0.6692,0.6639,0.6437,0.6387,0.6387,0.6387,0.6387,0.6387,0.6387,0.6387,0.6387,0.6387,0.6387,0.6387,0.6387,0.6387,0.6387,0.6387,0.6387,0.6387,0.6387,0.6387,0.6387,0.6387,0.6387,0.6382,0.623,0.6138,0.6026,0.5866,0.5734,0.5688,0.5688,0.5688,0.5688,0.5688,0.5688,0.5688,0.5688,0.5688,0.5688,0.5688,0.5688,0.5688,0.5688,0.5863,0.6038,0.6169,0.6169,0.6169,0.0,0.4862,0.4932,0.4783,0.4512,0.4265,0.4077,0.3895,0.375,0.3635,0.3613,0.3613,0.3613,0.3613,0.3683,0.3982,0.4143,0.0,0.0,0.0,0.0,0.0,0.0,0.0,0.0,0.0,0.0,0.0,0.7103,0.7021,0.7021,0.7021,0.7021,0.7021,0.7163,0.721,0.721,0.721,0.721,0.721,0.721,0.721,0.721,0.7166,0.7147,0.7139,0.6967,0.6891,0.0,0.6871,0.6872,0.6915,0.7014,0.7113,0.7188,0.7188,0.7188,0.7188,0.7188,0.7188,0.7188,0.6992,0.6942,0.6942,0.6736,0.6537,0.6387,0.6387,0.6387,0.6387,0.6387,0.6387,0.6387,0.6387,0.6387,0.6387,0.6387,0.6387,0.6387,0.6387,0.6387,0.6387,0.6387,0.6387,0.6387,0.6387,0.6387,0.6396,0.6331,0.6251,0.6089,0.592,0.5839,0.5779,0.5869,0.5777,0.5688,0.5688,0.5688,0.5688,0.5688,0.5688,0.5733,0.5863,0.5863,0.5908,0.5949,0.6124,0.6299,0.6384,0.6384,0.6384,0.0,0.4649,0.0,0.4506,0.4388,0.421,0.3967,0.3851,0.0,0.3632,0.361,0.3616,0.3632,0.363,0.3638,0.3682,0.0,0.0,0.0,0.0,0.0,0.0,0.0,0.0,0.0,0.0,0.0,0.0,0.6866,0.6854,0.6854,0.6854,0.6854,0.6854,0.7125,0.7185,0.7185,0.7202,0.7204,0.7199,0.7204,0.7204,0.7193,0.7032,0.698,0.0,0.6842,0.6725,0.667,0.6873,0.6955,0.6895,0.7138,0.7238,0.7238,0.7238,0.7238,0.7238,0.7238,0.7238,0.7238,0.7238,0.7238,0.7188,0.7188,0.6836,0.6437,0.6437,0.6437,0.6437,0.6437,0.6437,0.6437,0.6437,0.6437,0.6437,0.6437,0.6437,0.6437,0.6437,0.6437,0.6437,0.6437,0.6437,0.6437,0.6437,0.6437,0.6399,0.6293,0.6322,0.6181,0.5953,0.592,0.5962,0.612,0.5875,0.5688,0.5733,0.5688,0.5688,0.5688,0.5733,0.5863,0.6083,0.6127,0.6213,0.6432,0.6432,0.6432,0.6428,0.6428,0.6428,0.4517,0.0,0.4488,0.4325,0.416,0.4041,0.0,0.395,0.3918,0.3777,0.0,0.3775,0.3819,0.3776,0.3895,0.0,0.0,0.0,0.0,0.0,0.0,0.0,0.0,0.0,0.0,0.0,0.0,0.6842,0.7026,0.7115,0.7115,0.7276,0.7437,0.7437,0.7496,0.7315,0.6885,0.7119,0.7166,0.7027,0.7169,0.7163,0.7024,0.6997,0.6934,0.6839,0.6714,0.6752,0.6927,0.6881,0.7071,0.7394,0.7494,0.7643,0.7789,0.7789,0.7789,0.7789,0.7789,0.7789,0.7789,0.7593,0.7391,0.7188,0.7188,0.7089,0.7036,0.7036,0.7036,0.7036,0.7036,0.7036,0.7036,0.7036,0.7036,0.7036,0.7036,0.7036,0.6939,0.6742,0.6889,0.6939,0.6742,0.6692,0.6692,0.6692,0.6539,0.6376,0.6399,0.6323,0.6295,0.6237,0.61,0.6169,0.6371,0.5972,0.5777,0.5997,0.5822,0.5688,0.5688,0.5908,0.6041,0.6083,0.6257,0.6435,0.6704,0.6704,0.6789,0.6918,0.6918,0.6918,0.4491,0.4544,0.4555,0.439,0.4286,0.4197,0.4116,0.4042,0.3965,0.0,0.0,0.0,0.0,0.0,0.0,0.0,0.0,0.0,0.0,0.0,0.0,0.0,0.0,0.0,0.0,0.0,0.7021,0.7079,0.713,0.7198,0.7198,0.7355,0.741,0.741,0.7467,0.7322,0.7009,0.7251,0.7285,0.7113,0.7288,0.7339,0.7273,0.7216,0.715,0.7076,0.6947,0.6943,0.7092,0.7124,0.7344,0.7596,0.7746,0.7892,0.7988,0.7988,0.7988,0.7988,0.7988,0.7988,0.7992,0.7842,0.769,0.7587,0.7587,0.7587,0.7537,0.7288,0.7188,0.7188,0.7188,0.7188,0.7188,0.7188,0.7188,0.7188,0.7188,0.7188,0.7285,0.763,0.7826,0.8021,0.8414,0.8464,0.8464,0.8464,0.8312,0.8259,0.8259,0.8189,0.8164,0.8097,0.8013,0.8073,0.8275,0.7929,0.7309,0.6442,0.6262,0.6101,0.6041,0.6169,0.6302,0.6438,0.6612,0.6786,0.6922,0.7363,0.7625,0.7753,0.7753,0.7753,0.4518,0.4651,0.4712,0.4555,0.4522,0.4478,0.4285,0.0,0.0,0.0,0.0,0.0,0.0,0.4458,0.0,0.0,0.0,0.0,0.0,0.0,0.0,0.0,0.0,0.0,0.0,0.7157,0.7237,0.7352,0.7305,0.7238,0.7238,0.7288,0.7338,0.7338,0.7452,0.7416,0.7267,0.7469,0.7478,0.7241,0.7478,0.7586,0.7561,0.7446,0.7379,0.7355,0.0,0.0,0.7288,0.7494,0.7646,0.7696,0.7892,0.7988,0.7988,0.7988,0.7988,0.7988,0.7988,0.7988,0.7988,0.7988,0.7988,0.7988,0.7988,0.7988,0.7889,0.7437,0.7338,0.7338,0.7338,0.7338,0.7338,0.7338,0.7338,0.7338,0.7338,0.7434,0.7829,0.8711,0.9004,0.9444,1.0324,1.0467,1.0467,1.0467,1.0418,1.0418,1.0418,1.0418,1.0356,1.0249,1.0232,1.0308,1.0464,1.0263,0.9347,0.7438,0.727,0.7144,0.6951,0.6945,0.7068,0.7275,0.7316,0.7401,0.7533,0.8189,0.8588,0.8715,0.8715,0.8715,0.4648,0.4853,0.4941,0.4592,0.4592,0.4628,0.45,0.4453,0.0,0.0,0.0,0.0,0.0,0.4876,0.0,0.0,0.0,0.0,0.0,0.0,0.0,0.0,0.0,0.0,0.0,0.72,0.7197,0.7219,0.7406,0.7543,0.7543,0.7743,0.7889,0.7889,0.7912,0.7785,0.756,0.7586,0.7537,0.737,0.754,0.7534,0.7422,0.7401,0.7328,0.7219,0.0,0.7341,0.7543,0.7596,0.7746,0.7939,0.7988,0.7988,0.7988,0.7988,0.7988,0.7988,0.7988,0.7988,0.7988,0.7988,0.7988,0.7988,0.7988,0.7988,0.7988,0.7889,0.7889,0.7889,0.7889,0.7889,0.7889,0.7889,0.7889,0.7889,0.7889,0.8577,0.9213,0.9164,1.0043,1.0828,1.073,1.073,1.073,1.073,1.0569,1.0418,1.0418,1.0418,1.0405,1.0378,1.0374,1.0467,1.0736,1.0687,1.0553,1.0249,0.9753,0.9487,0.9432,0.9468,0.9438,0.9405,0.8671,0.8667,0.9488,0.8798,0.8886,0.9705,0.9705,0.9705,0.4661,0.4724,0.4863,0.4741,0.4945,0.5138,0.5013,0.4979,0.0,0.0,0.0,0.0,0.0,0.0,0.0,0.0,0.0,0.0,0.0,0.0,0.0,0.0,0.0,0.7693,0.7444,0.754,0.764,0.764,0.7743,0.7793,0.7793,0.7942,0.7988,0.7988,0.7988,0.7939,0.7793,0.7823,0.7703,0.7491,0.7706,0.7801,0.7737,0.7737,0.7701,0.764,0.0,0.769,0.7793,0.7793,0.7892,0.7988,0.7988,0.7988,0.7988,0.7988,0.7988,0.7988,0.7988,0.7988,0.7988,0.7988,0.7988,0.8088,0.8676,0.8871,0.897,0.9558,0.8874,0.7988,0.7988,0.7988,0.7988,0.7988,0.7988,0.7988,0.7988,0.8825,0.9756,1.0194,1.1219,1.2145,1.2635,1.2684,1.2684,1.2684,1.2576,1.2522,1.2522,1.2522,1.2522,1.2522,1.2522,1.2576,1.2684,1.2684,1.2192,1.101,1.0613,1.037,1.0364,1.0364,1.031,1.0102,0.9704,0.9605,0.9879,0.9971,1.0236,1.0669,1.0669,1.0669,0.4661,0.4631,0.4728,0.488,0.5152,0.5386,0.5443,0.5392,0.5368,0.0,0.0,0.0,0.0,0.0,0.0,0.0,0.0,0.0,0.0,0.7917,0.7942,0.7693,0.7892,0.7942,0.7693,0.7892,0.7988,0.7988,0.7988,0.7988,0.7988,0.7988,0.7988,0.7988,0.7988,0.7988,0.7988,0.7988,0.7892,0.7696,0.7892,0.7988,0.7988,0.7988,0.7988,0.7988,0.7988,0.7988,0.7988,0.7988,0.7988,0.7988,0.7988,0.8137,0.8382,0.8676,0.8726,0.8726,0.8726,0.8726,0.8726,0.8726,0.8726,0.892,0.9706,0.9998,1.0145,1.0979,0.9998,0.8726,0.8726,0.8726,0.8726,0.8726,0.8726,0.8726,0.8726,0.9558,1.0583,1.1365,1.2387,1.3318,1.4154,1.4298,1.4298,1.4298,1.4298,1.4298,1.4298,1.4298,1.4298,1.4298,1.4298,1.4298,1.4298,1.4298,1.3574,1.1893,1.1635,1.1517,1.1466,1.1466,1.1314,1.1045,1.0815,1.0731,1.0728,1.1221,1.162,1.18,1.18,1.18,0.4766,0.468,0.4728,0.488,0.4836,0.4897,0.545,0.5352,0.0,0.5684,0.0,0.0,0.0,0.0,0.0,0.0,0.0,0.0,0.0,0.0,0.7988,0.7992,0.7988,0.7988,0.7992,0.7988,0.7988,0.7988,0.7988,0.7988,0.7988,0.7988,0.7988,0.7988,0.7988,0.7988,0.7988,0.7988,0.7988,0.7992,0.7988,0.7988,0.7988,0.7988,0.7988,0.7988,0.7988,0.7988,0.7988,0.7988,0.7988,0.7988,0.7988,0.8627,0.9608,1.0587,1.0979,1.0979,1.0979,1.0979,1.0979,1.0979,1.0979,1.0974,1.1072,1.1072,1.1121,1.1175,1.1072,1.0979,1.0979,1.0979,1.0979,1.0979,1.0979,1.0979,1.0979,1.1755,1.2484,1.2581,1.3463,1.4196,1.4298,1.4298,1.4298,1.4298,1.4298,1.4298,1.4298,1.4298,1.4298,1.4298,1.4298,1.4298,1.4298,1.4298,1.4238,1.4076,1.4052,1.3939,1.3695,1.3683,1.3518,1.3263,1.2416,1.2405,1.3227,1.2433,1.2479,1.3318,1.3318,1.3318,0.573,0.5377,0.521,0.5509,0.536,0.0,0.0,0.5847,0.6067,0.6427,0.6576,0.0,0.0,0.0,0.0,0.0,0.0,0.0,0.0,0.7988,0.7988,0.7988,0.7988,0.7988,0.7988,0.7988,0.7988,0.7988,0.7988,0.7988,0.7988,0.7988,0.7988,0.7988,0.7988,0.7988,0.7988,0.7988,0.7988,0.7988,0.7988,0.7988,0.7988,0.7988,0.7988,0.7988,0.7988,0.7988,0.7988,0.7988,0.7988,0.8088,0.8726,0.9657,1.0636,1.1023,1.1219,1.1219,1.1219,1.1219,1.1219,1.1219,1.1219,1.1317,1.195,1.2145,1.229,1.2926,1.3125,1.2829,1.156,1.1219,1.1219,1.1219,1.1219,1.1219,1.1219,1.1999,1.2678,1.2678,1.3559,1.4298,1.4298,1.4298,1.4298,1.4298,1.4298,1.4298,1.4298,1.4298,1.4298,1.4298,1.4298,1.4298,1.4298,1.4298,1.4298,1.4298,1.4298,1.425,1.4153,1.4153,1.4026,1.3761,1.3379,1.3303,1.3513,1.3144,1.3138,1.3513,1.3513,1.3513,0.6396,0.5814,0.549,0.6265,0.0,0.0,0.631,0.644,0.6624,0.6987,0.7146,0.7227,0.723,0.0,0.0,0.0,0.0,0.0,0.0,0.7988,0.7988,0.7988,0.7988,0.7988,0.7988,0.7988,0.7988,0.7988,0.7988,0.7988,0.7988,0.7988,0.7988,0.7988,0.7988,0.7988,0.7988,0.7988,0.7988,0.7988,0.7988,0.7988,0.7988,0.7988,0.7988,0.7988,0.7988,0.7988,0.7988,0.7988,0.8187,0.8627,1.0047,1.1023,1.1707,1.2047,1.2198,1.2198,1.2198,1.2198,1.2198,1.2198,1.2198,1.229,1.3022,1.3216,1.3366,1.41,1.4298,1.3956,1.2538,1.2198,1.2198,1.2198,1.2198,1.2198,1.2198,1.2732,1.3216,1.3216,1.3806,1.4298,1.4298,1.4298,1.4298,1.4298,1.4298,1.4298,1.4298,1.4298,1.4298,1.4298,1.4298,1.4298,1.4298,1.4298,1.4298,1.4298,1.4298,1.4298,1.4298,1.4298,1.4214,1.4032,1.4032,1.3942,1.3761,1.3761,1.3761,1.3761,1.3761,1.3761,0.6677,0.5882,0.5484,0.0,0.0,0.0,0.7575,0.7111,0.6689,0.7299,0.7422,0.7421,0.7573,0.0,0.0,0.7787,0.7891,0.7988,0.7988,0.7988,0.7988,0.7988,0.7988,0.7988,0.7988,0.7988,0.7988,0.7988,0.7988,0.7988,0.7988,0.7988,0.7988,0.7988,0.7988,0.7988,0.7988,0.7988,0.7988,0.7988,0.7988,0.7988,0.7988,0.7988,0.7988,0.7988,0.7988,0.7988,0.7988,0.7988,0.8676,0.985,1.1901,1.2732,1.2823,1.3908,1.4298,1.4298,1.4298,1.4298,1.4298,1.4298,1.4298,1.4298,1.4298,1.4298,1.4298,1.4298,1.4298,1.4298,1.4298,1.4298,1.4298,1.4298,1.4298,1.4298,1.4298,1.4298,1.4298,1.4298,1.4298,1.4298,1.4298,1.4298,1.4298,1.4298,1.4298,1.4298,1.4298,1.4298,1.4298,1.4298,1.4298,1.4298,1.4298,1.4298,1.4298,1.4298,1.4298,1.4298,1.4298,1.4298,1.4298,1.4298,1.4298,1.4298,1.4298,1.4298,1.4298,1.4298,1.4298,1.4298,0.7484,0.7154,0.0,0.7949,0.0,0.0,0.0,0.8,0.0,0.0,0.7756,0.7695,0.774,0.0,0.0,0.7804,0.7891,0.7988,0.7988,0.7988,0.7988,0.7988,0.7988,0.7988,0.7988,0.7988,0.7988,0.7988,0.7988,0.7988,0.7988,0.7988,0.7988,0.7988,0.7988,0.7988,0.7988,0.7988,0.7988,0.7988,0.7988,0.7988,0.7988,0.7988,0.7988,0.7988,0.7988,0.7988,0.8038,0.8825,1.0194,1.1853,1.2436,1.3167,1.3854,1.4196,1.4298,1.4298,1.4298,1.4298,1.4298,1.4298,1.4298,1.4298,1.4298,1.4298,1.4298,1.4298,1.4298,1.4298,1.4298,1.4298,1.4298,1.4298,1.4298,1.4298,1.4298,1.4298,1.4298,1.4298,1.4298,1.4298,1.4298,1.4298,1.4298,1.4298,1.4298,1.4298,1.4298,1.4298,1.4298,1.4298,1.4298,1.4298,1.4298,1.4298,1.4298,1.4298,1.4298,1.4298,1.4298,1.4298,1.4298,1.4298,1.4298,1.4298,1.4298,1.4298,1.4298,1.4298,1.4298,1.4298,0.8235,0.8016,0.0,0.9209,0.945,0.9398,0.9666,0.0,0.0,0.0,0.0,0.7831,0.7889,0.7851,0.0,0.7892,0.7931,0.8137,0.8581,0.8283,0.0,0.8577,0.8237,0.7988,0.7988,0.7988,0.7988,0.7988,0.7988,0.7988,0.7988,0.7988,0.7988,0.7988,0.7988,0.7988,0.7988,0.7988,0.7988,0.7988,0.8432,0.8627,0.8627,0.8187,0.8233,0.8676,0.9069,0.9262,0.9361,1.0386,1.156,1.2732,1.3167,1.3709,1.4298,1.4298,1.4298,1.4298,1.4298,1.4298,1.4298,1.4298,1.4298,1.4298,1.4298,1.4298,1.4298,1.4298,1.4298,1.4298,1.4298,1.4298,1.4298,1.4298,1.4298,1.4298,1.4298,1.4298,1.4298,1.4298,1.4298,1.4298,1.4298,1.4298,1.4298,1.4298,1.4298,1.4298,1.4298,1.4298,1.4298,1.4298,1.4298,1.4298,1.4298,1.4298,1.4298,1.4298,1.4298,1.4298,1.4298,1.4298,1.4298,1.4298,1.4298,1.4298,1.4298,1.4298,1.4298,1.4298,1.4298,1.4298,0.8812,0.0,0.0,0.0,0.0,0.0,0.0,0.0,0.8094,0.8252,0.0,0.8018,0.8259,0.8119,0.8021,0.8262,0.8283,0.8627,0.9608,0.892,0.8676,0.9608,0.8874,0.8237,0.8137,0.8233,0.8237,0.8137,0.8233,0.8283,0.8283,0.8283,0.8283,0.8283,0.8283,0.8283,0.8283,0.8283,0.8283,0.8283,0.9266,0.9752,0.9706,0.8726,0.8821,0.9805,1.0783,1.1268,1.1414,1.2339,1.278,1.2926,1.3908,1.4298,1.4298,1.4298,1.4298,1.4298,1.4298,1.4298,1.4298,1.4298,1.4298,1.4298,1.4298,1.4298,1.4298,1.4298,1.4298,1.4298,1.4298,1.4298,1.4298,1.4298,1.4298,1.4298,1.4298,1.4298,1.4298,1.4298,1.4298,1.4298,1.4298,1.4298,1.4298,1.4298,1.4298,1.4298,1.4298,1.4298,1.4298,1.4298,1.4298,1.4298,1.4298,1.4298,1.4298,1.4298,1.4298,1.4298,1.4298,1.4298,1.4298,1.4298,1.4298,1.4298,1.4298,1.4298,1.4298,1.4298,1.4298,1.4298,0.0,0.8967,0.0,0.0,0.0,0.0,0.0,0.0,0.0,0.0,0.9821,0.9465,1.0333,0.9821,0.9514,1.0382,1.0489,1.0583,1.0828,1.0685,1.0587,1.0828,1.0636,1.0194,0.9316,0.9998,1.0145,0.9312,1.0047,1.0489,1.0489,1.0489,1.0489,1.0489,1.0489,1.0489,1.0489,1.0489,1.0489,1.0489,1.073,1.0881,1.0832,1.0636,1.0636,1.0877,1.1126,1.1658,1.2387,1.263,1.3221,1.4004,1.4196,1.4298,1.4298,1.4298,1.4298,1.4298,1.4298,1.4298,1.4298,1.4298,1.4298,1.4298,1.4298,1.4298,1.4298,1.4298,1.4298,1.4298,1.4298,1.4298,1.4298,1.4298,1.4298,1.4298,1.4298,1.4298,1.4298,1.4298,1.4298,1.4298,1.4298,1.4298,1.4298,1.4298,1.4298,1.4298,1.4298,1.4298,1.4298,1.4298,1.4298,1.4298,1.4298,1.4298,1.4298,1.4298,1.4298,1.4298,1.4298,1.4298,1.4298,1.4298,1.4298,1.4298,1.4298,1.4298,1.4298,1.4298,1.4298,1.4298,0.0,0.0,0.0,0.0,0.0,0.0,0.0,0.0,0.0,0.0,0.0,0.0,0.0,1.073,1.0534,1.1121,1.1219,1.1365,1.1853,1.1512,1.1365,1.1853,1.1512,1.0974,1.0435,1.0877,1.0979,1.0391,1.0877,1.1219,1.1219,1.1219,1.1219,1.1219,1.1219,1.1219,1.1219,1.1219,1.1219,1.1219,1.1707,1.2193,1.2684,1.2145,1.1901,1.195,1.2441,1.2974,1.3463,1.3463,1.3806,1.4298,1.4298,1.4298,1.4298,1.4298,1.4298,1.4298,1.4298,1.4298,1.4298,1.4298,1.4298,1.4298,1.4298,1.4298,1.4298,1.4298,1.4298,1.4298,1.4298,1.4298,1.4298,1.4298,1.4298,1.4298,1.4298,1.4298,1.4298,1.4298,1.4298,1.4298,1.4298,1.4298,1.4298,1.4298,1.4298,1.4298,1.4298,1.4298,1.4298,1.4298,1.4298,1.4298,1.4298,1.4298,1.4298,1.4298,1.4298,1.4298,1.4298,1.4298,1.4298,1.4298,1.4298,1.4298,1.4298,1.4298,1.4298,1.4298,1.4298,1.4298,0.0,0.0,0.0,0.0,0.0,0.0,0.0,0.0,0.0,0.0,0.0,0.0,0.0,0.0,0.0,1.1707,1.1755,1.2047,1.2877,1.2242,1.2047,1.2877,1.2242,1.1658,1.1463,1.1609,1.1658,1.1463,1.1609,1.1755,1.1755,1.1755,1.1755,1.1755,1.1755,1.1755,1.1755,1.1755,1.1755,1.1755,1.2587,1.3463,1.425,1.3366,1.2974,1.3022,1.3908,1.4298,1.4298,1.4298,1.4298,1.4298,1.4298,1.4298,1.4298,1.4298,1.4298,1.4298,1.4298,1.4298,1.4298,1.4298,1.4298,1.4298,1.4298,1.4298,1.4298,1.4298,1.4298,1.4298,1.4298,1.4298,1.4298,1.4298,1.4298,1.4298,1.4298,1.4298,1.4298,1.4298,1.4298,1.4298,1.4298,1.4298,1.4298,1.4298,1.4298,1.4298,1.4298,1.4298,1.4298,1.4298,1.4298,1.4298,1.4298,1.4298,1.4298,1.4298,1.4298,1.4298,1.4298,1.4298,1.4298,1.4298,1.4298,1.4298,1.4298,1.4298,1.4298,1.4298,1.4298,1.4298,0.0,0.0,0.0,0.0,0.0,0.0,0.0,0.0,0.0,0.0,0.0,0.0,0.0,0.0,0.0,0.0,0.0,0.0,0.0,0.0,1.3956,1.4052,1.3956,1.3516,1.2581,1.3318,1.3511,1.2587,1.3366,1.3908,1.3908,1.3908,1.3908,1.3908,1.3908,1.3908,1.3908,1.3908,1.3908,1.3908,1.4004,1.4148,1.4298,1.4148,1.41,1.41,1.425,1.4298,1.4298,1.4298,1.4298,1.4298,1.4298,1.4298,1.4298,1.4298,1.4298,1.4298,1.4298,1.4298,1.4298,1.4298,1.4298,1.4298,1.4298,1.4298,1.4298,1.4298,1.4298,1.4298,1.4298,1.4298,1.4298,1.4298,1.4298,1.4298,1.4298,1.4298,1.4298,1.4298,1.4298,1.4298,1.4298,1.4298,1.4298,1.4298,1.4298,1.4298,1.4298,1.4298,1.4298,1.4298,1.4298,1.4298,1.4298,1.4298,1.4298,1.4298,1.4298,1.4298,1.4298,1.4298,1.4298,1.4298,1.4298,1.4298,1.4298,1.4298,1.4298,1.4298,1.4298,1.4298,0.0,0.0,0.0,0.0,0.0,0.0,0.0,0.0,0.0,0.0,0.0,0.0,0.0,0.0,0.0,0.0,0.0,0.0,0.0,0.0,0.0,0.0,1.4298,1.41,1.3655,1.4004,1.41,1.3613,1.4052,1.4298,1.4298,1.4298,1.4298,1.4298,1.4298,1.4298,1.4298,1.4298,1.4298,1.4298,1.4298,1.4298,1.4298,1.4298,1.4298,1.4298,1.4298,1.4298,1.4298,1.4298,1.4298,1.4298,1.4298,1.4298,1.4298,1.4298,1.4298,1.4298,1.4298,1.4298,1.4298,1.4298,1.4298,1.4298,1.4298,1.4298,1.4298,1.4298,1.4298,1.4298,1.4298,1.4298,1.4298,1.4298,1.4298,1.4298,1.4298,1.4298,1.4298,1.4298,1.4298,1.4298,1.4298,1.4298,1.4298,1.4298,1.4298,1.4298,1.4298,1.4298,1.4298,1.4298,1.4298,1.4298,1.4298,1.4298,1.4298,1.4298,1.4298,1.4298,1.4298,1.4298,1.4298,1.4298,1.4298,1.4298,1.4298,1.4298,1.4298,1.4298,1.4298,1.4298,0.0,0.0,0.0,0.0,0.0,0.0,0.0,0.0,0.0,0.0,0.0,0.0,0.0,0.0,0.0,0.0,0.0,0.0,0.0,0.0,0.0,0.0,0.0,1.4298,1.4298,1.4298,1.4298,1.4298,1.4298,1.4298,1.4298,1.4298,1.4298,1.4298,1.4298,1.4298,1.4298,1.4298,1.4298,1.4298,1.4298,1.4298,1.4298,1.4298,1.4298,1.4298,1.4298,1.4298,1.4298,1.4298,1.4298,1.4298,1.4298,1.4298,1.4298,1.4298,1.4298,1.4298,1.4298,1.4298,1.4298,1.4298,1.4298,1.4298,1.4298,1.4298,1.4298,1.4298,1.4298,1.4298,1.4298,1.4298,1.4298,1.4298,1.4298,1.4298,1.4298,1.4298,1.4298,1.4298,1.4298,1.4298,1.4298,1.4298,1.4298,1.4298,1.4298,1.4298,1.4298,1.4298,1.4298,1.4298,1.4298,1.4298,1.4298,1.4298,1.4298,1.4298,1.4298,1.4298,1.4298,1.4298,1.4298,1.4298,1.4298,1.4298,1.4298,1.4298,1.4298,1.4298,1.4298,1.4298,0.0,0.0,0.0,0.0,0.0,0.0,0.0,0.0,0.0,0.0,0.0,0.0,0.0,0.0,0.0,0.0,0.0,0.0,0.0,0.0,0.0,0.0,0.0,0.0,1.4298,1.4298,1.4298,1.4298,1.4298,1.4298,1.4298,1.4298,1.4298,1.4298,1.4298,1.4298,1.4298,1.4298,1.4298,1.4298,1.4298,1.4298,1.4298,1.4298,1.4298,1.4298,1.4298,1.4298,1.4298,1.4298,1.4298,1.4298,1.4298,1.4298,1.4298,1.4298,1.4298,1.4298,1.4298,1.4298,1.4298,1.4298,1.4298,1.4298,1.4298,1.4298,1.4298,1.4298,1.4298,1.4298,1.4298,1.4298,1.4298,1.4298,1.4298,1.4298,1.4298,1.4298,1.4298,1.4298,1.4298,1.4298,1.4298,1.4298,1.4298,1.4298,1.4298,1.4298,1.4298,1.4298,1.4298,1.4298,1.4298,1.4298,1.4298,1.4298,1.4298,1.4298,1.4298,1.4298,1.4298,1.4298,1.4298,1.4298,1.4298,1.4298,1.4298,1.4298,1.4298,1.4298,1.4298,1.4298,0.0,0.0,0.0,0.0,0.0,0.0,0.0,0.0,0.0,0.0,0.0,0.0,0.0,0.0,0.0,0.0,0.0,0.0,0.0,0.0,0.0,0.0,0.0,0.0,0.0,0.0,1.4298,1.4298,1.4298,1.4298,1.4298,1.4298,1.4298,1.4298,1.4298,1.4298,1.4298,1.4298,1.4298,1.4298,1.4298,1.4298,1.4298,1.4298,1.4298,1.4298,1.4298,1.4298,1.4298,1.4298,1.4298,1.4298,1.4298,1.4298,1.4298,1.4298,1.4298,1.4298,1.4298,1.4298,1.4298,1.4298,1.4298,1.4298,1.4298,1.4298,1.4298,1.4298,1.4298,1.4298,1.4298,1.4298,1.4298,1.4298,1.4298,1.4298,1.4298,1.4298,1.4298,1.4298,1.4298,1.4298,1.4298,1.4298,1.4298,1.4298,1.4298,1.4298,1.4298,1.4298,1.4298,1.4298,1.4298,1.4298,1.4298,1.4298,1.4298,1.4298,1.4298,1.4298,1.4298,1.4298,1.4298,1.4298,1.4298,1.4298,1.4298,1.4298,1.4298,1.4298,1.4298,1.4298,0.6914,0.0,0.0,0.0,0.0,0.0,0.0,0.0,0.0,0.0,0.0,0.0,0.0,0.0,0.0,0.0,0.0,0.0,0.0,0.0,0.0,0.0,0.0,0.0,0.0,0.0,0.0,1.4171,1.4165,0.0,1.4039,1.4117,1.4208,1.4292,1.4298,1.4298,1.4298,1.4298,1.4298,1.4298,1.4298,1.4298,1.4298,1.4298,1.4298,1.4298,1.4298,1.4298,1.4298,1.4298,1.4298,1.4298,1.4298,1.4298,1.4298,1.4298,1.4298,1.4298,1.4298,1.4298,1.4298,1.4298,1.4298,1.4298,1.4298,1.4298,1.4298,1.4298,1.4298,1.4298,1.4298,1.4298,1.4298,1.4298,1.4298,1.4298,1.4298,1.4298,1.4298,1.4298,1.4298,1.4298,1.4298,1.4298,1.4298,1.4298,1.4298,1.4298,1.4298,1.4298,1.4298,1.4298,1.4298,1.4298,1.4298,1.4298,1.4298,1.4298,1.4298,1.4298,1.4298,1.4298,1.4298,1.4298,1.4298,1.4298,1.4298,1.4298,1.4298,1.4298,1.4298,1.4298,0.0,0.0,0.0,0.0,0.0,0.0,0.0,0.0,0.0,0.0,0.0,0.0,0.0,0.0,0.0,0.0,0.0,0.0,0.0,0.0,0.0,0.0,0.0,0.0,0.0,0.0,0.0,1.3912,1.3894,1.3779,1.3525,1.3755,1.4008,1.4262,1.4274,1.428,1.4286,1.4286,1.4292,1.4298,1.4298,1.4298,1.4298,1.4298,1.4298,1.4298,1.4298,1.4298,1.4298,1.4298,1.4298,1.4298,1.4298,1.4298,1.4298,1.4298,1.4298,1.4298,1.4298,1.4298,1.4298,1.4298,1.4298,1.4298,1.4298,1.4298,1.4298,1.4298,1.4298,1.4298,1.4298,1.4298,1.4298,1.4298,1.4298,1.4298,1.4298,1.4298,1.4298,1.4298,1.4298,1.4298,1.4298,1.4298,1.4298,1.4298,1.4298,1.4298,1.4298,1.4298,1.4298,1.4298,1.4298,1.4298,1.4298,1.4298,1.4298,1.4298,1.4298,1.4298,1.4298,1.4298,1.4298,1.4298,1.4298,1.4298,1.4298,1.4298,1.4298,1.4298,1.4298,1.4298,0.6823,0.0,0.0,0.0,0.0,0.0,0.0,0.0,0.0,0.0,0.0,0.0,0.0,0.0,0.0,0.0,0.0,0.0,0.0,0.0,0.0,0.0,0.0,0.0,0.0,0.0,0.0,0.0,1.3622,1.3592,1.3519,1.3586,1.3652,1.3731,1.3731,1.3821,1.4014,1.4014,1.4111,1.4298,1.4298,1.4298,1.4298,1.4298,1.4298,1.4298,1.4298,1.4298,1.4298,1.4298,1.4298,1.4298,1.4298,1.4298,1.4298,1.4298,1.4298,1.4298,1.4298,1.4298,1.4298,1.4298,1.4298,1.4298,1.4298,1.4298,1.4298,1.4298,1.4298,1.4298,1.4298,1.4298,1.4298,1.4298,1.4298,1.4298,1.4298,1.4298,1.4298,1.4298,1.4298,1.4298,1.4298,1.4298,1.4298,1.4298,1.4298,1.4298,1.4298,1.4298,1.4298,1.4298,1.4298,1.4298,1.4298,1.4298,1.4298,1.4298,1.4298,1.4298,1.4298,1.4298,1.4298,1.4298,1.4298,1.4298,1.4298,1.4298,1.4298,1.4298,1.4298,1.4298,0.0,0.0,0.0,0.0,0.0,0.0,0.0,0.8487,0.0,0.0,0.0,0.0,0.0,0.0,0.0,0.0,0.0,0.0,0.0,0.0,0.0,0.0,0.0,0.0,0.0,1.3447,1.3471,1.3357,1.335,1.335,1.335,1.335,1.3399,1.3513,1.3513,1.3592,1.3743,1.3743,1.3815,1.3972,1.4081,1.4135,1.4135,1.425,1.4298,1.4298,1.4298,1.4298,1.4298,1.4298,1.4298,1.4298,1.4298,1.4298,1.4298,1.4298,1.4298,1.4298,1.4298,1.4298,1.4298,1.4298,1.4298,1.4298,1.4298,1.4298,1.4298,1.4298,1.4298,1.4298,1.4298,1.4298,1.4298,1.4298,1.4298,1.4298,1.4298,1.4298,1.4298,1.4298,1.4298,1.4298,1.4298,1.4298,1.4298,1.4298,1.4298,1.4298,1.4298,1.4298,1.4298,1.4298,1.4298,1.4298,1.4298,1.4298,1.4298,1.4298,1.4298,1.4298,1.4298,1.4298,1.4298,1.4298,1.4298,1.4298,1.4298,1.4298,1.4298,1.4298,1.4298,1.4298,0.7455,0.7528,0.0,0.0,0.0,0.0,0.8433,0.862,0.8728,0.0,0.0,0.0,0.0,0.0,0.0,0.0,0.0,0.0,0.0,0.0,0.0,0.0,0.0,0.0,1.3029,1.329,1.3332,1.3053,1.3079,1.3079,1.3079,1.3079,1.3137,1.3417,1.3423,1.3441,1.3471,1.3471,1.3483,1.3519,1.3749,1.3876,1.3912,1.4147,1.4268,1.4298,1.4298,1.4298,1.4298,1.4298,1.4298,1.4298,1.4298,1.4298,1.4298,1.4298,1.4298,1.4298,1.4298,1.4298,1.4298,1.4298,1.4298,1.4298,1.4298,1.4298,1.4298,1.4298,1.4298,1.4298,1.4298,1.4298,1.4298,1.4298,1.4298,1.4298,1.4298,1.4298,1.4298,1.4298,1.4298,1.4298,1.4298,1.4298,1.4298,1.4298,1.4298,1.4298,1.4298,1.4298,1.4298,1.4298,1.4298,1.4298,1.4298,1.4298,1.4298,1.4298,1.4298,1.4298,1.4298,1.4298,1.4298,1.4298,1.4298,1.4298,1.4298,1.4298,1.4298,1.4298,1.4298,1.4298,0.8229,0.0,0.0,0.0,0.0,0.0,0.7915,0.8112,0.8381,0.0,0.0,0.0,0.0,0.0,0.0,0.0,0.0,0.0,0.0,0.0,0.0,0.0,0.0,0.0,1.2765,1.2831,1.2837,1.2789,1.2783,1.2783,1.2783,1.2783,1.2813,1.2862,1.2862,1.297,1.32,1.32,1.3308,1.3513,1.3568,1.3701,1.3912,1.396,1.4099,1.4298,1.4298,1.4298,1.4298,1.4298,1.4298,1.4298,1.4298,1.4298,1.4298,1.4298,1.4298,1.4298,1.4298,1.4298,1.4298,1.4298,1.4298,1.4298,1.4298,1.4298,1.4298,1.4298,1.4298,1.4298,1.4298,1.4298,1.4298,1.4298,1.4298,1.4298,1.4298,1.4298,1.4298,1.4298,1.4298,1.4298,1.4298,1.4298,1.4298,1.4298,1.4298,1.4298,1.4298,1.4298,1.4298,1.4298,1.4298,1.4298,1.4298,1.4298,1.4298,1.4298,1.4298,1.4298,1.4298,1.4298,1.4298,1.4298,1.4298,1.4298,1.4298,1.4298,1.4298,1.4298,1.4298,1.4298,0.8656,0.0,0.0,0.8548,0.0,0.0,0.0,0.8115,0.8135,0.8261,0.0,0.0,0.0,0.0,0.0,0.0,0.0,0.0,0.0,0.0,0.0,0.0,0.0,0.0,1.23,1.2312,1.2367,1.2499,1.2506,1.2566,1.2699,1.2705,1.2705,1.2705,1.2705,1.2771,1.2916,1.2916,1.2982,1.3115,1.3254,1.3387,1.3519,1.3652,1.3851,1.4099,1.4099,1.4177,1.4298,1.4298,1.4298,1.4298,1.4298,1.4298,1.4298,1.4298,1.4298,1.4298,1.4298,1.4298,1.4298,1.4298,1.4298,1.4298,1.4298,1.4298,1.4298,1.4298,1.4298,1.4298,1.4298,1.4298,1.4298,1.4298,1.4298,1.4298,1.4298,1.4298,1.4298,1.4298,1.4298,1.4298,1.4298,1.4298,1.4298,1.4298,1.4298,1.4298,1.4298,1.4298,1.4298,1.4298,1.4298,1.4298,1.4298,1.4298,1.4298,1.4298,1.4298,1.4298,1.4298,1.4298,1.4298,1.4298,1.4298,1.4298,1.4298,1.4298,1.4298,1.4298,1.4298,1.4298,0.0,0.0,0.0,0.0,0.0,0.8674,0.0,0.0,0.0,0.8195,0.0,0.0,0.0,0.0,0.0,0.0,0.0,0.0,0.0,0.0,0.0,0.0,0.0,0.0,1.1718,1.1769,1.1896,1.2216,1.2143,1.224,1.2608,1.2626,1.265,1.2705,1.2705,1.2705,1.2705,1.2705,1.2705,1.2705,1.2934,1.3029,1.3133,1.3344,1.3586,1.3833,1.3882,1.4026,1.4226,1.428,1.4298,1.4298,1.4298,1.4298,1.4298,1.4298,1.4298,1.4298,1.4298,1.4298,1.4298,1.4298,1.4298,1.4298,1.4298,1.4298,1.4298,1.4346,1.4346,1.4298,1.4346,1.4346,1.4346,1.449,1.4532,1.4532,1.4729,1.4729,1.4729,1.4729,1.4729,1.4634,1.4346,1.4298,1.4298,1.4298,1.4298,1.4298,1.4298,1.4298,1.4298,1.4298,1.4298,1.4298,1.4298,1.4298,1.4298,1.4298,1.4298,1.4298,1.4298,1.4298,1.4298,1.4298,1.4298,1.4346,1.4394,1.4394,1.4346,1.4298,1.4298,1.4298,0.0,0.0,0.0,0.0,0.9588,0.0,0.0,0.0,0.8493,0.8033,0.0,0.0,0.0,0.0,0.0,0.0,0.0,0.0,0.0,0.0,0.0,0.0,0.0,0.0,0.0,1.1202,1.1413,1.1926,1.1483,1.157,1.2318,1.2361,1.2463,1.2699,1.2705,1.2705,1.2705,1.2705,1.2705,1.2705,1.2735,1.288,1.3083,1.3107,1.327,1.3574,1.3803,1.3924,1.3966,1.4201,1.4298,1.4298,1.4298,1.4298,1.4298,1.4298,1.4298,1.4298,1.4298,1.4298,1.4298,1.4298,1.4298,1.4298,1.4298,1.4298,1.4346,1.4592,1.449,1.4346,1.4592,1.4496,1.4436,1.5105,1.5296,1.5486,1.6204,1.6346,1.6346,1.6346,1.6346,1.5913,1.4538,1.4298,1.4298,1.4298,1.4298,1.4298,1.4298,1.4298,1.4298,1.4298,1.4298,1.4298,1.4298,1.4298,1.4298,1.4298,1.4298,1.4298,1.4298,1.4298,1.4298,1.4298,1.4298,1.4442,1.464,1.464,1.4544,1.4298,1.4298,1.4298,0.0,0.0,0.0,0.0,0.0,0.0,0.8602,0.0,0.8207,0.0,0.0,0.0,0.0,0.0,0.0,0.0,0.0,0.0,0.0,0.0,0.0,0.0,0.0,0.0,0.0,0.0,0.0,0.0,1.1015,1.1134,1.1784,1.2149,1.2361,1.2475,1.2626,1.2705,1.2705,1.2705,1.2705,1.2705,1.2705,1.2765,1.288,1.288,1.3031,1.3258,1.3562,1.3767,1.3924,1.4189,1.4298,1.4298,1.4298,1.4298,1.4298,1.4298,1.4298,1.4298,1.4298,1.4298,1.4298,1.4298,1.4394,1.4544,1.4544,1.464,1.479,1.4885,1.4838,1.479,1.4885,1.4838,1.4975,1.5846,1.6035,1.6271,1.721,1.7397,1.7397,1.7397,1.7171,1.6796,1.617,1.5425,1.4962,1.4962,1.458,1.4298,1.4298,1.4298,1.4298,1.4298,1.4298,1.449,1.4914,1.4962,1.4962,1.4962,1.4532,1.4298,1.4298,1.4298,1.4298,1.4298,1.4298,1.4442,1.4688,1.4688,1.4736,1.4736,1.4736,1.4736,1.0884,0.0,0.0,0.0,0.0,0.0,0.0,0.0,0.0,0.0,0.0,0.0,0.0,0.0,0.0,0.0,0.0,0.0,0.0,0.0,0.0,0.0,0.0,0.0,0.0,0.0,0.0,1.0424,0.0,1.0581,1.1339,1.1775,1.2083,1.2306,1.2499,1.2632,1.2705,1.2705,1.2705,1.2705,1.2705,1.2705,1.2705,1.2705,1.2862,1.3112,1.3379,1.3647,1.3914,1.427,1.4327,1.4298,1.4394,1.4346,1.4298,1.4298,1.4298,1.4298,1.4298,1.4298,1.4298,1.4394,1.4544,1.4783,1.5112,1.535,1.554,1.5913,1.5961,1.592,1.6008,1.5961,1.6143,1.7008,1.7235,1.7522,1.8411,1.8642,1.8642,1.8642,1.8365,1.8133,1.8133,1.6882,1.59,1.59,1.5568,1.5188,1.4854,1.4854,1.4765,1.4442,1.4723,1.514,1.5663,1.594,1.5994,1.571,1.5473,1.5188,1.4908,1.4902,1.4902,1.4902,1.4634,1.464,1.4927,1.4927,1.507,1.5267,1.5178,1.5083,0.0,0.0,0.0,1.0019,0.0,0.0,0.0,0.0,0.8921,0.0,0.0,0.0,0.0,0.0,0.0,0.0,0.0,0.0,0.0,0.0,0.0,0.0,0.0,0.0,0.0,0.0,0.9077,0.0,0.9444,0.9715,1.1057,1.1141,1.151,1.2288,1.2324,1.2445,1.2699,1.2705,1.2705,1.2705,1.2705,1.2705,1.2705,1.2705,1.2839,1.3125,1.3399,1.3634,1.3919,1.4423,1.4499,1.4346,1.4592,1.4544,1.4298,1.4298,1.4298,1.4298,1.4298,1.4298,1.4346,1.4592,1.4688,1.4921,1.6075,1.6445,1.672,1.7933,1.8118,1.7987,1.8211,1.8118,1.8126,1.8918,1.9101,1.9338,2.0056,2.0246,2.0246,2.0246,2.0192,2.0201,2.0201,1.8557,1.725,1.725,1.7615,1.7468,1.6297,1.6304,1.5988,1.4831,1.5704,1.6445,1.6445,1.7382,1.7522,1.6539,1.7382,1.7429,1.6492,1.6445,1.6445,1.6445,1.5534,1.522,1.5493,1.5493,1.5594,1.5784,1.5315,1.5083,0.0,0.0,1.2533,1.1104,0.0,0.0,0.0,0.0,0.0,0.0,0.0,0.0,0.0,0.0,0.0,0.0,0.0,0.0,0.0,0.0,0.0,0.0,0.0,0.0,0.0,0.0,0.0,0.0,0.9162,0.0,1.0211,1.0809,1.1361,1.1939,1.2172,1.2439,1.2699,1.2881,1.2966,1.2966,1.3094,1.3179,1.3179,1.3179,1.3222,1.3326,1.3597,1.373,1.3862,1.4374,1.4574,1.4534,1.4864,1.5302,1.5656,1.4867,1.4544,1.4682,1.5466,1.5744,1.5886,1.664,1.7008,1.7242,1.7608,1.7894,1.8133,1.8549,1.8596,1.8549,1.8642,1.8596,1.878,1.9704,1.9931,2.0167,2.1051,2.1239,2.1239,2.1239,2.0961,2.0781,2.0781,2.0212,1.9467,1.8688,1.8218,1.7848,1.7429,1.7429,1.7336,1.6922,1.7242,1.7708,1.8265,1.8596,1.8642,1.8311,1.8126,1.7848,1.7522,1.7475,1.7475,1.7475,1.7156,1.6835,1.6419,1.7109,1.6882,1.5832,1.6298,1.6204,1.3905,1.3761,0.0,1.2285,1.1906,0.0,0.9915,0.0,0.0,0.0,0.0,0.0,0.0,0.0,0.0,0.0,0.0,0.0,0.0,0.0,0.0,0.0,0.0,0.0,0.0,0.0,0.8456,0.8743,0.8898,0.0,0.0,1.0571,1.1261,1.1758,1.2181,1.2554,1.2819,1.3087,1.3222,1.3222,1.3355,1.3398,1.3398,1.3398,1.344,1.3532,1.3668,1.3803,1.3931,1.4495,1.4713,1.4642,1.5063,1.5764,1.6398,1.5615,1.5575,1.5994,1.6774,1.7008,1.7149,1.7894,1.8257,1.8488,1.8948,1.9193,1.9384,1.9758,1.9849,1.9849,1.9849,1.9849,1.9985,2.0628,2.0808,2.0952,2.1553,2.1696,2.1696,2.1696,2.1454,2.1266,2.1266,2.1266,2.0943,1.9977,1.9559,1.9147,1.8726,1.8772,1.8634,1.8172,1.8542,1.9147,2.0031,2.0076,1.9931,1.9604,1.9422,1.9193,1.8818,1.8818,1.8818,1.8818,1.8457,1.8041,1.7584,1.8226,1.7948,1.6897,1.7552,1.7505]}]]